[[{"header":{"parameterUnit":"m.s-1","parameterCategory":1,"la1":31.0,"la2":29.5877,"lo1":-88.7671,"lo2":-86.6584,"dx":0.0162,"dy":0.0185,"nx":115,"ny":88,"refTime":"2023-01-29T06:00:00:Z","depth":0,"parameterNumber":2,"parameterNumberName":"U-component_of_WINDS"},"data":[0.0,0.0,0.0,0.0,0.0,0.0,0.0,0.0,0.0,0.0,0.0,0.0,0.0,0.0,0.0,0.0,0.0,0.0,0.0,0.0,0.0,0.0,0.0,0.0,0.0,0.0,0.0,0.0,0.0,0.0,0.0,0.0,0.0,0.0,0.0,0.0,0.0,0.0,0.0,0.0,0.0,0.0,0.0,0.0,0.0,0.0,0.0,0.0,0.0,0.0,0.0,0.0,0.0,0.0,0.0,0.0,0.0,0.0,0.0,0.0,0.0,0.0,0.0,0.0,0.0,0.0,0.0,0.0,0.0,0.0,0.0,0.0,0.0,0.0,0.0,0.0,0.0,0.0,0.0,0.0,0.0,0.0,0.0,0.0,0.0,0.0,0.0,0.0,0.0,0.0,0.0,0.0,0.0,0.0,0.0,0.0,0.0,0.0,0.0,0.0,0.0,0.0,0.0,0.0,0.0,0.0,0.0,0.0,0.0,0.0,0.0,0.0,0.0,0.0,0.0,0.0,0.0,0.0,0.0,0.0,0.0,0.0,0.0,0.0,0.0,0.0,0.0,0.0,0.0,0.0,0.0,0.0,0.0,0.0,0.0,0.0,0.0,0.0,0.0,0.0,0.0,0.0,0.0,0.0,0.0,0.0,0.0,0.0,0.0,0.0,0.0,0.0,0.0,0.0,0.0,0.0,0.0,0.0,0.0,0.0,0.0,0.0,0.0,0.0,0.0,0.0,0.0,0.0,0.0,0.0,0.0,0.0,0.0,0.0,0.0,0.0,0.0,0.0,0.0,0.0,0.0,0.0,0.0,0.0,0.0,0.0,0.0,0.0,0.0,0.0,0.0,0.0,0.0,0.0,0.0,0.0,0.0,0.0,0.0,0.0,0.0,0.0,0.0,0.0,0.0,0.0,0.0,0.0,0.0,0.0,0.0,0.0,0.0,0.0,0.0,0.0,0.0,0.0,0.0,0.0,0.0,0.0,0.0,0.0,0.0,0.0,0.0,0.0,0.0,0.0,0.0,0.0,0.0,0.0,0.0,0.0,0.0,0.0,0.0,0.0,0.0,0.0,0.0,0.0,0.0,0.0,0.0,0.0,0.0,0.0,0.0,0.0,0.0,0.0,0.0,0.0,0.0,0.0,0.0,0.0,0.0,0.0,0.0,0.0,0.0,0.0,0.0,0.0,0.0,0.0,0.0,0.0,0.0,0.0,0.0,0.0,0.0,0.0,0.0,0.0,0.0,0.0,0.0,0.0,0.0,0.0,0.0,0.0,0.0,0.0,0.0,0.0,0.0,0.0,0.0,0.0,0.0,0.0,0.0,0.0,0.0,0.0,0.0,0.0,0.0,0.0,0.0,0.0,0.0,0.0,0.0,0.0,0.0,0.0,0.0,0.0,0.0,0.0,0.0,0.0,0.0,0.0,0.0,0.0,0.0,0.0,0.0,0.0,0.0,0.0,0.0,0.0,0.0,0.0,0.0,0.0,0.0,0.0,0.0,0.0,0.0,0.0,0.0,0.0,0.0,0.0,0.0,0.0,0.0,0.0,0.0,0.0,0.0,0.0,0.0,0.0,0.0,0.0,0.0,0.0,0.0,0.0,0.0,0.0,0.0,0.0,0.0,0.0,0.0,0.0,0.0,0.0,0.0,0.0,0.0,0.0,0.0,0.0,0.0,0.0,0.0,0.0,0.0,0.0,0.0,0.0,0.0,0.0,0.0,0.0,0.0,0.0,0.0,0.0,0.0,0.0,0.0,0.0,0.0,0.0,0.0,0.0,0.0,0.0,0.0,0.0,0.0,0.0,0.0,0.0,0.0,0.0,0.0,0.0,0.0,0.0,0.0,0.0,0.0,0.0,0.0,0.0,0.0,0.0,0.0,0.0,0.0,0.0,0.0,0.0,0.0,0.0,0.0,0.0,0.0,0.0,0.0,0.0,0.0,0.0,0.0,0.0,0.0,0.0,0.0,0.0,0.0,0.0,0.0,0.0,0.0,0.0,0.0,0.0,0.0,0.0,0.0,0.0,0.0,0.0,0.0,0.0,0.0,0.0,0.0,0.0,0.0,0.0,0.0,0.0,0.0,0.0,0.0,0.0,0.0,0.0,0.0,0.0,0.0,0.0,0.0,0.0,0.0,0.0,0.0,0.0,0.0,0.0,0.0,0.0,0.0,0.0,0.0,0.0,0.0,0.0,0.0,0.0,0.0,0.0,0.0,0.0,0.0,0.0,0.0,0.0,0.0,0.0,0.0,0.0,0.0,0.0,0.0,0.0,0.0,0.0,0.0,0.0,0.0,0.0,0.0,0.0,0.0,0.0,0.0,0.0,0.0,0.0,0.0,0.0,0.0,0.0,0.0,0.0,0.0,0.0,0.0,0.0,0.0,0.0,0.0,0.0,0.0,0.0,0.0,0.0,0.0,0.0,0.0,0.0,0.0,0.0,0.0,0.0,0.0,0.0,0.0,0.0,0.0,0.0,0.0,0.0,0.0,0.0,0.0,0.0,0.0,0.0,0.0,0.0,0.0,0.0,0.0,0.0,0.0,0.0,0.0,0.0,0.0,0.0,0.0,0.0,0.0,0.0,0.0,0.0,0.0,0.0,0.0,0.0,0.0,0.0,0.0,0.0,0.0,0.0,0.0,0.0,0.0,0.0,0.0,0.0,0.0,0.0,0.0,0.0,0.0,0.0,0.0,0.0,0.0,0.0,0.0,0.0,0.0,0.0,0.0,0.0,0.0,0.0,0.0,0.0,0.0,0.0,0.0,0.0,0.0,0.0,0.0,0.0,0.0,0.0,0.0,0.0,0.0,0.0,0.0,0.0,0.0,0.0,0.0,0.0,0.0,0.0,0.0,0.0,0.0,0.0,0.0,0.0,0.0,0.0,0.0,0.0,0.0,0.0,0.0,0.0,0.0,0.0,0.0,0.0,0.0,0.0,0.0,0.0,0.0,0.0,0.0,0.0,0.0,0.0,0.0,0.0,0.0,0.0,0.0,0.0,0.0,0.0,0.0,0.0,0.0,0.0,0.0,0.0,0.0,0.0,0.0,0.0,0.0,0.0,0.0,0.0,0.0,0.0,0.0,0.0,0.0,0.0,0.0,0.0,0.0,0.0,0.0,0.0,0.0,0.0,0.0,0.0,0.0,0.0,0.0,0.0,0.0,0.0,0.0,0.0,0.0,0.0,0.0,0.0,0.0,0.0,0.0,0.0,0.0,0.0,0.0,0.0,0.0,0.0,0.0,0.0,0.0,0.0,0.0,0.0,0.0,0.0,0.0,0.0,0.0,0.0,0.0,0.0,0.0,0.0,0.0,0.0,0.0,0.0,0.0,0.0,0.0,0.0,0.0,0.0,0.0,0.0,0.0,0.0,0.0,0.0,0.0,0.0,0.0,0.0,0.0,0.0,0.0,0.0,0.0,0.0,0.0,0.0,0.0,0.0,0.0,0.0,0.0,0.0,0.0,0.0,0.0,0.0,0.0,0.0,0.0,0.0,0.0,0.0,0.0,0.0,0.0,0.0,0.0,0.0,0.0,0.0,0.0,0.0,0.0,0.0,0.0,0.0,0.0,0.0,0.0,0.0,0.0,0.0,0.0,0.0,0.0,0.0,0.0,0.0,0.0,0.0,0.0,0.0,0.0,0.0,0.0,0.0,0.0,0.0,0.0,0.0,0.0,0.0,0.0,0.0,0.0,0.0,0.0,0.0,0.0,0.0,0.0,0.0,0.0,0.0,0.0,0.0,0.0,0.0,0.0,0.0,0.0,0.0,0.0,0.0,0.0,0.0,0.0,0.0,0.0,0.0,0.0,0.0,0.0,0.0,0.0,0.0,0.0,0.0,0.0,0.0,0.0,0.0,0.0,0.0,0.0,0.0,0.0,0.0,0.0,0.0,0.0,0.0,0.0,0.0,0.0,0.0,0.0,0.0,0.0,0.0,0.0,0.0,0.0,0.0,0.0,0.0,0.0,0.0,0.0,0.0,0.0,0.0,0.0,0.0,0.0,0.0,0.0,0.0,0.0,0.0,0.0,0.0,0.0,0.0,0.0,0.0,0.0,0.0,0.0,0.0,0.0,0.0,0.0,0.0,0.0,0.0,0.0,0.0,0.0,0.0,0.0,0.0,0.0,0.0,0.0,0.0,0.0,0.0,0.0,0.0,0.0,0.0,0.0,0.0,0.0,0.0,0.0,0.0,0.0,0.0,0.0,0.0,0.0,0.0,0.0,0.0,0.0,0.0,0.0,0.0,0.0,0.0,0.0,0.0,0.0,0.0,4.1219,0.0,0.0,0.0,0.0,0.0,0.0,0.0,0.0,0.0,0.0,0.0,0.0,0.0,0.0,0.0,0.0,0.0,0.0,0.0,0.0,0.0,0.0,0.0,0.0,0.0,0.0,0.0,0.0,0.0,0.0,0.0,0.0,0.0,0.0,0.0,0.0,0.0,0.0,0.0,0.0,0.0,0.0,0.0,0.0,0.0,0.0,0.0,0.0,0.0,0.0,0.0,0.0,0.0,0.0,0.0,0.0,0.0,0.0,0.0,0.0,0.0,0.0,0.0,0.0,0.0,0.0,0.0,0.0,0.0,0.0,0.0,0.0,0.0,0.0,0.0,0.0,0.0,0.0,0.0,0.0,0.0,0.0,0.0,0.0,0.0,0.0,0.0,0.0,0.0,0.0,0.0,0.0,0.0,0.0,0.0,0.0,0.0,0.0,0.0,0.0,0.0,0.0,0.0,0.0,0.0,0.0,0.0,0.0,0.0,0.0,4.4803,4.3571,4.2944,4.1827,4.0184,0.0,0.0,0.0,0.0,0.0,0.0,0.0,0.0,0.0,0.0,0.0,0.0,0.0,0.0,0.0,0.0,0.0,0.0,0.0,0.0,0.0,0.0,0.0,0.0,0.0,0.0,0.0,0.0,0.0,0.0,0.0,0.0,0.0,0.0,0.0,0.0,0.0,0.0,0.0,0.0,0.0,0.0,0.0,0.0,0.0,0.0,0.0,0.0,0.0,0.0,0.0,0.0,0.0,0.0,0.0,0.0,0.0,0.0,0.0,0.0,0.0,0.0,0.0,0.0,0.0,0.0,0.0,0.0,0.0,0.0,0.0,0.0,0.0,0.0,0.0,0.0,0.0,0.0,0.0,0.0,0.0,0.0,0.0,0.0,0.0,0.0,0.0,0.0,0.0,0.0,0.0,0.0,0.0,0.0,0.0,0.0,0.0,0.0,0.0,0.0,0.0,0.0,0.0,0.0,0.0,0.0,0.0,0.0,0.0,0.0,0.0,0.0,4.2396,4.1121,3.9006,0.0,0.0,0.0,0.0,0.0,0.0,0.0,0.0,0.0,0.0,0.0,0.0,0.0,0.0,0.0,0.0,0.0,0.0,0.0,0.0,0.0,0.0,0.0,0.0,0.0,0.0,0.0,0.0,0.0,0.0,0.0,0.0,0.0,0.0,0.0,0.0,0.0,0.0,0.0,0.0,0.0,0.0,0.0,0.0,0.0,0.0,0.0,0.0,0.0,0.0,0.0,0.0,0.0,0.0,0.0,0.0,0.0,0.0,0.0,0.0,0.0,0.0,0.0,0.0,0.0,0.0,0.0,0.0,0.0,0.0,0.0,0.0,0.0,0.0,0.0,0.0,0.0,0.0,0.0,0.0,0.0,0.0,0.0,0.0,0.0,0.0,0.0,0.0,0.0,0.0,0.0,0.0,0.0,0.0,0.0,0.0,0.0,0.0,0.0,0.0,0.0,0.0,0.0,0.0,0.0,0.0,0.0,0.0,0.0,0.0,4.405,4.2814,4.1575,0.0,3.847,0.0,0.0,0.0,0.0,0.0,0.0,0.0,0.0,0.0,0.0,0.0,0.0,0.0,0.0,0.0,0.0,0.0,0.0,0.0,0.0,0.0,0.0,0.0,0.0,0.0,0.0,0.0,0.0,0.0,0.0,0.0,0.0,0.0,0.0,0.0,0.0,0.0,0.0,0.0,0.0,0.0,0.0,0.0,0.0,0.0,0.0,0.0,0.0,0.0,0.0,0.0,0.0,0.0,0.0,0.0,0.0,0.0,0.0,0.0,0.0,0.0,0.0,0.0,0.0,0.0,0.0,0.0,0.0,0.0,0.0,0.0,0.0,0.0,0.0,0.0,0.0,0.0,0.0,0.0,0.0,0.0,0.0,0.0,0.0,0.0,0.0,0.0,0.0,0.0,0.0,0.0,0.0,0.0,0.0,0.0,0.0,0.0,0.0,0.0,0.0,0.0,0.0,0.0,0.0,0.0,0.0,0.0,0.0,0.0,0.0,4.4441,4.2645,4.1013,3.9703,0.0,0.0,0.0,0.0,0.0,0.0,0.0,0.0,0.0,0.0,0.0,0.0,0.0,0.0,0.0,0.0,0.0,0.0,0.0,0.0,0.0,0.0,0.0,0.0,0.0,0.0,0.0,0.0,0.0,0.0,0.0,0.0,0.0,0.0,0.0,0.0,0.0,0.0,0.0,0.0,0.0,0.0,0.0,0.0,0.0,0.0,0.0,0.0,0.0,0.0,0.0,0.0,0.0,0.0,0.0,0.0,0.0,0.0,0.0,0.0,0.0,0.0,0.0,0.0,0.0,0.0,0.0,0.0,0.0,0.0,0.0,0.0,0.0,0.0,0.0,0.0,0.0,0.0,0.0,0.0,0.0,0.0,0.0,0.0,0.0,0.0,0.0,0.0,0.0,0.0,0.0,0.0,0.0,0.0,0.0,0.0,0.0,0.0,0.0,0.0,0.0,0.0,0.0,0.0,0.0,0.0,0.0,0.0,0.0,0.0,4.5048,4.383,4.1785,4.0455,3.9684,3.9308,0.0,0.0,0.0,0.0,0.0,0.0,0.0,0.0,0.0,0.0,0.0,0.0,0.0,0.0,0.0,0.0,0.0,0.0,0.0,0.0,0.0,0.0,0.0,0.0,0.0,0.0,0.0,0.0,0.0,0.0,0.0,0.0,0.0,0.0,0.0,0.0,0.0,0.0,0.0,0.0,0.0,0.0,0.0,0.0,0.0,0.0,0.0,0.0,0.0,0.0,0.0,0.0,0.0,0.0,0.0,0.0,0.0,0.0,0.0,0.0,0.0,0.0,0.0,0.0,0.0,0.0,0.0,0.0,0.0,0.0,0.0,0.0,0.0,0.0,0.0,0.0,0.0,0.0,0.0,0.0,0.0,0.0,0.0,0.0,0.0,0.0,0.0,0.0,0.0,0.0,0.0,0.0,0.0,0.0,0.0,0.0,0.0,0.0,0.0,0.0,0.0,0.0,0.0,0.0,0.0,0.0,0.0,0.0,4.3219,4.2774,4.1672,4.0036,3.9802,3.9684,0.0,0.0,0.0,0.0,0.0,0.0,0.0,0.0,0.0,0.0,0.0,0.0,0.0,0.0,0.0,0.0,0.0,0.0,0.0,0.0,0.0,0.0,0.0,0.0,0.0,0.0,0.0,0.0,0.0,0.0,0.0,0.0,0.0,0.0,0.0,0.0,0.0,0.0,0.0,0.0,0.0,0.0,0.0,0.0,0.0,0.0,0.0,0.0,0.0,0.0,0.0,0.0,0.0,0.0,0.0,0.0,0.0,0.0,0.0,0.0,0.0,0.0,0.0,0.0,0.0,0.0,0.0,0.0,0.0,0.0,0.0,0.0,0.0,0.0,0.0,0.0,0.0,0.0,0.0,0.0,0.0,0.0,0.0,0.0,0.0,0.0,0.0,0.0,0.0,0.0,0.0,0.0,0.0,0.0,0.0,0.0,0.0,0.0,0.0,0.0,0.0,0.0,0.0,0.0,0.0,0.0,0.0,0.0,0.0,4.3746,4.1785,4.0339,3.9544,3.9426,3.9426,0.0,0.0,0.0,0.0,0.0,0.0,0.0,0.0,0.0,0.0,0.0,0.0,0.0,0.0,0.0,0.0,0.0,0.0,0.0,0.0,0.0,0.0,0.0,0.0,0.0,0.0,0.0,0.0,0.0,0.0,0.0,0.0,0.0,0.0,0.0,0.0,0.0,0.0,0.0,0.0,0.0,0.0,0.0,0.0,0.0,0.0,0.0,0.0,0.0,0.0,0.0,0.0,0.0,0.0,0.0,0.0,0.0,0.0,0.0,0.0,0.0,0.0,0.0,0.0,0.0,0.0,0.0,0.0,0.0,0.0,0.0,0.0,0.0,0.0,0.0,0.0,0.0,0.0,0.0,0.0,0.0,0.0,0.0,0.0,0.0,0.0,0.0,0.0,0.0,0.0,0.0,0.0,0.0,0.0,0.0,0.0,0.0,0.0,0.0,0.0,0.0,0.0,0.0,0.0,0.0,0.0,0.0,0.0,0.0,4.2749,0.0,3.9684,0.0,3.9308,3.9308,0.0,0.0,0.0,0.0,0.0,0.0,0.0,0.0,0.0,0.0,0.0,0.0,0.0,0.0,0.0,0.0,0.0,0.0,0.0,0.0,0.0,0.0,0.0,0.0,0.0,0.0,0.0,0.0,0.0,0.0,0.0,0.0,0.0,0.0,0.0,0.0,0.0,0.0,0.0,0.0,0.0,0.0,0.0,0.0,0.0,0.0,0.0,0.0,0.0,0.0,0.0,0.0,0.0,0.0,0.0,0.0,0.0,0.0,0.0,0.0,0.0,0.0,0.0,0.0,0.0,0.0,0.0,0.0,0.0,0.0,0.0,0.0,0.0,0.0,0.0,0.0,0.0,0.0,0.0,0.0,0.0,0.0,0.0,0.0,0.0,0.0,0.0,0.0,0.0,0.0,0.0,0.0,0.0,0.0,0.0,0.0,0.0,0.0,0.0,0.0,0.0,0.0,0.0,0.0,0.0,0.0,0.0,0.0,4.1558,3.9919,3.9802,3.9661,3.9308,3.9308,3.9308,0.0,0.0,0.0,0.0,0.0,0.0,0.0,0.0,0.0,0.0,0.0,0.0,0.0,0.0,0.0,0.0,0.0,0.0,0.0,0.0,0.0,0.0,0.0,0.0,0.0,0.0,0.0,0.0,0.0,0.0,0.0,0.0,0.0,0.0,0.0,0.0,0.0,0.0,0.0,0.0,0.0,0.0,0.0,0.0,0.0,0.0,0.0,0.0,0.0,0.0,0.0,0.0,0.0,0.0,0.0,0.0,0.0,0.0,0.0,0.0,0.0,0.0,0.0,0.0,0.0,0.0,0.0,0.0,0.0,0.0,0.0,0.0,0.0,0.0,0.0,0.0,0.0,0.0,0.0,0.0,0.0,0.0,0.0,0.0,0.0,0.0,0.0,0.0,0.0,0.0,0.0,0.0,0.0,0.0,0.0,0.0,0.0,0.0,0.0,0.0,0.0,0.0,0.0,0.0,0.0,0.0,0.0,0.0,0.0,3.9426,3.9426,3.9426,3.9308,3.9308,3.9308,0.0,0.0,0.0,0.0,0.0,0.0,0.0,0.0,0.0,0.0,0.0,0.0,0.0,0.0,0.0,0.0,0.0,0.0,0.0,0.0,0.0,0.0,0.0,0.0,0.0,0.0,0.0,0.0,0.0,0.0,0.0,0.0,0.0,0.0,0.0,0.0,0.0,0.0,0.0,0.0,0.0,0.0,0.0,0.0,0.0,0.0,0.0,0.0,0.0,0.0,0.0,0.0,0.0,0.0,0.0,0.0,0.0,0.0,0.0,0.0,0.0,0.0,0.0,0.0,0.0,0.0,0.0,0.0,0.0,0.0,0.0,0.0,0.0,0.0,0.0,0.0,0.0,0.0,0.0,0.0,0.0,0.0,0.0,0.0,0.0,0.0,0.0,0.0,0.0,0.0,0.0,0.0,0.0,0.0,0.0,0.0,0.0,0.0,0.0,0.0,0.0,0.0,0.0,0.0,0.0,0.0,0.0,0.0,0.0,3.9308,3.9308,3.9308,3.9308,3.9308,3.9308,3.9308,0.0,0.0,0.0,0.0,0.0,0.0,0.0,0.0,0.0,0.0,0.0,0.0,0.0,0.0,0.0,0.0,0.0,0.0,0.0,0.0,0.0,0.0,0.0,0.0,0.0,0.0,0.0,0.0,0.0,0.0,0.0,0.0,0.0,0.0,0.0,0.0,0.0,0.0,0.0,0.0,0.0,0.0,0.0,0.0,0.0,0.0,0.0,0.0,0.0,0.0,0.0,0.0,0.0,0.0,0.0,0.0,0.0,0.0,0.0,0.0,0.0,0.0,0.0,0.0,0.0,0.0,0.0,0.0,0.0,0.0,0.0,0.0,0.0,0.0,0.0,0.0,0.0,0.0,0.0,0.0,0.0,0.0,0.0,0.0,0.0,0.0,0.0,0.0,0.0,0.0,0.0,0.0,0.0,0.0,0.0,0.0,0.0,0.0,0.0,0.0,0.0,0.0,0.0,0.0,0.0,0.0,0.0,0.0,3.9308,3.9308,3.9308,3.9308,3.9308,3.9308,0.0,0.0,0.0,0.0,0.0,0.0,0.0,0.0,0.0,0.0,0.0,0.0,0.0,0.0,0.0,0.0,0.0,0.0,0.0,0.0,0.0,0.0,0.0,0.0,0.0,0.0,0.0,0.0,0.0,0.0,0.0,0.0,0.0,0.0,0.0,0.0,0.0,0.0,0.0,0.0,0.0,0.0,0.0,0.0,0.0,0.0,0.0,0.0,0.0,0.0,0.0,0.0,0.0,0.0,0.0,0.0,0.0,0.0,0.0,0.0,0.0,0.0,0.0,0.0,0.0,0.0,0.0,0.0,0.0,0.0,0.0,0.0,0.0,0.0,0.0,0.0,0.0,0.0,0.0,0.0,0.0,0.0,0.0,0.0,0.0,0.0,0.0,0.0,0.0,0.0,0.0,0.0,0.0,0.0,0.0,0.0,0.0,0.0,0.0,0.0,0.0,0.0,0.0,0.0,0.0,0.0,0.0,0.0,0.0,3.9308,3.9308,3.9308,3.9308,3.9308,3.9308,0.0,0.0,0.0,0.0,0.0,0.0,0.0,0.0,0.0,0.0,0.0,0.0,0.0,0.0,0.0,0.0,0.0,0.0,0.0,0.0,0.0,0.0,0.0,0.0,0.0,0.0,0.0,0.0,0.0,0.0,0.0,0.0,0.0,0.0,0.0,0.0,0.0,0.0,0.0,0.0,0.0,0.0,0.0,0.0,0.0,0.0,0.0,0.0,0.0,0.0,0.0,0.0,0.0,0.0,0.0,0.0,0.0,0.0,0.0,0.0,0.0,0.0,0.0,0.0,0.0,0.0,0.0,0.0,0.0,0.0,0.0,0.0,0.0,0.0,0.0,0.0,0.0,0.0,0.0,0.0,0.0,0.0,0.0,0.0,0.0,0.0,0.0,0.0,0.0,0.0,0.0,0.0,0.0,0.0,0.0,0.0,0.0,0.0,0.0,0.0,0.0,0.0,0.0,0.0,0.0,0.0,0.0,0.0,3.9308,3.9308,3.9308,3.9308,3.9308,3.9308,3.9308,0.0,0.0,0.0,0.0,0.0,0.0,0.0,0.0,0.0,0.0,0.0,0.0,0.0,0.0,0.0,0.0,0.0,0.0,0.0,0.0,0.0,0.0,0.0,0.0,0.0,0.0,0.0,0.0,0.0,0.0,0.0,0.0,0.0,0.0,0.0,0.0,0.0,0.0,0.0,0.0,0.0,0.0,0.0,0.0,0.0,0.0,0.0,0.0,0.0,0.0,0.0,0.0,0.0,0.0,0.0,0.0,0.0,0.0,0.0,0.0,0.0,0.0,0.0,0.0,0.0,0.0,0.0,0.0,0.0,0.0,0.0,0.0,0.0,0.0,0.0,0.0,0.0,0.0,0.0,0.0,0.0,0.0,0.0,0.0,0.0,0.0,0.0,0.0,0.0,0.0,0.0,0.0,0.0,0.0,0.0,0.0,0.0,0.0,0.0,0.0,0.0,0.0,0.0,0.0,0.0,0.0,0.0,0.0,3.9308,3.9308,3.9308,3.9308,3.9308,3.9308,3.9308,0.0,0.0,0.0,0.0,0.0,0.0,0.0,0.0,0.0,0.0,0.0,0.0,0.0,0.0,0.0,0.0,0.0,0.0,0.0,0.0,0.0,0.0,0.0,0.0,0.0,0.0,0.0,0.0,0.0,0.0,0.0,0.0,0.0,0.0,0.0,0.0,0.0,0.0,0.0,0.0,0.0,0.0,0.0,0.0,0.0,0.0,0.0,0.0,0.0,0.0,0.0,0.0,0.0,0.0,0.0,0.0,0.0,0.0,0.0,0.0,0.0,0.0,0.0,0.0,0.0,0.0,0.0,0.0,0.0,0.0,0.0,0.0,0.0,0.0,0.0,0.0,0.0,0.0,0.0,0.0,0.0,0.0,0.0,0.0,0.0,0.0,0.0,0.0,0.0,0.0,0.0,0.0,0.0,0.0,0.0,0.0,0.0,0.0,0.0,0.0,0.0,0.0,0.0,0.0,0.0,0.0,0.0,0.0,3.9308,3.9308,3.9308,3.9308,3.9308,3.9308,3.9308,0.0,0.0,0.0,0.0,0.0,0.0,0.0,0.0,0.0,0.0,0.0,0.0,0.0,0.0,0.0,0.0,0.0,0.0,0.0,0.0,0.0,0.0,0.0,0.0,0.0,0.0,0.0,0.0,0.0,0.0,0.0,0.0,0.0,0.0,0.0,0.0,0.0,0.0,0.0,0.0,0.0,0.0,0.0,0.0,0.0,0.0,0.0,0.0,2.7435,0.0,0.0,0.0,0.0,0.0,0.0,0.0,0.0,0.0,0.0,0.0,0.0,0.0,0.0,0.0,0.0,0.0,0.0,0.0,0.0,0.0,0.0,0.0,0.0,0.0,0.0,0.0,0.0,0.0,0.0,0.0,0.0,0.0,0.0,0.0,0.0,0.0,0.0,0.0,0.0,0.0,0.0,0.0,0.0,0.0,0.0,0.0,0.0,0.0,0.0,0.0,0.0,0.0,0.0,0.0,0.0,0.0,0.0,0.0,3.9308,3.9308,3.9308,3.9308,3.9308,3.9308,3.9308,0.0,0.0,0.0,0.0,0.0,0.0,0.0,0.0,0.0,0.0,0.0,0.0,0.0,0.0,0.0,0.0,0.0,0.0,0.0,0.0,0.0,0.0,0.0,0.0,0.0,0.0,0.0,0.0,0.0,0.0,0.0,0.0,0.0,0.0,0.0,0.0,0.0,0.0,0.0,0.0,0.0,0.0,0.0,0.0,0.0,0.0,0.0,0.0,0.0,0.0,0.0,0.0,0.0,0.0,0.0,0.0,0.0,0.0,0.0,0.0,0.0,0.0,0.0,0.0,0.0,0.0,0.0,0.0,0.0,0.0,0.0,0.0,0.0,0.0,0.0,0.0,0.0,0.0,0.0,0.0,0.0,0.0,0.0,0.0,0.0,0.0,0.0,0.0,0.0,0.0,0.0,0.0,0.0,0.0,0.0,0.0,0.0,0.0,0.0,0.0,0.0,0.0,0.0,0.0,0.0,0.0,0.0,3.9308,3.9308,3.9308,3.9308,3.9308,3.9308,3.9308,3.9354,3.9423,0.0,0.0,0.0,0.0,0.0,0.0,0.0,0.0,0.0,0.0,0.0,0.0,0.0,0.0,0.0,0.0,0.0,0.0,0.0,0.0,0.0,0.0,0.0,0.0,0.0,0.0,0.0,0.0,0.0,0.0,0.0,0.0,0.0,0.0,0.0,0.0,0.0,0.0,2.9299,2.9299,0.0,0.0,0.0,0.0,0.0,0.0,0.0,0.0,2.2545,0.0,0.0,0.0,0.0,0.0,0.0,0.0,0.0,0.0,0.0,0.0,0.0,0.0,0.0,0.0,0.0,0.0,0.0,0.0,0.0,0.0,0.0,0.0,0.0,0.0,0.0,0.0,0.0,0.0,0.0,0.0,0.0,0.0,0.0,0.0,0.0,0.0,0.0,0.0,0.0,0.0,0.0,0.0,0.0,0.0,0.0,0.0,0.0,0.0,0.0,0.0,0.0,0.0,0.0,0.0,0.0,3.9308,3.9308,3.9308,3.9308,3.9308,3.9308,3.9308,3.9308,3.9492,3.9882,0.0,0.0,0.0,0.0,0.0,0.0,0.0,0.0,0.0,0.0,0.0,0.0,0.0,0.0,0.0,0.0,0.0,0.0,0.0,0.0,0.0,0.0,0.0,0.0,0.0,0.0,0.0,0.0,0.0,0.0,0.0,0.0,0.0,0.0,0.0,0.0,0.0,0.0,0.0,2.9299,2.9168,0.0,0.0,0.0,0.0,0.0,0.0,0.0,0.0,2.3202,0.0,0.0,0.0,0.0,0.0,0.0,0.0,0.0,0.0,0.0,0.0,0.0,0.0,0.0,0.0,0.0,0.0,0.0,0.0,0.0,0.0,0.0,0.0,0.0,0.0,0.0,0.0,0.0,0.0,0.0,0.0,0.0,0.0,0.0,0.0,0.0,0.0,0.0,0.0,0.0,0.0,0.0,0.0,0.0,0.0,0.0,0.0,0.0,0.0,0.0,0.0,0.0,0.0,0.0,0.0,3.9308,3.9308,3.9308,3.9308,3.9308,3.9423,3.9675,3.9698,3.9928,0.0,0.0,0.0,0.0,0.0,0.0,0.0,0.0,0.0,0.0,0.0,0.0,0.0,0.0,0.0,0.0,0.0,0.0,0.0,0.0,0.0,0.0,0.0,0.0,0.0,0.0,0.0,0.0,0.0,0.0,0.0,0.0,0.0,0.0,0.0,0.0,0.0,0.0,0.0,0.0,2.9299,2.9053,2.8362,0.0,0.0,0.0,0.0,0.0,0.0,2.2134,2.1446,0.0,0.0,0.0,0.0,0.0,0.0,0.0,0.0,0.0,0.0,0.0,0.0,0.0,0.0,0.0,0.0,0.0,0.0,0.0,0.0,0.0,0.0,0.0,0.0,0.0,0.0,0.0,0.0,0.0,0.0,0.0,0.0,0.0,0.0,0.0,0.0,0.0,0.0,0.0,0.0,0.0,0.0,0.0,0.0,0.0,0.0,0.0,0.0,0.0,0.0,0.0,0.0,0.0,0.0,0.0,3.9446,3.9446,3.9492,3.9607,3.9607,3.979,4.0203,4.0203,4.0456,0.0,0.0,0.0,0.0,0.0,0.0,0.0,0.0,0.0,0.0,0.0,0.0,0.0,0.0,0.0,0.0,0.0,0.0,0.0,0.0,0.0,0.0,0.0,0.0,0.0,0.0,0.0,0.0,0.0,0.0,0.0,0.0,0.0,0.0,0.0,0.0,0.0,0.0,0.0,0.0,0.0,2.8905,2.7833,2.6084,0.0,0.0,0.0,0.0,2.0738,2.0459,0.0,0.0,0.0,0.0,0.0,0.0,0.0,0.0,0.0,0.0,0.0,0.0,0.0,0.0,0.0,0.0,0.0,0.0,0.0,0.0,0.0,0.0,0.0,0.0,0.0,0.0,0.0,0.0,0.0,0.0,0.0,0.0,0.0,0.0,0.0,0.0,0.0,0.0,0.0,0.0,0.0,0.0,0.0,0.0,0.0,0.0,0.0,0.0,0.0,0.0,0.0,0.0,0.0,0.0,0.0,0.0,3.9951,3.9974,4.0181,4.0617,4.064,4.0663,4.0732,4.0732,4.0961,0.0,0.0,0.0,0.0,0.0,0.0,0.0,0.0,0.0,0.0,0.0,0.0,0.0,0.0,0.0,0.0,0.0,0.0,0.0,0.0,0.0,0.0,0.0,0.0,0.0,0.0,0.0,0.0,0.0,0.0,0.0,0.0,0.0,0.0,0.0,0.0,0.0,0.0,0.0,0.0,0.0,2.9185,2.9036,2.6753,2.4873,0.0,0.0,0.0,2.1249,2.1554,0.0,0.0,0.0,0.0,0.0,0.0,0.0,0.0,0.0,0.0,0.0,0.0,0.0,0.0,0.0,0.0,0.0,0.0,0.0,0.0,0.0,0.0,0.0,0.0,0.0,0.0,0.0,0.0,0.0,0.0,0.0,0.0,0.0,0.0,0.0,0.0,0.0,0.0,0.0,0.0,0.0,0.0,0.0,0.0,0.0,0.0,0.0,0.0,0.0,0.0,0.0,0.0,0.0,0.0,0.0,4.0272,4.0479,4.0502,4.0594,4.0823,4.0823,4.0961,4.1237,4.126,4.1489,0.0,0.0,0.0,0.0,0.0,0.0,0.0,0.0,0.0,0.0,0.0,0.0,0.0,0.0,0.0,0.0,0.0,0.0,0.0,0.0,0.0,0.0,0.0,0.0,0.0,0.0,0.0,0.0,0.0,0.0,0.0,0.0,0.0,0.0,0.0,0.0,0.0,0.0,0.0,0.0,0.0,0.0,2.9168,2.6925,0.0,0.0,0.0,2.1857,2.1424,0.0,0.0,0.0,0.0,0.0,0.0,0.0,0.0,0.0,0.0,0.0,0.0,0.0,0.0,0.0,0.0,0.0,0.0,0.0,0.0,0.0,0.0,0.0,0.0,0.0,0.0,0.0,0.0,0.0,0.0,0.0,0.0,0.0,0.0,0.0,0.0,0.0,0.0,0.0,0.0,0.0,0.0,0.0,0.0,0.0,0.0,0.0,0.0,0.0,0.0,0.0,0.0,0.0,0.0,0.0,0.0,0.0,4.1007,4.1007,4.1076,4.1191,4.1191,4.1374,4.1742,4.1765,0.0,0.0,0.0,0.0,0.0,0.0,0.0,0.0,0.0,0.0,0.0,0.0,0.0,0.0,0.0,0.0,0.0,0.0,0.0,0.0,0.0,0.0,0.0,0.0,0.0,0.0,0.0,2.9881,0.0,0.0,0.0,0.0,0.0,0.0,0.0,0.0,0.0,0.0,0.0,0.0,0.0,0.0,2.8278,2.9441,2.7223,2.5593,0.0,0.0,2.1498,2.1571,2.0979,2.042,0.0,0.0,0.0,0.0,0.0,0.0,0.0,0.0,0.0,0.0,0.0,0.0,0.0,0.0,0.0,0.0,0.0,0.0,0.0,0.0,0.0,0.0,0.0,0.0,0.0,0.0,0.0,0.0,0.0,0.0,0.0,0.0,0.0,0.0,0.0,0.0,0.0,0.0,0.0,0.0,0.0,0.0,0.0,0.0,0.0,0.0,0.0,0.0,0.0,0.0,0.0,0.0,0.0,0.0,0.0,4.1512,4.1512,4.1742,4.2201,4.2224,4.2247,4.2293,4.2293,4.2293,0.0,0.0,0.0,0.0,0.0,0.0,0.0,0.0,0.0,0.0,0.0,0.0,0.0,0.0,0.0,0.0,0.0,0.0,0.0,0.0,0.0,0.0,0.0,0.0,0.0,0.0,0.0,0.0,0.0,0.0,0.0,0.0,0.0,0.0,0.0,0.0,0.0,0.0,0.0,0.0,0.0,2.9833,3.0309,2.7862,2.5915,0.0,0.0,2.1559,2.1812,2.1237,2.0729,2.098,0.0,0.0,0.0,0.0,0.0,0.0,0.0,0.0,0.0,0.0,0.0,0.0,0.0,0.0,0.0,0.0,0.0,0.0,0.0,0.0,0.0,0.0,0.0,0.0,0.0,0.0,0.0,0.0,0.0,0.0,0.0,0.0,0.0,0.0,0.0,0.0,0.0,0.0,0.0,0.0,0.0,0.0,0.0,0.0,0.0,0.0,0.0,0.0,0.0,0.0,0.0,0.0,0.0,4.1857,4.204,4.204,4.2132,4.2316,4.2339,4.2339,4.2339,4.2339,4.2339,0.0,0.0,0.0,0.0,0.0,0.0,0.0,0.0,0.0,0.0,0.0,0.0,0.0,0.0,0.0,0.0,0.0,0.0,0.0,0.0,0.0,0.0,0.0,0.0,0.0,0.0,0.0,0.0,3.0343,3.0378,3.0241,0.0,0.0,0.0,0.0,0.0,0.0,0.0,0.0,0.0,0.0,2.8897,2.9028,2.74,0.0,0.0,2.3139,2.1993,2.209,2.1507,2.0946,2.1048,2.0458,0.0,0.0,0.0,0.0,0.0,0.0,0.0,0.0,0.0,0.0,0.0,0.0,0.0,0.0,0.0,0.0,0.0,0.0,0.0,0.0,0.0,0.0,0.0,0.0,0.0,0.0,0.0,0.0,0.0,0.0,0.0,0.0,0.0,0.0,0.0,0.0,0.0,0.0,0.0,0.0,0.0,0.0,0.0,0.0,0.0,0.0,0.0,0.0,0.0,0.0,0.0,0.0,4.2339,4.2339,4.2339,4.2339,4.2339,4.2339,4.2339,4.2339,4.2339,4.2084,0.0,0.0,0.0,0.0,0.0,0.0,0.0,0.0,0.0,0.0,0.0,0.0,0.0,0.0,0.0,0.0,0.0,0.0,0.0,0.0,0.0,0.0,0.0,0.0,0.0,0.0,0.0,0.0,3.06,3.0463,2.9897,0.0,0.0,0.0,0.0,0.0,0.0,0.0,0.0,0.0,0.0,2.9102,2.9077,2.758,2.6143,2.4988,2.3298,2.2109,2.2109,2.151,2.091,2.091,0.0,0.0,0.0,0.0,0.0,0.0,0.0,0.0,0.0,0.0,0.0,0.0,0.0,0.0,0.0,0.0,0.0,0.0,0.0,0.0,0.0,0.0,0.0,0.0,0.0,0.0,0.0,0.0,0.0,0.0,0.0,0.0,0.0,0.0,0.0,0.0,0.0,0.0,0.0,0.0,0.0,0.0,0.0,0.0,0.0,0.0,0.0,0.0,0.0,0.0,0.0,0.0,0.0,0.0,4.2339,4.2339,4.2339,4.2339,4.2339,4.2339,4.2339,4.2339,4.1655,4.0322,0.0,0.0,0.0,0.0,0.0,0.0,0.0,0.0,0.0,0.0,0.0,0.0,0.0,0.0,0.0,0.0,0.0,0.0,0.0,0.0,0.0,0.0,0.0,0.0,0.0,0.0,3.1046,3.0994,3.0422,0.0,0.0,0.0,0.0,0.0,0.0,0.0,0.0,0.0,0.0,3.0994,3.0992,3.1333,2.8772,2.6736,2.675,2.3857,2.1672,2.166,2.1048,2.0447,0.0,0.0,0.0,0.0,0.0,0.0,0.0,0.0,0.0,0.0,0.0,0.0,0.0,0.0,0.0,0.0,0.0,0.0,0.0,0.0,0.0,0.0,0.0,0.0,0.0,0.0,0.0,0.0,0.0,0.0,0.0,0.0,0.0,0.0,0.0,0.0,0.0,0.0,0.0,0.0,4.3451,4.3451,0.0,0.0,0.0,0.0,0.0,0.0,0.0,0.0,0.0,0.0,0.0,0.0,4.2339,4.2339,4.2339,4.2339,4.2339,4.2339,4.2339,4.2339,4.2339,4.1678,4.0192,0.0,0.0,0.0,0.0,0.0,0.0,0.0,0.0,0.0,0.0,0.0,0.0,0.0,0.0,0.0,0.0,0.0,0.0,0.0,0.0,0.0,0.0,0.0,0.0,0.0,3.2088,0.0,0.0,0.0,0.0,0.0,0.0,0.0,0.0,0.0,0.0,0.0,3.0874,3.0994,3.036,2.955,2.8644,2.6619,2.5024,0.0,0.0,0.0,0.0,0.0,0.0,0.0,0.0,0.0,0.0,0.0,0.0,0.0,0.0,2.0274,2.0113,2.0091,1.9828,1.8872,0.0,0.0,0.0,0.0,0.0,0.0,0.0,0.0,0.0,0.0,0.0,0.0,0.0,0.0,0.0,0.0,4.9709,0.0,0.0,0.0,0.0,0.0,0.0,0.0,0.0,4.4199,4.407,4.3734,4.3734,4.3575,0.0,4.3124,4.3101,0.0,0.0,0.0,0.0,0.0,0.0,0.0,0.0,4.2844,4.2844,4.2844,4.2844,4.2844,4.2844,4.2844,4.2844,4.1786,4.0563,3.9214,3.6798,3.5993,0.0,0.0,0.0,0.0,0.0,0.0,0.0,0.0,0.0,0.0,0.0,0.0,0.0,0.0,0.0,0.0,0.0,0.0,0.0,0.0,0.0,0.0,0.0,3.214,0.0,0.0,0.0,0.0,0.0,0.0,0.0,0.0,0.0,3.0891,3.1046,3.12,3.12,3.0543,2.952,2.7924,0.0,0.0,0.0,0.0,0.0,0.0,0.0,2.0642,2.0406,2.0125,1.9994,2.0081,2.0231,2.0382,2.0533,0.0,0.0,2.0361,2.0339,2.0061,1.9093,1.9075,1.8818,1.7557,1.7472,1.7367,0.0,0.0,0.0,0.0,0.0,0.0,0.0,0.0,5.0016,4.9578,0.0,0.0,0.0,0.0,0.0,0.0,0.0,0.0,0.0,0.0,4.4295,4.4433,4.4507,4.4531,4.4664,0.0,4.4463,4.4202,4.4156,4.2996,0.0,0.0,0.0,0.0,0.0,0.0,4.3808,4.3785,4.3785,4.3785,4.3785,4.3785,4.3808,4.3654,4.0915,3.8702,3.7226,3.583,3.5027,3.5027,3.5009,0.0,0.0,0.0,0.0,0.0,0.0,0.0,0.0,0.0,0.0,0.0,0.0,0.0,0.0,0.0,0.0,0.0,0.0,0.0,0.0,3.1718,0.0,0.0,0.0,0.0,0.0,0.0,0.0,0.0,0.0,0.0,3.1384,3.1542,3.1559,3.1559,0.0,0.0,0.0,0.0,2.6022,2.4127,2.2384,2.0932,2.0609,2.0167,2.0114,2.0188,0.0,0.0,2.0533,2.0576,2.0576,2.0587,2.0608,2.0587,2.0597,2.0587,2.0587,2.0597,2.0462,2.0597,2.0587,2.0326,2.0473,5.0775,0.0,0.0,0.0,0.0,5.1084,5.0791,4.9968,4.9885,4.9382,4.8409,4.8294,0.0,0.0,0.0,0.0,0.0,0.0,4.4196,4.4325,4.4559,4.4525,4.4407,4.4407,4.4347,4.4071,4.394,4.394,4.394,4.3533,4.3464,4.3602,0.0,0.0,0.0,0.0,4.3808,4.3808,4.3808,4.3808,4.3808,4.3808,4.328,4.2193,3.9433,3.7628,3.7066,3.5706,3.5027,3.5027,3.5027,0.0,0.0,0.0,0.0,0.0,0.0,0.0,0.0,0.0,0.0,0.0,0.0,0.0,0.0,0.0,0.0,0.0,0.0,0.0,3.2421,3.2421,3.2123,0.0,0.0,0.0,0.0,0.0,0.0,0.0,0.0,0.0,3.1559,3.0551,2.9822,0.0,0.0,2.6488,2.5904,2.4301,2.298,2.2384,0.0,0.0,0.0,2.0704,2.0692,2.0457,2.0468,2.0544,2.077,2.0802,2.0867,2.1039,2.1071,2.1071,2.106,2.092,2.0877,2.1017,2.1071,2.1071,2.1071,2.1071,2.1071,5.1365,5.0719,5.1084,5.1225,5.1253,5.1618,5.1072,4.9901,4.9901,4.8992,4.739,4.7622,4.6768,4.5355,4.5053,0.0,0.0,0.0,4.4356,4.4487,4.4747,4.4711,4.4658,4.4658,4.451,4.4428,4.4428,4.4428,4.4405,4.4428,4.4428,0.0,0.0,0.0,4.4428,4.4428,4.4428,4.4428,4.4428,4.4428,4.4428,4.4428,4.3467,4.1379,3.9552,3.8019,3.6732,3.5903,3.5504,3.5504,3.5504,3.5485,0.0,0.0,0.0,0.0,0.0,0.0,0.0,0.0,0.0,0.0,0.0,3.3678,0.0,0.0,0.0,0.0,3.3242,3.2963,3.2701,3.2421,0.0,0.0,0.0,0.0,0.0,0.0,0.0,3.1251,3.0859,3.0693,3.0551,2.8769,2.7931,2.8963,2.765,2.5946,2.4595,0.0,2.244,2.1638,2.1329,2.1123,2.0814,2.0779,2.09,2.0684,2.0791,2.0888,2.1017,2.105,2.1103,2.1233,2.1276,2.1276,2.1276,2.1147,2.1093,2.1243,2.1276,2.1276,2.1276,2.1276,2.1276,5.1871,5.1871,5.1927,5.1899,5.1787,5.1843,5.1045,4.987,4.9924,4.8431,4.628,4.6634,4.5893,4.4219,4.4063,0.0,0.0,4.4472,4.4627,4.4865,4.4865,4.4991,4.5036,4.5192,4.518,4.537,4.537,4.537,4.5347,4.5347,4.537,4.5347,4.4887,4.4887,4.5347,4.537,4.537,4.537,4.5347,4.537,4.537,4.5074,4.3492,4.0942,4.0514,3.9076,3.6349,3.6201,3.6201,3.6201,3.6201,3.6201,3.6182,0.0,0.0,0.0,0.0,0.0,0.0,0.0,0.0,0.0,0.0,0.0,0.0,0.0,0.0,0.0,3.2491,0.0,3.2808,3.2227,0.0,0.0,0.0,3.1662,3.1662,3.1645,3.1645,3.1645,0.0,0.0,0.0,0.0,2.6595,2.8929,2.9026,2.7685,2.456,2.4009,2.3339,2.1423,2.119,2.1056,2.0743,2.063,2.0727,2.091,2.1125,2.1243,2.1254,2.1265,2.1276,2.1276,2.1276,2.1276,2.1276,2.1265,2.1276,2.1276,2.1276,2.1276,2.1276,2.1276,2.1276,5.2489,5.2545,5.3023,5.2658,5.1843,5.2293,5.1203,4.9244,4.9666,4.8435,4.6056,4.6027,4.5718,4.5124,4.5515,4.5333,4.496,4.5332,4.5383,4.5272,4.5272,4.5318,4.5298,4.5321,4.5391,4.537,4.537,4.537,4.537,4.537,4.537,4.5347,4.5232,4.5232,4.537,4.537,4.537,4.537,4.537,4.537,4.5347,4.1933,4.0371,4.08,3.8516,3.6922,3.6219,3.6201,3.6201,3.6201,3.6201,3.6201,3.6201,3.6127,0.0,0.0,0.0,0.0,0.0,0.0,0.0,0.0,0.0,3.4752,3.4609,0.0,3.4591,0.0,3.4305,3.4162,3.3606,3.3462,0.0,0.0,3.2415,3.2415,3.2415,3.2415,3.2415,3.2415,3.2125,3.1817,3.1817,3.13,3.0713,3.0208,2.6894,2.4074,2.2923,2.2627,2.2175,2.1346,2.1031,2.0971,2.0834,2.0985,2.1114,2.1179,2.1243,2.1276,2.1276,2.1276,2.1276,2.1276,2.1276,2.1276,2.1276,2.1276,2.1276,2.1276,2.1276,2.1276,2.1276,2.1276,2.1276,5.3135,5.3164,5.3529,5.3276,5.2658,5.2406,5.1115,4.9348,4.9057,4.7733,4.5934,4.6045,4.6025,4.6133,4.6286,4.6006,4.5471,4.575,4.5754,4.537,4.537,4.537,4.537,4.537,4.537,4.537,4.537,4.537,4.537,4.537,4.537,4.537,4.537,4.537,4.537,4.537,4.5074,4.4366,4.3653,4.3375,4.3214,4.08,3.9654,3.9654,3.8078,3.6922,3.6201,3.6201,3.6201,3.6201,3.6201,3.6201,3.6201,3.6201,3.6201,0.0,0.0,0.0,0.0,0.0,0.0,0.0,0.0,0.0,0.0,0.0,3.5027,0.0,0.0,0.0,3.389,3.3581,3.3127,3.2672,3.2672,3.2672,3.2672,3.2672,3.2672,3.2672,3.2086,3.1334,3.0727,3.0112,2.9003,2.7488,2.5011,2.3345,2.338,2.2588,2.1851,2.1342,2.1145,2.1071,2.1071,2.119,2.1276,2.1276,2.1276,2.1276,2.1276,2.1276,2.1276,2.1276,2.1276,2.1276,2.1276,2.1276,2.1276,2.1276,2.1276,2.1276,2.1276,2.1276,2.1276,5.3782,5.3782,5.3866,5.3894,5.378,5.2315,5.0937,4.9776,4.8531,4.7354,4.615,4.6347,4.6669,4.6965,4.6697,4.6294,4.6025,4.589,4.58,4.5461,4.5461,4.5484,4.5553,4.5553,4.5553,4.5553,4.5553,4.5553,4.5553,4.5553,4.5553,4.5553,4.5553,4.5553,4.5553,4.5553,4.4914,4.3375,4.1672,4.0942,4.1084,4.0514,3.9654,3.8496,3.837,3.7511,3.6349,3.6201,3.6201,3.6201,3.6201,3.6201,3.6201,3.6201,3.6201,0.0,3.6201,0.0,0.0,0.0,0.0,0.0,0.0,0.0,0.0,3.5174,3.5192,3.5174,3.4468,3.4031,3.4031,3.343,3.2826,3.2826,3.2844,3.2826,3.2826,3.2826,3.2826,3.2844,3.163,3.0277,2.9093,2.7645,2.627,2.5361,2.4914,2.4635,2.4459,2.332,2.1997,2.1416,2.1276,2.1243,2.1254,2.1265,2.1276,2.1276,2.1276,2.1276,2.1276,2.1276,2.1276,2.1276,2.1308,2.133,2.1319,2.1351,2.1373,2.1405,2.1405,2.1373,2.1297,2.1276,2.1276,5.44,5.4456,5.4962,5.5159,5.4898,5.2554,5.1163,5.0402,4.9495,4.8466,4.7209,4.7173,4.7269,4.7364,4.7098,4.6697,4.6271,4.6025,4.5986,4.5989,4.5989,4.6196,4.6564,4.6586,4.6586,4.6586,4.6586,4.6586,4.6586,4.6586,4.6586,4.6586,4.6586,4.6586,0.0,0.0,0.0,0.0,4.2236,4.1368,4.2538,3.8951,3.7492,3.837,3.7217,0.0,3.6201,3.6201,3.6201,3.6201,3.6201,0.0,0.0,0.0,0.0,0.0,0.0,0.0,0.0,0.0,0.0,0.0,3.6072,3.5981,3.5981,3.5981,3.5981,3.5981,3.5537,3.5092,3.4794,3.4364,3.3914,3.3614,3.3614,3.3614,3.3631,3.3614,3.3614,3.3614,3.3313,3.2995,3.2357,3.2456,3.1542,2.9359,2.8331,2.6779,2.5148,2.3572,2.2189,2.1438,2.1276,2.1276,2.1276,2.1276,2.1276,2.1276,2.1276,2.1286,2.1286,2.1297,2.1286,2.1297,2.1426,2.1556,2.1556,2.1706,2.1803,2.1836,2.1825,2.1728,2.1362,2.1276,2.1276,5.5046,0.0,5.5383,5.5496,0.0,0.0,5.1335,5.0976,4.9261,4.8133,4.7497,4.7497,4.7642,4.7882,4.7772,4.7512,4.7181,4.7068,4.6796,4.6495,4.6495,4.6632,4.6862,4.6862,4.6862,4.6862,4.6862,4.6862,4.6862,4.6862,4.6862,4.6862,4.6862,4.6862,4.6862,4.6862,4.5884,4.3796,4.0736,3.9436,4.0171,3.797,3.7089,3.7821,0.0,0.0,0.0,0.0,0.0,0.0,0.0,0.0,0.0,0.0,0.0,3.6201,3.6201,3.6201,3.6201,3.6201,3.6201,3.6201,3.6201,3.6201,3.6201,3.6201,3.6052,3.5903,3.5605,3.5157,3.4724,3.429,3.3988,3.3837,3.3837,3.3837,3.3837,3.3837,3.3837,3.3837,3.3837,3.3213,3.1485,3.1347,3.0238,2.8061,2.6491,2.5396,2.4136,2.2878,2.2084,2.1438,2.1276,2.1276,2.1276,2.1276,2.1276,2.1286,2.1373,2.1437,2.1448,2.1545,2.162,2.162,2.1728,2.1803,2.1814,2.1911,2.1976,2.1976,2.1976,2.1922,2.1663,2.162,2.162,5.5496,5.5496,5.5496,5.5552,5.5429,5.2791,5.145,5.0921,0.0,0.0,0.0,4.7786,4.8026,4.8411,4.8435,4.8267,4.7981,4.7865,4.7633,4.7,4.7,4.7046,4.7138,4.7138,4.7138,4.7138,4.7138,4.7138,4.7138,4.7138,4.716,4.7138,4.7138,4.6996,4.6689,4.6382,4.4924,4.2118,3.9581,3.8176,3.7871,3.7583,3.7429,3.7429,3.7429,3.7283,3.6952,3.6934,3.6769,3.6439,3.6421,3.6421,3.6421,3.6366,3.6311,3.6311,3.6237,3.6201,3.6201,3.6201,3.6201,3.6201,3.6201,3.6201,3.6201,3.6201,3.6052,3.5605,3.5157,3.4857,3.4441,3.3988,3.3837,3.3837,3.3837,3.3837,3.3837,3.3837,3.3837,3.3837,3.3534,3.2435,2.9928,2.9153,2.7748,2.5092,2.4295,2.3199,2.2556,2.2073,2.1761,2.1438,2.1276,2.1286,2.133,2.1351,2.1351,2.1437,2.1577,2.1674,2.1717,2.1846,2.1954,2.1933,2.2008,2.2051,2.2062,2.2116,2.2105,2.2094,2.2105,2.2116,2.2094,2.2094,2.2062,5.5496,5.5496,5.5496,5.5805,5.6045,5.3379,5.1122,4.945,4.8498,4.8435,4.8844,4.8868,4.8892,4.8964,4.869,4.8349,4.8004,4.7702,4.7515,0.0,4.7528,4.7757,4.8171,4.8194,4.8171,4.8171,4.8171,4.8171,4.8171,4.8171,4.8171,4.8171,4.8171,4.7545,4.6036,4.4657,4.3022,4.1361,4.1384,4.0853,3.9353,3.8024,3.7429,3.7429,3.7429,3.7411,3.7338,3.7338,3.7319,3.7264,3.7246,3.7246,3.7246,3.6934,3.6751,3.6732,3.6402,3.6201,3.6201,3.6201,3.6201,3.6201,3.6201,3.6201,3.6201,3.6201,3.6052,3.5605,3.5157,3.4875,3.4441,3.3988,3.3837,3.3837,3.3837,3.3837,3.3837,3.3837,3.3837,3.3837,3.2435,3.1654,3.087,2.9619,2.8076,2.6346,2.4996,2.4,2.2117,2.1438,2.1438,2.1276,2.1276,2.1362,2.1523,2.1566,2.1642,2.1846,2.1879,2.1922,2.1933,2.1997,2.204,2.1986,2.2159,2.2266,2.2288,2.246,2.2514,2.2525,2.2525,2.2535,2.2525,2.2525,2.2428,5.6002,5.6058,5.6367,5.6289,5.5511,5.2825,5.083,4.9607,4.9253,4.9109,4.9084,4.9084,4.9229,4.9493,4.9355,4.9105,4.8803,4.8685,4.8376,4.8033,4.8033,4.8171,4.8377,4.8377,4.8377,4.8377,4.8377,4.8377,4.8377,4.8377,4.8377,4.8377,4.8377,4.8086,4.731,4.6551,4.487,4.2443,4.101,3.9894,3.9141,3.8383,3.8089,3.8089,3.8089,3.7979,3.7741,3.7741,3.7649,3.7429,3.7429,3.7429,3.7429,3.7246,3.7154,3.7154,3.6971,3.6861,3.6861,3.6861,3.6861,3.6879,3.6879,3.6861,3.6861,3.6457,3.5903,3.5306,3.5157,3.4707,3.4139,3.3837,3.3837,3.3837,3.3837,3.3837,3.3837,3.3837,3.3837,3.3685,3.3213,3.2283,3.1331,2.9774,2.8304,2.6706,2.5248,2.3423,2.1971,2.1653,2.1599,2.1513,2.1577,2.1685,2.1793,2.1803,2.1857,2.1965,2.2083,2.2159,2.2191,2.2256,2.2352,2.2363,2.246,2.2514,2.2514,2.26,2.2675,2.2686,2.2686,2.2686,2.2686,2.2686,2.26,5.6648,5.6676,5.6791,5.6005,5.4326,5.2378,5.0987,5.0046,5.0046,4.983,4.9469,4.9445,4.9686,5.0022,5.0046,4.9841,4.9485,4.9509,4.9078,4.84,4.8377,4.8377,4.8377,4.8377,4.8377,4.8377,4.8377,4.8377,4.8377,4.8377,4.8377,4.8377,4.8377,4.8086,4.731,4.7626,4.6085,4.2576,4.0315,3.8956,3.864,3.864,3.864,3.864,3.864,3.8493,3.8181,3.8163,3.8016,3.7723,3.7704,3.7704,3.7686,3.7613,3.7558,3.7558,3.7484,3.7429,3.7429,3.7429,3.7429,3.7429,3.7429,3.7429,3.7374,3.6709,3.6026,3.5424,3.5308,3.5006,3.428,3.4128,3.4094,3.4094,3.4094,3.4145,3.4111,3.4094,3.4094,3.4094,3.3465,3.222,3.095,2.9218,2.7264,2.5899,2.4327,2.2954,2.2132,2.2008,2.1965,2.1868,2.1911,2.1997,2.2029,2.2051,2.2083,2.2105,2.2288,2.2395,2.2439,2.2568,2.2654,2.2654,2.2665,2.2665,2.2675,2.2686,2.2686,2.2686,2.2686,2.2686,2.2686,2.2686,2.2675,5.7294,5.7052,5.595,5.4149,5.2463,5.2538,5.1852,5.0741,5.06,5.06,5.0503,5.0551,5.0551,5.0624,5.0624,5.0198,4.9509,4.9509,4.9101,4.8377,4.8377,4.8377,4.8377,4.8377,4.8377,4.8377,4.8377,4.8377,4.8377,4.8377,4.8377,4.8377,4.8377,4.7016,4.457,4.5468,4.3794,3.9254,4.0178,4.0178,3.864,3.864,3.864,3.864,3.864,3.8621,3.8566,3.8585,3.8566,3.853,3.8511,3.8511,3.8475,3.8163,3.7961,3.7943,3.7631,3.7429,3.7429,3.7429,3.7466,3.7429,3.7466,3.7466,3.7466,3.7067,3.6533,3.6225,3.6071,3.5709,3.502,3.483,3.4796,3.4761,3.4796,3.4864,3.4813,3.4864,3.4864,3.4881,3.2537,3.02,2.9966,2.7567,2.5022,2.4234,2.3511,2.2732,2.223,2.2191,2.2288,2.2223,2.2137,2.2116,2.2245,2.2299,2.2363,2.2535,2.2611,2.2622,2.2632,2.2643,2.2686,2.2686,2.2686,2.2686,2.2686,2.2686,2.2686,2.2686,2.2686,2.2686,2.2686,2.2686,2.2686,5.7394,5.6651,5.645,5.4761,5.2614,5.1787,5.1236,5.0696,5.0696,5.0696,5.0696,5.0696,5.0696,5.0696,5.0412,5.0104,4.9509,4.9245,4.898,4.84,4.8377,4.8377,4.8377,4.8377,4.8377,4.8377,4.8377,4.8377,4.8377,4.8377,4.8377,4.8377,4.8377,4.7772,4.6404,4.6085,4.4398,4.1674,4.1249,4.0334,3.8798,3.864,3.864,3.864,3.864,3.864,3.864,3.864,3.864,3.864,3.864,3.864,3.864,3.8475,3.8383,3.8365,3.8236,3.8144,3.8144,3.8144,3.8144,3.8144,3.8144,3.8144,3.8144,3.7831,3.736,3.6991,3.6322,3.5591,3.514,3.4967,3.4967,3.4967,3.4967,3.4984,3.4967,3.4984,3.4967,3.481,3.3851,3.2396,3.1121,2.818,2.5496,2.3885,2.3303,2.2884,2.2566,2.2482,2.2525,2.2525,2.2449,2.2439,2.2525,2.2535,2.2589,2.2654,2.2686,2.2686,2.2686,2.2686,2.2686,2.2686,2.2686,2.2686,2.2686,2.2686,2.2686,2.2686,2.2686,2.2686,2.2686,2.2686,2.2686,5.7382,5.6495,5.6099,5.4541,5.2139,5.1095,5.0696,5.0696,5.0696,5.0696,5.0696,5.0696,5.0696,5.0696,5.0412,5.0104,4.9652,4.9245,4.898,4.8546,4.84,4.8377,4.8377,4.8377,4.8377,4.8377,4.8377,4.8377,4.8377,4.8377,4.8377,4.8377,4.8377,4.7941,4.7016,4.6085,4.472,4.2289,4.1404,4.0334,3.8798,3.864,3.864,3.864,3.864,3.864,3.864,3.864,3.864,3.864,3.864,3.864,3.864,3.864,3.864,3.864,3.864,3.864,3.864,3.864,3.864,3.864,3.864,3.864,3.8481,3.8163,3.7685,3.7312,3.6377,3.5625,3.5433,3.5275,3.5275,3.5275,3.5275,3.5275,3.5309,3.5292,3.5134,3.4626,3.3722,3.2986,3.0572,2.7629,2.5288,2.4152,2.3425,2.3193,2.2859,2.2675,2.2675,2.2686,2.2675,2.2675,2.2686,2.2665,2.2686,2.2686,2.2686,2.2686,2.2686,2.2686,2.2686,2.2686,2.2686,2.2686,2.2686,2.2686,2.2686,2.2686,2.2686,2.2686,2.2686,2.2686,2.2686,5.7167,5.6623,5.4113,5.2278,5.0837,5.0696,5.0696,5.0696,5.0696,5.0696,5.0696,5.0696,5.0696,5.0696,5.0696,5.0412,5.0104,4.9675,4.9245,4.8835,4.8546,4.8377,4.8377,4.8377,4.8377,4.8377,4.8377,4.8377,4.8377,4.8377,4.8377,4.8377,4.8377,4.6869,4.487,4.5319,4.3491,4.0021,4.049,4.0178,3.8798,3.864,3.864,3.864,3.864,3.864,3.864,3.864,3.864,3.864,3.864,3.864,3.864,3.864,3.864,3.864,3.864,3.864,3.864,3.864,3.864,3.864,3.864,3.864,3.8481,3.7845,3.7365,3.7348,3.6494,3.596,3.596,3.5909,3.5943,3.596,3.5994,3.5977,3.6011,3.5926,3.5204,3.3839,3.2453,3.0267,2.6681,2.4885,2.4349,2.3846,2.3365,2.2675,2.2686,2.2686,2.2686,2.2686,2.2686,2.2686,2.2686,2.2686,2.2686,2.2686,2.2686,2.2686,2.2686,2.2686,2.2686,2.2686,2.2686,2.2686,2.2686,2.2686,2.2686,2.2686,2.2686,2.2686,2.2686,2.2686,2.2686,5.5998,5.4138,5.2278,5.1095,5.0696,5.0696,5.0696,5.0696,5.0696,5.0696,5.0696,5.0696,5.0696,5.0696,5.0696,5.0554,5.0104,4.9389,4.9124,4.898,4.8546,4.8377,4.8377,4.8377,4.8377,4.8377,4.8377,4.8377,4.8377,4.8377,4.8377,4.8377,4.8377,4.7772,4.6551,4.502,4.3339,4.1828,4.0471,3.9254,3.864,3.864,3.864,3.864,3.864,3.864,3.864,3.864,3.864,3.864,3.864,3.864,3.864,3.864,3.864,3.864,3.864,3.864,3.864,3.864,3.864,3.864,3.8322,3.8163,3.8004,3.7525,3.6885,3.6902,3.642,3.6097,3.6097,3.6097,3.6097,3.6097,3.6097,3.6097,3.6097,3.6097,3.5757,3.4929,3.2757,2.9759,2.7084,2.5239,2.4064,2.372,2.3031,2.2686,2.2686,2.2686,2.2686,2.2686,2.2686,2.2686,2.2686,2.2686,2.2686,2.2686,2.2686,2.2686,2.2686,2.2686,2.2686,2.2686,2.2686,2.2686,2.2686,2.2686,2.2686,2.2686,2.2686,2.2686,2.2686,2.2686,2.2686,5.4273,5.2139,5.1095,5.0696,5.0696,5.0696,5.0696,5.0696,5.0696,5.0696,5.0696,5.0696,5.0696,5.0696,5.0696,5.0412,5.0104,4.9389,4.9124,4.898,4.8546,4.8377,4.8377,4.8377,4.8377,4.8377,4.8377,4.8377,4.8377,4.8377,4.8377,4.8377,4.8377,4.8086,4.7163,4.487,4.3339,4.2289,4.0021,3.864,3.864,3.864,3.864,3.864,3.864,3.864,3.864,3.864,3.864,3.864,3.864,3.864,3.864,3.864,3.864,3.864,3.864,3.864,3.864,3.864,3.864,3.864,3.8163,3.8004,3.8004,3.7205,3.6742,3.6581,3.642,3.6097,3.6097,3.6097,3.6097,3.6097,3.6097,3.6097,3.6097,3.6097,3.5433,3.3919,3.0925,2.8419,2.6745,2.5068,2.4064,2.3376,2.302,2.2686,2.2686,2.2686,2.2686,2.2686,2.2686,2.2686,2.2686,2.2686,2.2686,2.2686,2.2686,2.2686,2.2686,2.2686,2.2686,2.2686,2.2686,2.2686,2.2686,2.2686,2.2686,2.2686,2.2686,2.2686,2.2686,2.2686,2.2686,5.2,5.0837,5.0696,5.0696,5.0696,5.0696,5.0696,5.0696,5.0696,5.0696,5.0696,5.0696,5.0696,5.0696,5.0696,5.0412,4.9961,4.9652,4.9245,4.898,4.8546,4.84,4.8377,4.8377,4.8377,4.8377,4.8377,4.8377,4.8377,4.8377,4.8377,4.8377,4.8232,4.7457,4.5937,4.4247,4.2596,4.1249,3.9569,3.864,3.864,3.864,3.864,3.864,3.864,3.864,3.864,3.864,3.864,3.864,3.864,3.864,3.864,3.864,3.864,3.864,3.864,3.864,3.864,3.864,3.864,3.8481,3.8163,3.8004,3.7845,3.7205,3.6581,3.6581,3.6258,3.6097,3.6097,3.6097,3.6097,3.6097,3.6097,3.6097,3.6097,3.6097,3.475,3.1587,2.8601,2.5604,2.4921,2.4407,2.3892,2.3376,2.3031,2.2686,2.2686,2.2686,2.2686,2.2686,2.2686,2.2686,2.2686,2.2686,2.2686,2.2686,2.2686,2.2686,2.2686,2.2686,2.2686,2.2686,2.2686,2.2686,2.2686,2.2686,2.2686,2.2686,2.2686,2.2686,2.2686,2.2686,2.2686,5.2025,5.0696,5.0696,5.0696,5.0696,5.0696,5.0696,5.0696,5.0696,5.0696,5.0696,5.0696,5.0696,5.0696,5.0696,5.0246,4.9652,4.9509,4.9389,4.898,4.8546,4.8377,4.8377,4.8377,4.8377,4.8377,4.8377,4.8377,4.8377,4.8377,4.8377,4.8232,4.731,4.6381,4.5766,4.3207,4.1559,4.0958,3.9411,3.864,3.864,3.864,3.864,3.864,3.864,3.864,3.864,3.864,3.864,3.864,3.864,3.864,3.864,3.864,3.864,3.864,3.864,3.864,3.864,3.864,3.864,3.8481,3.8004,3.7685,3.7525,3.6742,3.6258,3.6258,3.6097,3.6097,3.6097,3.6097,3.6097,3.6097,3.6097,3.6097,3.6097,3.5935,3.4425,3.1587,2.9759,2.7928,2.5251,2.4064,2.3892,2.3031,2.2859,2.2686,2.2686,2.2686,2.2686,2.2686,2.2686,2.2686,2.2686,2.2686,2.2686,2.2686,2.2686,2.2686,2.2686,2.2686,2.2686,2.2686,2.2686,2.2686,2.2686,2.2686,2.2686,2.2686,2.2686,2.2686,2.2686,2.2686,2.2686,5.1467,5.0696,5.0696,5.0696,5.0696,5.0696,5.0696,5.0696,5.0696,5.0696,5.0696,5.0696,5.0696,5.0696,5.0554,5.0246,4.9652,4.9509,4.9268,4.898,4.8546,4.84,4.8377,4.8377,4.8377,4.8377,4.8377,4.8377,4.8377,4.8377,4.8377,4.8086,4.6699,4.5915,4.5617,4.2769,4.1113,4.0802,3.9411,3.864,3.864,3.864,3.864,3.864,3.864,3.864,3.864,3.864,3.864,3.864,3.864,3.864,3.864,3.864,3.864,3.864,3.864,3.864,3.864,3.864,3.864,3.8481,3.7845,3.7348,3.7205,3.6581,3.6097,3.6097,3.6097,3.6097,3.6097,3.6097,3.6097,3.6097,3.6097,3.6097,3.5935,3.4913,3.3413,3.0925,2.9425,2.7253,2.508,2.4064,2.372,2.3031,2.2686,2.2686,2.2686,2.2686,2.2686,2.2686,2.2686,2.2686,2.2686,2.2686,2.2686,2.2686,2.2686,2.2686,2.2686,2.2686,2.2686,2.2686,2.2686,2.2686,2.2686,2.2686,2.2686,2.2686,2.2686,2.2686,2.2686,2.2686,2.2686,5.0696,5.0696,5.0696,5.0696,5.0696,5.0696,5.0696,5.0696,5.0696,5.0696,5.0696,5.0696,5.0696,5.0554,5.0388,5.0104,4.9961,4.9412,4.898,4.8835,4.8546,4.8377,4.8377,4.8377,4.8377,4.8377,4.8377,4.8377,4.8377,4.8377,4.8377,4.7941,4.6381,4.5617,4.472,4.2309,4.0802,4.049,3.9254,3.864,3.864,3.864,3.864,3.864,3.864,3.864,3.864,3.864,3.864,3.864,3.864,3.864,3.864,3.864,3.864,3.864,3.864,3.864,3.864,3.864,3.864,3.8481,3.7845,3.7365,3.7205,3.6563,3.6097,3.6097,3.6097,3.6097,3.6097,3.6097,3.6097,3.6097,3.6097,3.6097,3.5595,3.3085,3.1587,3.026,2.7759,2.5263,2.4407,2.4064,2.372,2.3031,2.2686,2.2686,2.2686,2.2686,2.2686,2.2686,2.2686,2.2686,2.2686,2.2686,2.2686,2.2686,2.2686,2.2686,2.2686,2.2686,2.2686,2.2686,2.2686,2.2686,2.2686,2.2686,2.2686,2.2686,2.2686,2.2686,2.2686,2.2686,2.2686,5.0696,5.0696,5.0696,5.0696,5.0696,5.0696,5.0696,5.0696,5.0696,5.0696,5.0696,5.0696,5.0696,5.0696,5.0246,4.9961,4.9675,4.9268,4.8835,4.8546,4.8546,4.84,4.8377,4.8377,4.8377,4.8377,4.8377,4.8377,4.8377,4.8232,4.7772,4.6529,4.502,4.3511,4.2156,4.049,3.9411,3.9254,3.8956,3.864,3.864,3.864,3.864,3.864,3.864,3.864,3.864,3.864,3.864,3.864,3.864,3.864,3.864,3.864,3.864,3.864,3.864,3.864,3.864,3.864,3.864,3.8481,3.7845,3.7365,3.7365,3.6563,3.6097,3.6097,3.6097,3.6097,3.6097,3.6097,3.6097,3.6097,3.5935,3.5433,3.4425,3.3265,3.1768,2.9258,2.7941,2.6261,2.4738,2.4064,2.372,2.3031,2.2686,2.2686,2.2686,2.2686,2.2686,2.2686,2.2686,2.2686,2.2686,2.2686,2.2686,2.2686,2.2686,2.2686,2.2686,2.2686,2.2686,2.2686,2.2686,2.2686,2.2686,2.2686,2.2686,2.2686,2.2686,2.2686,2.2686,2.2686,2.2686,5.0696,5.0696,5.0696,5.0696,5.0696,5.0696,5.0696,5.0696,5.0696,5.0696,5.0696,5.0696,5.0696,5.0696,5.0104,4.9795,4.9652,4.9101,4.8691,4.8691,4.8546,4.84,4.8377,4.8377,4.8377,4.8377,4.8377,4.8377,4.8232,4.7772,4.6847,4.5617,4.3663,4.2002,4.1249,3.9411,3.864,3.864,3.864,3.864,3.864,3.864,3.864,3.864,3.864,3.864,3.864,3.864,3.864,3.864,3.864,3.864,3.864,3.864,3.864,3.864,3.864,3.8481,3.8322,3.8322,3.8322,3.8004,3.7525,3.7205,3.7045,3.642,3.6097,3.6097,3.6097,3.6097,3.6097,3.6097,3.6097,3.5935,3.5433,3.4604,3.3429,3.1933,3.0426,2.8601,2.7266,2.6091,2.4235,2.4064,2.3548,2.2859,2.2686,2.2686,2.2686,2.2686,2.2686,2.2686,2.2686,2.2686,2.2686,2.2686,2.2686,2.2686,2.2686,2.2686,2.2686,2.2686,2.2686,2.2686,2.2686,2.2686,2.2686,2.2686,2.2686,2.2686,2.2686,2.2686,2.2686,2.2686,2.2686,5.0696,5.0696,5.0696,5.0696,5.0696,5.0696,5.0696,5.0696,5.0696,5.0696,5.0696,5.0696,5.0696,5.072,4.9961,4.9652,4.9961,4.8957,4.8691,4.8691,4.8546,4.8377,4.8377,4.8377,4.8377,4.8377,4.8232,4.8086,4.7479,4.6381,4.5468,4.457,4.2309,4.1094,4.049,3.9254,3.864,3.864,3.864,3.864,3.864,3.864,3.864,3.864,3.864,3.864,3.864,3.864,3.864,3.864,3.864,3.864,3.864,3.864,3.864,3.864,3.864,3.8481,3.8163,3.8004,3.7845,3.7525,3.7045,3.6742,3.6742,3.642,3.6097,3.6097,3.6097,3.6097,3.6097,3.6097,3.6097,3.5757,3.4425,3.3265,3.2592,3.0107,2.8096,2.7759,2.5921,2.4738,2.4064,2.372,2.3204,2.2859,2.2686,2.2686,2.2686,2.2686,2.2686,2.2686,2.2686,2.2686,2.2686,2.2686,2.2686,2.2686,2.2686,2.2686,2.2686,2.2686,2.2686,2.2686,2.2686,2.2686,2.2686,2.2686,2.2686,2.2686,2.2686,2.2686,2.2686,2.2686,2.2686,5.0696,5.0696,5.0696,5.0696,5.0696,5.0696,5.0696,5.0696,5.0696,5.0696,5.0696,5.0696,5.0696,5.072,4.9961,4.9509,4.9509,4.8812,4.8546,4.8546,4.8546,4.8377,4.8377,4.8377,4.8377,4.8086,4.6994,4.6529,4.6085,4.487,4.3359,4.2156,4.1559,4.049,3.9254,3.8956,3.864,3.864,3.864,3.864,3.864,3.864,3.864,3.864,3.864,3.864,3.864,3.864,3.864,3.864,3.864,3.864,3.864,3.864,3.864,3.864,3.864,3.8481,3.8004,3.8004,3.7845,3.7365,3.6885,3.6742,3.6742,3.6258,3.6097,3.6097,3.6097,3.6097,3.6097,3.6097,3.5935,3.5254,3.3249,3.1422,3.0925,2.9425,2.7604,2.6261,2.5251,2.4578,2.4064,2.372,2.3204,2.2859,2.2686,2.2686,2.2686,2.2686,2.2686,2.2686,2.2686,2.2686,2.2686,2.2686,2.2686,2.2686,2.2686,2.2686,2.2686,2.2686,2.2686,2.2686,2.2686,2.2686,2.2686,2.2686,2.2686,2.2686,2.2686,2.2686,2.2686,2.2686,2.2686,5.0696,5.0696,5.0696,5.0696,5.0696,5.0696,5.0696,5.0696,5.0696,5.0696,5.0696,5.0696,5.0554,5.0412,4.9818,4.9365,4.9101,4.8667,4.8377,4.84,4.8377,4.8377,4.8377,4.8377,4.8377,4.8086,4.6699,4.5915,4.5319,4.3642,4.2002,4.1094,4.0334,3.9569,3.8798,3.864,3.864,3.864,3.864,3.864,3.864,3.864,3.864,3.864,3.864,3.864,3.864,3.864,3.864,3.864,3.864,3.864,3.864,3.864,3.864,3.864,3.864,3.8322,3.7845,3.7685,3.7365,3.6885,3.6563,3.6402,3.642,3.6258,3.6097,3.6097,3.6097,3.6097,3.6097,3.5092,3.4929,3.4262,3.1753,2.9759,2.9258,2.7928,2.6601,2.5433,2.4921,2.4407,2.4064,2.3548,2.3204,2.2686,2.2686,2.2686,2.2686,2.2686,2.2686,2.2686,2.2686,2.2686,2.2686,2.2686,2.2686,2.2686,2.2686,2.2686,2.2686,2.2686,2.2686,2.2686,2.2686,2.2686,2.2686,2.2686,2.2686,2.2686,2.2686,2.2686,2.2686,2.2686,2.2686,5.0696,5.0696,5.0696,5.0696,5.0696,5.0696,5.0696,5.0696,5.0696,5.0696,5.0696,5.0696,5.0554,5.0104,4.9652,4.9245,4.8835,4.8691,4.8377,4.8377,4.8377,4.8377,4.8377,4.8377,4.8377,4.8232,4.6233,4.5468,4.4548,4.2443,4.0627,4.0334,3.9411,3.8798,3.864,3.864,3.864,3.864,3.864,3.864,3.864,3.864,3.864,3.864,3.864,3.864,3.864,3.864,3.864,3.864,3.864,3.864,3.864,3.864,3.864,3.864,3.864,3.8163,3.7685,3.7365,3.7045,3.6258,3.6097,3.6097,3.6097,3.6097,3.6097,3.6097,3.6097,3.6097,3.5935,3.4604,3.3756,3.2936,3.0274,2.8433,2.7772,2.6431,2.5604,2.5263,2.4578,2.4235,2.372,2.3376,2.3031,2.2686,2.2686,2.2686,2.2686,2.2686,2.2686,2.2686,2.2686,2.2686,2.2686,2.2686,2.2686,2.2686,2.2686,2.2686,2.2686,2.2686,2.2686,2.2686,2.2686,2.2686,2.2686,2.2686,2.2686,2.2686,2.2686,2.2686,2.2686,2.2686,2.2514,5.0696,5.0696,5.0696,5.0696,5.0696,5.0696,5.0696,5.0696,5.0696,5.0696,5.0696,5.0696,5.0412,5.0104,4.9652,4.9101,4.8691,4.84,4.8377,4.8377,4.8377,4.8377,4.8377,4.8086,4.8232,4.7626,4.549,4.3945,4.3339,4.0763,3.9411,3.9114,3.8798,3.864,3.864,3.864,3.864,3.864,3.864,3.864,3.864,3.864,3.864,3.864,3.864,3.864,3.864,3.864,3.864,3.864,3.864,3.864,3.864,3.864,3.864,3.864,3.8481,3.8163,3.7508,3.7365,3.6885,3.642,3.6097,3.6097,3.6097,3.6097,3.6097,3.6097,3.6097,3.6097,3.6097,3.4262,3.3429,3.2428,3.026,2.7941,2.7604,2.6431,2.5263,2.4921,2.4407,2.3892,2.3548,2.3204,2.2859,2.2686,2.2686,2.2686,2.2686,2.2686,2.2686,2.2686,2.2686,2.2686,2.2686,2.2686,2.2686,2.2686,2.2686,2.2686,2.2686,2.2686,2.2686,2.2686,2.2686,2.2686,2.2686,2.2686,2.2686,2.2686,2.2686,2.2686,2.2686,2.2686,2.1628,5.0696,5.0696,5.0696,5.0696,5.0696,5.0696,5.0696,5.0696,5.0696,5.0696,5.0696,5.0696,5.0412,4.9818,4.9652,4.9101,4.8523,4.8377,4.8377,4.8377,4.8377,4.8377,4.8255,4.7626,4.7163,4.6255,4.3966,4.2769,4.3034,4.0158,3.8798,3.864,3.864,3.864,3.864,3.864,3.8658,3.8658,3.8658,3.8658,3.864,3.864,3.864,3.864,3.864,3.864,3.864,3.864,3.864,3.864,3.864,3.864,3.864,3.864,3.864,3.8481,3.8481,3.8004,3.7525,3.7205,3.6724,3.6258,3.6097,3.6097,3.6097,3.6097,3.6097,3.6097,3.6097,3.6097,3.6097,3.3592,3.2263,3.1422,2.8923,2.7096,2.6431,2.5592,2.5092,2.4578,2.4235,2.3892,2.3548,2.3204,2.2859,2.2686,2.2686,2.2686,2.2686,2.2686,2.2686,2.2686,2.2686,2.2686,2.2686,2.2686,2.2686,2.2686,2.2686,2.2686,2.2686,2.2686,2.2686,2.2686,2.2686,2.2686,2.2686,2.2686,2.2686,2.2686,2.2686,2.2686,2.2686,2.233,2.1455,5.0696,5.0696,5.0696,5.0696,5.0696,5.0696,5.0696,5.0696,5.0696,5.0696,5.0696,5.0554,5.0104,4.9652,4.9221,4.8957,4.8377,4.8377,4.8377,4.8377,4.84,4.8423,4.8077,4.7002,4.6326,4.6245,4.329,4.2007,4.2156,4.0021,3.8835,3.8786,3.8786,3.8823,3.8915,3.9025,3.8878,3.8768,3.875,3.875,3.8658,3.864,3.864,3.864,3.864,3.864,3.864,3.864,3.864,3.864,3.864,3.864,3.864,3.8481,3.8481,3.8481,3.8163,3.7845,3.7365,3.6885,3.6563,3.6097,3.6097,3.6097,3.6097,3.6097,3.5918,3.5757,3.5433,3.5092,3.4246,3.2083,3.0592,2.9592,2.7604,2.5433,2.5433,2.5092,2.4749,2.4235,2.4064,2.372,2.3204,2.3031,2.2686,2.2686,2.2686,2.2686,2.2686,2.2686,2.2686,2.2686,2.2686,2.2686,2.2686,2.2686,2.2686,2.2686,2.2686,2.2686,2.2686,2.2686,2.2686,2.2686,2.2686,2.2686,2.2686,2.2686,2.2686,2.2686,2.2686,2.2686,2.2686,2.233,2.1455,5.0696,5.0696,5.0696,5.0696,5.0696,5.0696,5.0696,5.0696,5.0696,5.0696,5.0696,5.027,4.9961,4.9365,4.8812,4.8523,4.84,4.8446,4.8469,4.8492,4.8538,4.8598,4.868,4.7171,4.629,4.5699,4.3336,4.2073,4.125,3.9542,3.8878,3.9098,3.919,3.9318,3.952,3.952,3.952,3.9226,3.9153,3.9006,3.8768,3.8731,3.8731,3.8713,3.8731,3.875,3.8786,3.8805,3.875,3.8695,3.8676,3.8658,3.8481,3.8163,3.8163,3.8004,3.8004,3.7685,3.7045,3.6724,3.6581,3.6097,3.6097,3.6097,3.6097,3.5935,3.5433,3.3772,3.3772,3.3265,3.2083,2.9926,2.8769,2.7941,2.677,2.5604,2.5263,2.4749,2.4407,2.4064,2.372,2.3376,2.2859,2.2859,2.2686,2.2686,2.2686,2.2686,2.2686,2.2686,2.2686,2.2686,2.2686,2.2686,2.2686,2.2686,2.2686,2.2686,2.2686,2.2686,2.2686,2.2686,2.2686,2.2686,2.2686,2.2686,2.2686,2.2686,2.2686,2.2686,2.2686,2.2686,2.2686,2.2157,2.1282,5.0696,5.0696,5.0696,5.0696,5.0696,5.0696,5.0696,5.0696,5.0696,5.0696,5.0554,5.0246,4.9818,4.9101,4.8691,4.8377,4.8446,4.8653,4.8791,4.8758,4.8919,4.8702,4.7787,4.644,4.5511,4.4229,4.2344,4.0801,4.016,3.9801,3.9447,3.9538,3.9575,3.963,3.9923,3.985,3.974,3.9612,3.9557,3.9502,3.9373,3.9318,3.93,3.9318,3.93,3.9281,3.9281,3.9318,3.919,3.9061,3.8988,3.8682,3.8377,3.8004,3.7845,3.7205,3.7205,3.7045,3.6742,3.6581,3.6258,3.6258,3.6097,3.6097,3.6097,3.6097,3.5416,3.3592,3.3429,3.2428,3.0759,2.9258,2.8433,2.7604,2.6273,2.5592,2.5092,2.4578,2.4064,2.372,2.3376,2.3031,2.2686,2.2686,2.2686,2.2686,2.2686,2.2686,2.2686,2.2686,2.2686,2.2686,2.2686,2.2686,2.2686,2.2686,2.2686,2.2686,2.2686,2.2686,2.2686,2.2686,2.2686,2.2686,2.2686,2.2686,2.2686,2.2686,2.2686,2.2686,2.2686,2.2686,2.2514,2.1098,1.9873,5.0696,5.0696,5.0696,5.0696,5.0696,5.0696,5.0696,5.0696,5.0696,5.0696,5.0412,4.9985,4.9412,4.898,4.8546,4.8469,4.8607,4.8951,4.8862,4.8942,4.8742,4.8186,4.6717,4.52,4.3859,4.2495,4.1367,4.0528,4.0345,4.0125,4.0107,4.0015,3.9997,4.0088,4.0143,4.0198,4.018,3.9997,3.985,3.9795,3.9777,3.9777,3.9795,3.9795,3.9832,3.9832,3.9832,3.9795,3.9612,3.9465,3.9392,3.9102,3.8598,3.8258,3.7846,3.7147,3.6933,3.6685,3.6471,3.6258,3.6097,3.6097,3.6097,3.6097,3.6097,3.6097,3.4929,3.2757,3.2592,3.1422,2.9759,2.7928,2.7435,2.677,2.6103,2.5421,2.4749,2.4407,2.4064,2.3537,2.3204,2.2859,2.2686,2.2686,2.2686,2.2686,2.2686,2.2686,2.2686,2.2686,2.2686,2.2686,2.2686,2.2686,2.2686,2.2686,2.2686,2.2686,2.2686,2.2686,2.2686,2.2686,2.2686,2.2686,2.2686,2.2686,2.2686,2.2686,2.2686,2.2686,2.2686,2.2686,2.2157,2.0578,1.8471,5.0696,5.0696,5.0696,5.0696,5.0696,5.0696,5.0696,5.0696,5.0696,5.0554,5.0104,4.9412,4.898,4.8592,4.8515,4.8699,4.9066,4.9112,4.8539,4.7879,4.74,4.6932,4.5553,4.4281,4.3307,4.2905,4.1601,4.0989,4.0914,4.0767,4.0657,4.0473,4.0418,4.0657,4.0767,4.0749,4.0639,4.0418,4.0162,3.9997,3.9978,3.996,3.9942,3.9923,3.9887,3.985,3.985,3.9942,3.9923,3.9832,3.9795,3.9395,3.8924,3.8416,3.7801,3.7317,3.6938,3.6654,3.6516,3.6166,3.6097,3.6097,3.6097,3.5935,3.5595,3.5918,3.4425,3.1587,3.1091,2.9439,2.7435,2.5775,2.6103,2.5933,2.5592,2.5251,2.4578,2.4235,2.3892,2.3376,2.3031,2.2859,2.2686,2.2686,2.2686,2.2686,2.2686,2.2686,2.2686,2.2686,2.2686,2.2686,2.2686,2.2686,2.2686,2.2686,2.2686,2.2686,2.2686,2.2686,2.2686,2.2686,2.2686,2.2686,2.2686,2.2686,2.2686,2.2686,2.2686,2.2686,2.2686,2.233,2.1098,1.9351,1.7247,5.0696,5.0696,5.0696,5.0696,5.0696,5.0696,5.0696,5.0696,5.0696,5.0246,4.9652,4.9268,4.8997,4.8914,4.886,4.9112,4.9594,4.9939,4.9041,4.8344,4.7788,4.6585,4.4987,4.3543,4.3002,4.2159,4.1397,4.106,4.1042,4.106,4.1005,4.0859,4.0804,4.0895,4.1042,4.106,4.095,4.0859,4.0675,4.0584,4.0584,4.0584,4.0584,4.0584,4.0602,4.0584,4.0602,4.0602,4.0455,4.029,4.007,3.9447,3.8973,3.8441,3.8005,3.7353,3.7153,3.6885,3.6662,3.6371,3.6097,3.6097,3.6097,3.5595,3.4929,3.4425,3.2592,3.0426,2.9258,2.7928,2.6103,2.5433,2.5433,2.5263,2.5092,2.4749,2.4407,2.4064,2.3548,2.3204,2.3031,2.2686,2.2686,2.2686,2.2686,2.2686,2.2686,2.2686,2.2686,2.2686,2.2686,2.2686,2.2686,2.2686,2.2686,2.2686,2.2686,2.2686,2.2686,2.2686,2.2686,2.2686,2.2686,2.2686,2.2686,2.2686,2.2686,2.2686,2.2686,2.2686,2.2157,2.1628,2.0047,1.8296,1.6019,5.0696,5.0696,5.0696,5.0696,5.0696,5.0554,5.0554,5.0554,5.0412,4.9961,4.9389,4.9119,4.9083,4.9066,4.9319,4.964,5.0076,5.0246,4.9073,4.8183,4.7315,4.59,4.3962,4.2659,4.2159,4.1229,4.106,4.106,4.106,4.106,4.1042,4.1042,4.106,4.106,4.106,4.106,4.106,4.106,4.106,4.106,4.1042,4.1024,4.1005,4.1005,4.0987,4.0987,4.0969,4.0932,4.0859,4.0545,4.0286,3.9641,3.8997,3.8373,3.7986,3.7583,3.7364,3.7347,3.7073,3.6696,3.6268,3.6303,3.6131,3.5125,3.3935,3.3265,3.2098,2.8937,2.8096,2.7435,2.5604,2.5433,2.5433,2.5263,2.4921,2.4578,2.4235,2.3892,2.3376,2.2859,2.2686,2.2686,2.2686,2.2686,2.2686,2.2686,2.2686,2.2686,2.2686,2.2686,2.2686,2.2686,2.2686,2.2686,2.2686,2.2686,2.2686,2.2686,2.2686,2.2686,2.2686,2.2686,2.2686,2.2686,2.2686,2.2686,2.2686,2.2686,2.2686,2.2686,2.1984,2.1272,1.9168,1.7247,1.5139,5.0696,5.0696,5.0696,5.0696,5.0554,5.0246,5.0104,5.0104,4.9818,4.9412,4.9096,4.9153,4.9135,4.9319,4.9732,5.0168,5.0384,5.0369,4.9141,4.706,4.6161,4.4126,4.2512,4.1397,4.1546,4.1229,4.106,4.106,4.106,4.106,4.106,4.106,4.106,4.106,4.106,4.106,4.106,4.106,4.106,4.106,4.106,4.106,4.106,4.106,4.106,4.106,4.106,4.106,4.1005,4.0782,4.0445,3.9867,3.9324,3.9003,3.8372,3.7792,3.7758,3.7587,3.7261,3.685,3.6351,3.6102,3.5622,3.4473,3.3524,3.2803,3.1497,2.7878,2.763,2.7109,2.6103,2.5275,2.5275,2.5092,2.4749,2.4407,2.3892,2.3548,2.3031,2.2859,2.2686,2.2686,2.2686,2.2686,2.2686,2.2686,2.2686,2.2686,2.2686,2.2686,2.2686,2.2686,2.2686,2.2686,2.2686,2.2686,2.2686,2.2686,2.2686,2.2686,2.2686,2.2686,2.2686,2.2686,2.2686,2.2686,2.2686,2.2675,2.2157,2.1801,2.1801,2.0925,1.8645,1.637,1.4258,5.0696,5.0696,5.0696,5.0554,5.027,5.0104,5.0104,4.9961,4.9412,4.9287,4.9445,4.9213,4.9548,4.9985,5.0283,5.065,5.0887,4.9541,4.7942,4.6363,4.5251,4.3322,4.1714,4.106,4.106,4.106,4.106,4.106,4.106,4.106,4.106,4.106,4.106,4.106,4.106,4.106,4.106,4.106,4.106,4.106,4.106,4.106,4.106,4.106,4.106,4.106,4.106,4.106,4.0892,4.0723,4.0216,3.9706,3.9366,3.8854,3.8443,3.8135,3.8118,3.8101,3.7352,3.6744,3.5369,3.4854,3.3976,3.2693,3.0723,3.0339,2.8757,2.7341,2.674,2.6019,2.5604,2.5104,2.4932,2.4749,2.4407,2.3892,2.3548,2.3204,2.2686,2.2686,2.2686,2.2686,2.2686,2.2686,2.2686,2.2686,2.2686,2.2686,2.2686,2.2686,2.2686,2.2686,2.2686,2.2686,2.2686,2.2686,2.2686,2.2686,2.2686,2.2686,2.2686,2.2686,2.2686,2.2686,2.2686,2.2686,2.2503,2.1984,2.1098,2.0752,1.9873,1.8819,1.6721,1.4963,1.3735,5.0696,5.0696,5.0696,5.0412,5.0104,4.9961,4.9818,4.9532,4.9003,4.9113,4.936,4.9444,4.9801,5.0467,5.0857,5.1018,5.1254,4.9629,4.7847,4.6061,4.4454,4.2844,4.1546,4.106,4.106,4.106,4.106,4.106,4.106,4.106,4.106,4.106,4.106,4.106,4.106,4.106,4.106,4.106,4.106,4.106,4.106,4.106,4.106,4.106,4.106,4.106,4.106,4.0892,4.0723,4.0385,3.9876,3.9366,3.8854,3.8683,3.8323,3.8323,3.8323,3.7963,3.6953,3.5303,3.3797,3.2624,3.19,3.0722,2.9325,2.9122,2.7862,2.676,2.5944,2.549,2.5258,2.4902,2.4683,2.4511,2.3937,2.3593,2.342,2.3064,2.2708,2.2708,2.2686,2.2686,2.2686,2.2686,2.2686,2.2686,2.2686,2.2686,2.2686,2.2686,2.2686,2.2686,2.2686,2.2686,2.2686,2.2686,2.2686,2.2686,2.2686,2.2686,2.2686,2.2686,2.2686,2.2686,2.2686,2.2514,2.1984,2.1455,1.9873,1.8121,1.6545,1.5491,1.4441,1.3735,1.3211,5.0696,5.0696,5.0696,5.0412,4.9961,4.9509,4.9078,4.8546,4.8423,4.8722,4.9181,4.9732,5.026,5.0719,5.1179,5.1208,5.0611,4.9157,4.7528,4.5738,4.3797,4.2345,4.1546,4.106,4.106,4.106,4.106,4.106,4.106,4.106,4.106,4.106,4.106,4.106,4.106,4.106,4.106,4.106,4.106,4.106,4.106,4.106,4.106,4.106,4.106,4.106,4.0892,4.0723,4.0385,4.0046,3.9554,3.9195,3.8854,3.8494,3.8323,3.8323,3.8323,3.743,3.5842,3.4196,3.2264,3.1211,3.0902,3.0156,2.9232,2.84,2.746,2.6721,2.6109,2.564,2.5196,2.4951,2.4719,2.4292,2.3682,2.3498,2.3314,2.3119,2.2924,2.2729,2.2697,2.2686,2.2686,2.2686,2.2729,2.2686,2.2686,2.2686,2.2686,2.2686,2.2686,2.2686,2.2686,2.2686,2.2686,2.2686,2.2686,2.2686,2.2686,2.2686,2.2686,2.2686,2.2686,2.2686,2.2686,2.2514,2.2157,2.0404,1.7947,1.6194,1.4963,1.3742,1.3217,1.3388,1.2857,5.0554,5.0246,5.0554,5.0128,4.9268,4.8957,4.8546,4.8423,4.8745,4.9181,4.9709,5.0191,5.065,5.1201,5.1362,5.0611,4.9315,4.7688,4.592,4.4291,4.2844,4.1882,4.1229,4.106,4.106,4.106,4.106,4.106,4.106,4.106,4.106,4.106,4.106,4.106,4.106,4.106,4.106,4.106,4.106,4.106,4.106,4.106,4.106,4.106,4.106,4.0892,4.0723,4.0554,4.0233,3.9384,3.9213,3.8854,3.8512,3.8323,3.8323,3.8323,3.8152,3.7447,3.5668,3.3731,3.1806,2.986,2.9126,2.8258,2.7646,2.7508,2.7041,2.6649,2.6222,2.5901,2.529,2.5044,2.4623,2.4006,2.3589,2.3414,2.3392,2.3163,2.2955,2.2923,2.288,2.2815,2.2794,2.2783,2.2815,2.2729,2.2708,2.274,2.2708,2.2718,2.2686,2.2686,2.2686,2.2686,2.2686,2.2686,2.2686,2.2686,2.2686,2.2686,2.2686,2.2686,2.2686,2.2686,2.2686,2.2686,2.2686,2.0221,1.7247,1.5843,1.4618,1.3217,1.216,1.2509,1.2331,5.0412,5.0104,5.0412,4.9842,4.9026,4.8753,4.8676,4.8745,4.8974,4.9502,5.0191,5.049,5.0926,5.1339,5.1254,5.0432,4.882,4.7208,4.5413,4.3633,4.1863,4.1397,4.106,4.106,4.106,4.106,4.106,4.106,4.106,4.106,4.106,4.106,4.106,4.106,4.106,4.106,4.106,4.106,4.106,4.106,4.106,4.106,4.106,4.106,4.106,4.0723,4.0403,4.0233,3.9706,3.9025,3.8854,3.8683,3.8323,3.8323,3.8323,3.8152,3.7258,3.6205,3.4272,3.2514,3.0739,2.9156,2.7739,2.7365,2.7148,2.7026,2.699,2.6773,2.6462,2.5985,2.5558,2.4954,2.4353,2.393,2.3564,2.3386,2.3321,2.3257,2.3214,2.3171,2.3106,2.3031,2.2988,2.2955,2.2977,2.3031,2.3052,2.3063,2.2945,2.2805,2.274,2.2686,2.2686,2.2686,2.2708,2.2751,2.274,2.274,2.2686,2.2686,2.2686,2.2697,2.2546,2.2535,2.2686,2.2362,2.1526,1.9361,1.6896,1.5513,1.4129,1.271,1.1827,1.181,1.1449,5.0412,4.9961,4.9961,4.9556,4.9073,4.9006,4.9112,4.9181,4.9273,4.9732,5.0513,5.0673,5.0995,5.1208,5.0921,4.9808,4.8165,4.6384,4.4618,4.3303,4.1863,4.106,4.106,4.106,4.106,4.106,4.106,4.106,4.106,4.106,4.106,4.106,4.106,4.106,4.106,4.106,4.106,4.106,4.106,4.106,4.106,4.106,4.106,4.106,4.0892,4.0723,4.0216,3.9876,3.9348,3.9025,3.8683,3.8323,3.8323,3.7791,3.7791,3.7258,3.6205,3.4432,3.2852,3.1095,2.9335,2.8088,2.7027,2.7027,2.7003,2.6991,2.6942,2.6761,2.6281,2.585,2.5251,2.4857,2.4441,2.4037,2.3835,2.3655,2.3623,2.3515,2.3397,2.3343,2.3278,2.3214,2.3214,2.3181,2.316,2.33,2.3321,2.3311,2.3235,2.3009,2.2934,2.2837,2.2869,2.2912,2.2902,2.2923,2.2858,2.2815,2.2794,2.2837,2.2945,2.2695,2.2404,2.1608,2.0813,2.056,1.9849,1.7739,1.5994,1.4928,1.3509,1.2045,1.1504,1.1514,1.0942,4.9961,4.9652,4.9101,4.8835,4.905,4.9052,4.9365,4.9755,5.0122,5.0398,5.0673,5.1041,5.127,5.1231,5.0121,4.8662,4.6888,4.5413,4.3322,4.2345,4.1229,4.106,4.106,4.106,4.106,4.106,4.106,4.106,4.106,4.106,4.106,4.106,4.106,4.106,4.106,4.106,4.106,4.106,4.106,4.106,4.106,4.106,4.106,4.0723,4.0554,4.0216,3.9706,3.9366,3.8854,3.8494,3.8323,3.8323,3.8323,3.6913,3.6205,3.5842,3.4447,3.2676,3.1259,3.0025,2.8796,2.7739,2.7027,2.7027,2.7027,2.7027,2.6845,2.6664,2.6095,2.5684,2.5105,2.49,2.4525,2.4117,2.3903,2.3903,2.3903,2.3752,2.3601,2.3526,2.3451,2.344,2.3451,2.3429,2.3408,2.3397,2.3386,2.3386,2.3429,2.3321,2.3332,2.3268,2.3235,2.3235,2.3171,2.3117,2.3074,2.3106,2.3138,2.3171,2.3192,2.1873,2.0558,1.9231,1.8399,1.8483,1.811,1.64,1.4972,1.4016,1.3107,1.1826,1.131,1.1149,1.0695,4.9818,4.9245,4.8667,4.8661,4.9083,4.9398,4.9755,5.026,5.0765,5.0972,5.1018,5.127,5.1431,5.1099,4.9629,4.7688,4.6061,4.4454,4.2825,4.1546,4.106,4.106,4.106,4.106,4.106,4.106,4.106,4.106,4.1097,4.106,4.106,4.1097,4.1097,4.1115,4.1097,4.1079,4.1097,4.106,4.0928,4.0928,4.0759,4.0741,4.0723,4.0403,4.0046,3.9706,3.9366,3.9042,3.8683,3.8494,3.8323,3.7447,3.7086,3.6188,3.5146,3.4082,3.2499,3.0917,3.0039,2.8976,2.8269,2.7377,2.7027,2.7027,2.6664,2.6664,2.6664,2.63,2.556,2.5161,2.4978,2.4602,2.4419,2.4032,2.4032,2.4032,2.4021,2.3957,2.3871,2.3849,2.3806,2.3806,2.3806,2.3817,2.3784,2.3784,2.3731,2.3688,2.3688,2.3623,2.3644,2.3634,2.3558,2.344,2.3321,2.33,2.3311,2.3375,2.3451,2.2653,2.1888,2.0101,1.8682,1.7632,1.6915,1.7041,1.6325,1.4943,1.401,1.3035,1.2318,1.1609,1.1273,1.0926,1.047,4.9532,4.8835,4.8546,4.8653,4.9158,4.9663,5.0168,5.065,5.1179,5.1408,5.1208,5.1076,5.1099,5.0455,4.9315,4.7528,4.5738,4.3652,4.2197,4.1378,4.106,4.106,4.106,4.106,4.106,4.1115,4.117,4.1189,4.1225,4.1299,4.1372,4.1225,4.1207,4.1244,4.1207,4.1244,4.1335,4.1202,4.088,4.0619,4.0547,4.0269,4.0233,4.0046,3.9876,3.9366,3.9025,3.8854,3.8683,3.8494,3.8152,3.7258,3.6031,3.5146,3.3731,3.2499,3.0561,2.9681,2.8976,2.8088,2.7377,2.7027,2.7027,2.6664,2.6482,2.6106,2.6118,2.5742,2.5195,2.4829,2.4646,2.4463,2.4291,2.4118,2.4118,2.4118,2.4107,2.4097,2.4086,2.4075,2.4075,2.4075,2.4075,2.4097,2.4097,2.4118,2.4118,2.4118,2.4075,2.3957,2.3903,2.386,2.3784,2.3655,2.3548,2.3548,2.3591,2.3634,2.3507,2.2101,2.0601,1.8681,1.7246,1.6293,1.592,1.5385,1.4835,1.3954,1.2996,1.2057,1.1732,1.1212,1.083,1.0464,1.0041,4.9245,4.8546,4.84,4.8676,4.9158,4.9686,5.0191,5.0673,5.1201,5.1431,5.1099,4.9964,4.9315,4.9157,4.7528,4.59,4.4454,4.2678,4.1882,4.106,4.106,4.106,4.1097,4.1152,4.1079,4.1225,4.1427,4.1555,4.1592,4.1831,4.2014,4.1959,4.1977,4.1996,4.1996,4.1977,4.1732,4.1541,4.1197,4.1024,4.0517,4.015,3.9572,3.9366,3.9195,3.8854,3.8512,3.8494,3.8323,3.8323,3.8152,3.7086,3.5494,3.4097,3.2499,3.0739,2.8796,2.8269,2.7558,2.7377,2.7027,2.6845,2.6664,2.6482,2.5924,2.556,2.5377,2.5195,2.4646,2.4463,2.4474,2.4291,2.4118,2.4118,2.4118,2.4118,2.4118,2.4107,2.4107,2.4107,2.4107,2.4097,2.4107,2.4107,2.4107,2.4118,2.4118,2.4118,2.4118,2.4118,2.4118,2.4043,2.3967,2.4021,2.3989,2.3903,2.3914,2.3946,2.3185,2.1067,1.9035,1.6918,1.5624,1.462,1.3715,1.3198,1.2631,1.2766,1.2234,1.1486,1.1151,1.08,1.0399,1.0183,0.9764]},{"header":{"parameterUnit":"m.s-1","parameterCategory":1,"la1":31.0,"la2":29.5877,"lo1":-88.7671,"lo2":-86.6584,"dx":0.0162,"dy":0.0185,"nx":115,"ny":88,"refTime":"2023-01-29T06:00:00:Z","depth":0,"parameterNumber":3,"parameterNumberName":"V-component_of_WINDS"},"data":[0.0,0.0,0.0,0.0,0.0,0.0,0.0,0.0,0.0,0.0,0.0,0.0,0.0,0.0,0.0,0.0,0.0,0.0,0.0,0.0,0.0,0.0,0.0,0.0,0.0,0.0,0.0,0.0,0.0,0.0,0.0,0.0,0.0,0.0,0.0,0.0,0.0,0.0,0.0,0.0,0.0,0.0,0.0,0.0,0.0,0.0,0.0,0.0,0.0,0.0,0.0,0.0,0.0,0.0,0.0,0.0,0.0,0.0,0.0,0.0,0.0,0.0,0.0,0.0,0.0,0.0,0.0,0.0,0.0,0.0,0.0,0.0,0.0,0.0,0.0,0.0,0.0,0.0,0.0,0.0,0.0,0.0,0.0,0.0,0.0,0.0,0.0,0.0,0.0,0.0,0.0,0.0,0.0,0.0,0.0,0.0,0.0,0.0,0.0,0.0,0.0,0.0,0.0,0.0,0.0,0.0,0.0,0.0,0.0,0.0,0.0,0.0,0.0,0.0,0.0,0.0,0.0,0.0,0.0,0.0,0.0,0.0,0.0,0.0,0.0,0.0,0.0,0.0,0.0,0.0,0.0,0.0,0.0,0.0,0.0,0.0,0.0,0.0,0.0,0.0,0.0,0.0,0.0,0.0,0.0,0.0,0.0,0.0,0.0,0.0,0.0,0.0,0.0,0.0,0.0,0.0,0.0,0.0,0.0,0.0,0.0,0.0,0.0,0.0,0.0,0.0,0.0,0.0,0.0,0.0,0.0,0.0,0.0,0.0,0.0,0.0,0.0,0.0,0.0,0.0,0.0,0.0,0.0,0.0,0.0,0.0,0.0,0.0,0.0,0.0,0.0,0.0,0.0,0.0,0.0,0.0,0.0,0.0,0.0,0.0,0.0,0.0,0.0,0.0,0.0,0.0,0.0,0.0,0.0,0.0,0.0,0.0,0.0,0.0,0.0,0.0,0.0,0.0,0.0,0.0,0.0,0.0,0.0,0.0,0.0,0.0,0.0,0.0,0.0,0.0,0.0,0.0,0.0,0.0,0.0,0.0,0.0,0.0,0.0,0.0,0.0,0.0,0.0,0.0,0.0,0.0,0.0,0.0,0.0,0.0,0.0,0.0,0.0,0.0,0.0,0.0,0.0,0.0,0.0,0.0,0.0,0.0,0.0,0.0,0.0,0.0,0.0,0.0,0.0,0.0,0.0,0.0,0.0,0.0,0.0,0.0,0.0,0.0,0.0,0.0,0.0,0.0,0.0,0.0,0.0,0.0,0.0,0.0,0.0,0.0,0.0,0.0,0.0,0.0,0.0,0.0,0.0,0.0,0.0,0.0,0.0,0.0,0.0,0.0,0.0,0.0,0.0,0.0,0.0,0.0,0.0,0.0,0.0,0.0,0.0,0.0,0.0,0.0,0.0,0.0,0.0,0.0,0.0,0.0,0.0,0.0,0.0,0.0,0.0,0.0,0.0,0.0,0.0,0.0,0.0,0.0,0.0,0.0,0.0,0.0,0.0,0.0,0.0,0.0,0.0,0.0,0.0,0.0,0.0,0.0,0.0,0.0,0.0,0.0,0.0,0.0,0.0,0.0,0.0,0.0,0.0,0.0,0.0,0.0,0.0,0.0,0.0,0.0,0.0,0.0,0.0,0.0,0.0,0.0,0.0,0.0,0.0,0.0,0.0,0.0,0.0,0.0,0.0,0.0,0.0,0.0,0.0,0.0,0.0,0.0,0.0,0.0,0.0,0.0,0.0,0.0,0.0,0.0,0.0,0.0,0.0,0.0,0.0,0.0,0.0,0.0,0.0,0.0,0.0,0.0,0.0,0.0,0.0,0.0,0.0,0.0,0.0,0.0,0.0,0.0,0.0,0.0,0.0,0.0,0.0,0.0,0.0,0.0,0.0,0.0,0.0,0.0,0.0,0.0,0.0,0.0,0.0,0.0,0.0,0.0,0.0,0.0,0.0,0.0,0.0,0.0,0.0,0.0,0.0,0.0,0.0,0.0,0.0,0.0,0.0,0.0,0.0,0.0,0.0,0.0,0.0,0.0,0.0,0.0,0.0,0.0,0.0,0.0,0.0,0.0,0.0,0.0,0.0,0.0,0.0,0.0,0.0,0.0,0.0,0.0,0.0,0.0,0.0,0.0,0.0,0.0,0.0,0.0,0.0,0.0,0.0,0.0,0.0,0.0,0.0,0.0,0.0,0.0,0.0,0.0,0.0,0.0,0.0,0.0,0.0,0.0,0.0,0.0,0.0,0.0,0.0,0.0,0.0,0.0,0.0,0.0,0.0,0.0,0.0,0.0,0.0,0.0,0.0,0.0,0.0,0.0,0.0,0.0,0.0,0.0,0.0,0.0,0.0,0.0,0.0,0.0,0.0,0.0,0.0,0.0,0.0,0.0,0.0,0.0,0.0,0.0,0.0,0.0,0.0,0.0,0.0,0.0,0.0,0.0,0.0,0.0,0.0,0.0,0.0,0.0,0.0,0.0,0.0,0.0,0.0,0.0,0.0,0.0,0.0,0.0,0.0,0.0,0.0,0.0,0.0,0.0,0.0,0.0,0.0,0.0,0.0,0.0,0.0,0.0,0.0,0.0,0.0,0.0,0.0,0.0,0.0,0.0,0.0,0.0,0.0,0.0,0.0,0.0,0.0,0.0,0.0,0.0,0.0,0.0,0.0,0.0,0.0,0.0,0.0,0.0,0.0,0.0,0.0,0.0,0.0,0.0,0.0,0.0,0.0,0.0,0.0,0.0,0.0,0.0,0.0,0.0,0.0,0.0,0.0,0.0,0.0,0.0,0.0,0.0,0.0,0.0,0.0,0.0,0.0,0.0,0.0,0.0,0.0,0.0,0.0,0.0,0.0,0.0,0.0,0.0,0.0,0.0,0.0,0.0,0.0,0.0,0.0,0.0,0.0,0.0,0.0,0.0,0.0,0.0,0.0,0.0,0.0,0.0,0.0,0.0,0.0,0.0,0.0,0.0,0.0,0.0,0.0,0.0,0.0,0.0,0.0,0.0,0.0,0.0,0.0,0.0,0.0,0.0,0.0,0.0,0.0,0.0,0.0,0.0,0.0,0.0,0.0,0.0,0.0,0.0,0.0,0.0,0.0,0.0,0.0,0.0,0.0,0.0,0.0,0.0,0.0,0.0,0.0,0.0,0.0,0.0,0.0,0.0,0.0,0.0,0.0,0.0,0.0,0.0,0.0,0.0,0.0,0.0,0.0,0.0,0.0,0.0,0.0,0.0,0.0,0.0,0.0,0.0,0.0,0.0,0.0,0.0,0.0,0.0,0.0,0.0,0.0,0.0,0.0,0.0,0.0,0.0,0.0,0.0,0.0,0.0,0.0,0.0,0.0,0.0,0.0,0.0,0.0,0.0,0.0,0.0,0.0,0.0,0.0,0.0,0.0,0.0,0.0,0.0,0.0,0.0,0.0,0.0,0.0,0.0,0.0,0.0,0.0,0.0,0.0,0.0,0.0,0.0,0.0,0.0,0.0,0.0,0.0,0.0,0.0,0.0,0.0,0.0,0.0,0.0,0.0,0.0,0.0,0.0,0.0,0.0,0.0,0.0,0.0,0.0,0.0,0.0,0.0,0.0,0.0,0.0,0.0,0.0,0.0,0.0,0.0,0.0,0.0,0.0,0.0,0.0,0.0,0.0,0.0,0.0,0.0,0.0,0.0,0.0,0.0,0.0,0.0,0.0,0.0,0.0,0.0,0.0,0.0,0.0,0.0,0.0,0.0,0.0,0.0,0.0,0.0,0.0,0.0,0.0,0.0,0.0,0.0,0.0,0.0,0.0,0.0,0.0,0.0,0.0,0.0,0.0,0.0,0.0,0.0,0.0,0.0,0.0,0.0,0.0,0.0,0.0,0.0,0.0,0.0,0.0,0.0,0.0,0.0,0.0,0.0,0.0,0.0,0.0,0.0,0.0,0.0,0.0,0.0,0.0,0.0,0.0,0.0,0.0,0.0,0.0,0.0,0.0,0.0,0.0,0.0,0.0,0.0,0.0,0.0,0.0,0.0,0.0,0.0,0.0,0.0,0.0,0.0,0.0,0.0,0.0,0.0,0.0,0.0,0.0,0.0,0.0,0.0,0.0,0.0,0.0,0.0,0.0,0.0,0.0,0.0,0.0,0.0,0.0,0.0,0.0,0.0,0.0,0.0,0.0,0.0,0.0,0.0,0.0,0.0,0.0,0.0,0.0,0.0,0.0,0.0,0.0,0.0,0.0,0.0,0.0,0.0,0.0,0.0,0.0,0.0,0.0,-4.5779,0.0,0.0,0.0,0.0,0.0,0.0,0.0,0.0,0.0,0.0,0.0,0.0,0.0,0.0,0.0,0.0,0.0,0.0,0.0,0.0,0.0,0.0,0.0,0.0,0.0,0.0,0.0,0.0,0.0,0.0,0.0,0.0,0.0,0.0,0.0,0.0,0.0,0.0,0.0,0.0,0.0,0.0,0.0,0.0,0.0,0.0,0.0,0.0,0.0,0.0,0.0,0.0,0.0,0.0,0.0,0.0,0.0,0.0,0.0,0.0,0.0,0.0,0.0,0.0,0.0,0.0,0.0,0.0,0.0,0.0,0.0,0.0,0.0,0.0,0.0,0.0,0.0,0.0,0.0,0.0,0.0,0.0,0.0,0.0,0.0,0.0,0.0,0.0,0.0,0.0,0.0,0.0,0.0,0.0,0.0,0.0,0.0,0.0,0.0,0.0,0.0,0.0,0.0,0.0,0.0,0.0,0.0,0.0,0.0,0.0,-4.4413,-4.5514,-4.6052,-4.707,-4.8531,0.0,0.0,0.0,0.0,0.0,0.0,0.0,0.0,0.0,0.0,0.0,0.0,0.0,0.0,0.0,0.0,0.0,0.0,0.0,0.0,0.0,0.0,0.0,0.0,0.0,0.0,0.0,0.0,0.0,0.0,0.0,0.0,0.0,0.0,0.0,0.0,0.0,0.0,0.0,0.0,0.0,0.0,0.0,0.0,0.0,0.0,0.0,0.0,0.0,0.0,0.0,0.0,0.0,0.0,0.0,0.0,0.0,0.0,0.0,0.0,0.0,0.0,0.0,0.0,0.0,0.0,0.0,0.0,0.0,0.0,0.0,0.0,0.0,0.0,0.0,0.0,0.0,0.0,0.0,0.0,0.0,0.0,0.0,0.0,0.0,0.0,0.0,0.0,0.0,0.0,0.0,0.0,0.0,0.0,0.0,0.0,0.0,0.0,0.0,0.0,0.0,0.0,0.0,0.0,0.0,0.0,0.0,0.0,0.0,0.0,0.0,0.0,-4.8131,-4.9224,-5.1064,0.0,0.0,0.0,0.0,0.0,0.0,0.0,0.0,0.0,0.0,0.0,0.0,0.0,0.0,0.0,0.0,0.0,0.0,0.0,0.0,0.0,0.0,0.0,0.0,0.0,0.0,0.0,0.0,0.0,0.0,0.0,0.0,0.0,0.0,0.0,0.0,0.0,0.0,0.0,0.0,0.0,0.0,0.0,0.0,0.0,0.0,0.0,0.0,0.0,0.0,0.0,0.0,0.0,0.0,0.0,0.0,0.0,0.0,0.0,0.0,0.0,0.0,0.0,0.0,0.0,0.0,0.0,0.0,0.0,0.0,0.0,0.0,0.0,0.0,0.0,0.0,0.0,0.0,0.0,0.0,0.0,0.0,0.0,0.0,0.0,0.0,0.0,0.0,0.0,0.0,0.0,0.0,0.0,0.0,0.0,0.0,0.0,0.0,0.0,0.0,0.0,0.0,0.0,0.0,0.0,0.0,0.0,0.0,0.0,0.0,-4.6622,-4.7759,-4.8893,0.0,-5.1518,0.0,0.0,0.0,0.0,0.0,0.0,0.0,0.0,0.0,0.0,0.0,0.0,0.0,0.0,0.0,0.0,0.0,0.0,0.0,0.0,0.0,0.0,0.0,0.0,0.0,0.0,0.0,0.0,0.0,0.0,0.0,0.0,0.0,0.0,0.0,0.0,0.0,0.0,0.0,0.0,0.0,0.0,0.0,0.0,0.0,0.0,0.0,0.0,0.0,0.0,0.0,0.0,0.0,0.0,0.0,0.0,0.0,0.0,0.0,0.0,0.0,0.0,0.0,0.0,0.0,0.0,0.0,0.0,0.0,0.0,0.0,0.0,0.0,0.0,0.0,0.0,0.0,0.0,0.0,0.0,0.0,0.0,0.0,0.0,0.0,0.0,0.0,0.0,0.0,0.0,0.0,0.0,0.0,0.0,0.0,0.0,0.0,0.0,0.0,0.0,0.0,0.0,0.0,0.0,0.0,0.0,0.0,0.0,0.0,0.0,-4.8287,-4.9931,-5.133,-5.2449,0.0,0.0,0.0,0.0,0.0,0.0,0.0,0.0,0.0,0.0,0.0,0.0,0.0,0.0,0.0,0.0,0.0,0.0,0.0,0.0,0.0,0.0,0.0,0.0,0.0,0.0,0.0,0.0,0.0,0.0,0.0,0.0,0.0,0.0,0.0,0.0,0.0,0.0,0.0,0.0,0.0,0.0,0.0,0.0,0.0,0.0,0.0,0.0,0.0,0.0,0.0,0.0,0.0,0.0,0.0,0.0,0.0,0.0,0.0,0.0,0.0,0.0,0.0,0.0,0.0,0.0,0.0,0.0,0.0,0.0,0.0,0.0,0.0,0.0,0.0,0.0,0.0,0.0,0.0,0.0,0.0,0.0,0.0,0.0,0.0,0.0,0.0,0.0,0.0,0.0,0.0,0.0,0.0,0.0,0.0,0.0,0.0,0.0,0.0,0.0,0.0,0.0,0.0,0.0,0.0,0.0,0.0,0.0,0.0,0.0,-4.9161,-5.0199,-5.2063,-5.3201,-5.3876,-5.4103,0.0,0.0,0.0,0.0,0.0,0.0,0.0,0.0,0.0,0.0,0.0,0.0,0.0,0.0,0.0,0.0,0.0,0.0,0.0,0.0,0.0,0.0,0.0,0.0,0.0,0.0,0.0,0.0,0.0,0.0,0.0,0.0,0.0,0.0,0.0,0.0,0.0,0.0,0.0,0.0,0.0,0.0,0.0,0.0,0.0,0.0,0.0,0.0,0.0,0.0,0.0,0.0,0.0,0.0,0.0,0.0,0.0,0.0,0.0,0.0,0.0,0.0,0.0,0.0,0.0,0.0,0.0,0.0,0.0,0.0,0.0,0.0,0.0,0.0,0.0,0.0,0.0,0.0,0.0,0.0,0.0,0.0,0.0,0.0,0.0,0.0,0.0,0.0,0.0,0.0,0.0,0.0,0.0,0.0,0.0,0.0,0.0,0.0,0.0,0.0,0.0,0.0,0.0,0.0,0.0,0.0,0.0,0.0,-5.0828,-5.1203,-5.2154,-5.3615,-5.3789,-5.3876,0.0,0.0,0.0,0.0,0.0,0.0,0.0,0.0,0.0,0.0,0.0,0.0,0.0,0.0,0.0,0.0,0.0,0.0,0.0,0.0,0.0,0.0,0.0,0.0,0.0,0.0,0.0,0.0,0.0,0.0,0.0,0.0,0.0,0.0,0.0,0.0,0.0,0.0,0.0,0.0,0.0,0.0,0.0,0.0,0.0,0.0,0.0,0.0,0.0,0.0,0.0,0.0,0.0,0.0,0.0,0.0,0.0,0.0,0.0,0.0,0.0,0.0,0.0,0.0,0.0,0.0,0.0,0.0,0.0,0.0,0.0,0.0,0.0,0.0,0.0,0.0,0.0,0.0,0.0,0.0,0.0,0.0,0.0,0.0,0.0,0.0,0.0,0.0,0.0,0.0,0.0,0.0,0.0,0.0,0.0,0.0,0.0,0.0,0.0,0.0,0.0,0.0,0.0,0.0,0.0,0.0,0.0,0.0,0.0,-5.0324,-5.2063,-5.329,-5.3931,-5.4017,-5.4017,0.0,0.0,0.0,0.0,0.0,0.0,0.0,0.0,0.0,0.0,0.0,0.0,0.0,0.0,0.0,0.0,0.0,0.0,0.0,0.0,0.0,0.0,0.0,0.0,0.0,0.0,0.0,0.0,0.0,0.0,0.0,0.0,0.0,0.0,0.0,0.0,0.0,0.0,0.0,0.0,0.0,0.0,0.0,0.0,0.0,0.0,0.0,0.0,0.0,0.0,0.0,0.0,0.0,0.0,0.0,0.0,0.0,0.0,0.0,0.0,0.0,0.0,0.0,0.0,0.0,0.0,0.0,0.0,0.0,0.0,0.0,0.0,0.0,0.0,0.0,0.0,0.0,0.0,0.0,0.0,0.0,0.0,0.0,0.0,0.0,0.0,0.0,0.0,0.0,0.0,0.0,0.0,0.0,0.0,0.0,0.0,0.0,0.0,0.0,0.0,0.0,0.0,0.0,0.0,0.0,0.0,0.0,0.0,0.0,-5.1173,0.0,-5.3876,0.0,-5.4103,-5.4103,0.0,0.0,0.0,0.0,0.0,0.0,0.0,0.0,0.0,0.0,0.0,0.0,0.0,0.0,0.0,0.0,0.0,0.0,0.0,0.0,0.0,0.0,0.0,0.0,0.0,0.0,0.0,0.0,0.0,0.0,0.0,0.0,0.0,0.0,0.0,0.0,0.0,0.0,0.0,0.0,0.0,0.0,0.0,0.0,0.0,0.0,0.0,0.0,0.0,0.0,0.0,0.0,0.0,0.0,0.0,0.0,0.0,0.0,0.0,0.0,0.0,0.0,0.0,0.0,0.0,0.0,0.0,0.0,0.0,0.0,0.0,0.0,0.0,0.0,0.0,0.0,0.0,0.0,0.0,0.0,0.0,0.0,0.0,0.0,0.0,0.0,0.0,0.0,0.0,0.0,0.0,0.0,0.0,0.0,0.0,0.0,0.0,0.0,0.0,0.0,0.0,0.0,0.0,0.0,0.0,0.0,0.0,0.0,-5.2245,-5.3702,-5.3789,-5.3844,-5.4103,-5.4103,-5.4103,0.0,0.0,0.0,0.0,0.0,0.0,0.0,0.0,0.0,0.0,0.0,0.0,0.0,0.0,0.0,0.0,0.0,0.0,0.0,0.0,0.0,0.0,0.0,0.0,0.0,0.0,0.0,0.0,0.0,0.0,0.0,0.0,0.0,0.0,0.0,0.0,0.0,0.0,0.0,0.0,0.0,0.0,0.0,0.0,0.0,0.0,0.0,0.0,0.0,0.0,0.0,0.0,0.0,0.0,0.0,0.0,0.0,0.0,0.0,0.0,0.0,0.0,0.0,0.0,0.0,0.0,0.0,0.0,0.0,0.0,0.0,0.0,0.0,0.0,0.0,0.0,0.0,0.0,0.0,0.0,0.0,0.0,0.0,0.0,0.0,0.0,0.0,0.0,0.0,0.0,0.0,0.0,0.0,0.0,0.0,0.0,0.0,0.0,0.0,0.0,0.0,0.0,0.0,0.0,0.0,0.0,0.0,0.0,0.0,-5.4017,-5.4017,-5.4017,-5.4103,-5.4103,-5.4103,0.0,0.0,0.0,0.0,0.0,0.0,0.0,0.0,0.0,0.0,0.0,0.0,0.0,0.0,0.0,0.0,0.0,0.0,0.0,0.0,0.0,0.0,0.0,0.0,0.0,0.0,0.0,0.0,0.0,0.0,0.0,0.0,0.0,0.0,0.0,0.0,0.0,0.0,0.0,0.0,0.0,0.0,0.0,0.0,0.0,0.0,0.0,0.0,0.0,0.0,0.0,0.0,0.0,0.0,0.0,0.0,0.0,0.0,0.0,0.0,0.0,0.0,0.0,0.0,0.0,0.0,0.0,0.0,0.0,0.0,0.0,0.0,0.0,0.0,0.0,0.0,0.0,0.0,0.0,0.0,0.0,0.0,0.0,0.0,0.0,0.0,0.0,0.0,0.0,0.0,0.0,0.0,0.0,0.0,0.0,0.0,0.0,0.0,0.0,0.0,0.0,0.0,0.0,0.0,0.0,0.0,0.0,0.0,0.0,-5.4103,-5.4103,-5.4103,-5.4103,-5.4103,-5.4103,-5.4103,0.0,0.0,0.0,0.0,0.0,0.0,0.0,0.0,0.0,0.0,0.0,0.0,0.0,0.0,0.0,0.0,0.0,0.0,0.0,0.0,0.0,0.0,0.0,0.0,0.0,0.0,0.0,0.0,0.0,0.0,0.0,0.0,0.0,0.0,0.0,0.0,0.0,0.0,0.0,0.0,0.0,0.0,0.0,0.0,0.0,0.0,0.0,0.0,0.0,0.0,0.0,0.0,0.0,0.0,0.0,0.0,0.0,0.0,0.0,0.0,0.0,0.0,0.0,0.0,0.0,0.0,0.0,0.0,0.0,0.0,0.0,0.0,0.0,0.0,0.0,0.0,0.0,0.0,0.0,0.0,0.0,0.0,0.0,0.0,0.0,0.0,0.0,0.0,0.0,0.0,0.0,0.0,0.0,0.0,0.0,0.0,0.0,0.0,0.0,0.0,0.0,0.0,0.0,0.0,0.0,0.0,0.0,0.0,-5.4103,-5.4103,-5.4103,-5.4103,-5.4103,-5.4103,0.0,0.0,0.0,0.0,0.0,0.0,0.0,0.0,0.0,0.0,0.0,0.0,0.0,0.0,0.0,0.0,0.0,0.0,0.0,0.0,0.0,0.0,0.0,0.0,0.0,0.0,0.0,0.0,0.0,0.0,0.0,0.0,0.0,0.0,0.0,0.0,0.0,0.0,0.0,0.0,0.0,0.0,0.0,0.0,0.0,0.0,0.0,0.0,0.0,0.0,0.0,0.0,0.0,0.0,0.0,0.0,0.0,0.0,0.0,0.0,0.0,0.0,0.0,0.0,0.0,0.0,0.0,0.0,0.0,0.0,0.0,0.0,0.0,0.0,0.0,0.0,0.0,0.0,0.0,0.0,0.0,0.0,0.0,0.0,0.0,0.0,0.0,0.0,0.0,0.0,0.0,0.0,0.0,0.0,0.0,0.0,0.0,0.0,0.0,0.0,0.0,0.0,0.0,0.0,0.0,0.0,0.0,0.0,0.0,-5.4103,-5.4103,-5.4103,-5.4103,-5.4103,-5.4103,0.0,0.0,0.0,0.0,0.0,0.0,0.0,0.0,0.0,0.0,0.0,0.0,0.0,0.0,0.0,0.0,0.0,0.0,0.0,0.0,0.0,0.0,0.0,0.0,0.0,0.0,0.0,0.0,0.0,0.0,0.0,0.0,0.0,0.0,0.0,0.0,0.0,0.0,0.0,0.0,0.0,0.0,0.0,0.0,0.0,0.0,0.0,0.0,0.0,0.0,0.0,0.0,0.0,0.0,0.0,0.0,0.0,0.0,0.0,0.0,0.0,0.0,0.0,0.0,0.0,0.0,0.0,0.0,0.0,0.0,0.0,0.0,0.0,0.0,0.0,0.0,0.0,0.0,0.0,0.0,0.0,0.0,0.0,0.0,0.0,0.0,0.0,0.0,0.0,0.0,0.0,0.0,0.0,0.0,0.0,0.0,0.0,0.0,0.0,0.0,0.0,0.0,0.0,0.0,0.0,0.0,0.0,0.0,-5.4103,-5.4103,-5.4103,-5.4103,-5.4103,-5.4103,-5.4103,0.0,0.0,0.0,0.0,0.0,0.0,0.0,0.0,0.0,0.0,0.0,0.0,0.0,0.0,0.0,0.0,0.0,0.0,0.0,0.0,0.0,0.0,0.0,0.0,0.0,0.0,0.0,0.0,0.0,0.0,0.0,0.0,0.0,0.0,0.0,0.0,0.0,0.0,0.0,0.0,0.0,0.0,0.0,0.0,0.0,0.0,0.0,0.0,0.0,0.0,0.0,0.0,0.0,0.0,0.0,0.0,0.0,0.0,0.0,0.0,0.0,0.0,0.0,0.0,0.0,0.0,0.0,0.0,0.0,0.0,0.0,0.0,0.0,0.0,0.0,0.0,0.0,0.0,0.0,0.0,0.0,0.0,0.0,0.0,0.0,0.0,0.0,0.0,0.0,0.0,0.0,0.0,0.0,0.0,0.0,0.0,0.0,0.0,0.0,0.0,0.0,0.0,0.0,0.0,0.0,0.0,0.0,0.0,-5.4103,-5.4103,-5.4103,-5.4103,-5.4103,-5.4103,-5.4103,0.0,0.0,0.0,0.0,0.0,0.0,0.0,0.0,0.0,0.0,0.0,0.0,0.0,0.0,0.0,0.0,0.0,0.0,0.0,0.0,0.0,0.0,0.0,0.0,0.0,0.0,0.0,0.0,0.0,0.0,0.0,0.0,0.0,0.0,0.0,0.0,0.0,0.0,0.0,0.0,0.0,0.0,0.0,0.0,0.0,0.0,0.0,0.0,0.0,0.0,0.0,0.0,0.0,0.0,0.0,0.0,0.0,0.0,0.0,0.0,0.0,0.0,0.0,0.0,0.0,0.0,0.0,0.0,0.0,0.0,0.0,0.0,0.0,0.0,0.0,0.0,0.0,0.0,0.0,0.0,0.0,0.0,0.0,0.0,0.0,0.0,0.0,0.0,0.0,0.0,0.0,0.0,0.0,0.0,0.0,0.0,0.0,0.0,0.0,0.0,0.0,0.0,0.0,0.0,0.0,0.0,0.0,0.0,-5.4103,-5.4103,-5.4103,-5.4103,-5.4103,-5.4103,-5.4103,0.0,0.0,0.0,0.0,0.0,0.0,0.0,0.0,0.0,0.0,0.0,0.0,0.0,0.0,0.0,0.0,0.0,0.0,0.0,0.0,0.0,0.0,0.0,0.0,0.0,0.0,0.0,0.0,0.0,0.0,0.0,0.0,0.0,0.0,0.0,0.0,0.0,0.0,0.0,0.0,0.0,0.0,0.0,0.0,0.0,0.0,0.0,0.0,-6.0903,0.0,0.0,0.0,0.0,0.0,0.0,0.0,0.0,0.0,0.0,0.0,0.0,0.0,0.0,0.0,0.0,0.0,0.0,0.0,0.0,0.0,0.0,0.0,0.0,0.0,0.0,0.0,0.0,0.0,0.0,0.0,0.0,0.0,0.0,0.0,0.0,0.0,0.0,0.0,0.0,0.0,0.0,0.0,0.0,0.0,0.0,0.0,0.0,0.0,0.0,0.0,0.0,0.0,0.0,0.0,0.0,0.0,0.0,0.0,-5.4103,-5.4103,-5.4103,-5.4103,-5.4103,-5.4103,-5.4103,0.0,0.0,0.0,0.0,0.0,0.0,0.0,0.0,0.0,0.0,0.0,0.0,0.0,0.0,0.0,0.0,0.0,0.0,0.0,0.0,0.0,0.0,0.0,0.0,0.0,0.0,0.0,0.0,0.0,0.0,0.0,0.0,0.0,0.0,0.0,0.0,0.0,0.0,0.0,0.0,0.0,0.0,0.0,0.0,0.0,0.0,0.0,0.0,0.0,0.0,0.0,0.0,0.0,0.0,0.0,0.0,0.0,0.0,0.0,0.0,0.0,0.0,0.0,0.0,0.0,0.0,0.0,0.0,0.0,0.0,0.0,0.0,0.0,0.0,0.0,0.0,0.0,0.0,0.0,0.0,0.0,0.0,0.0,0.0,0.0,0.0,0.0,0.0,0.0,0.0,0.0,0.0,0.0,0.0,0.0,0.0,0.0,0.0,0.0,0.0,0.0,0.0,0.0,0.0,0.0,0.0,0.0,-5.4103,-5.4103,-5.4103,-5.4103,-5.4103,-5.4103,-5.4103,-5.4166,-5.4261,0.0,0.0,0.0,0.0,0.0,0.0,0.0,0.0,0.0,0.0,0.0,0.0,0.0,0.0,0.0,0.0,0.0,0.0,0.0,0.0,0.0,0.0,0.0,0.0,0.0,0.0,0.0,0.0,0.0,0.0,0.0,0.0,0.0,0.0,0.0,0.0,0.0,0.0,-6.0072,-6.0072,0.0,0.0,0.0,0.0,0.0,0.0,0.0,0.0,-6.2794,0.0,0.0,0.0,0.0,0.0,0.0,0.0,0.0,0.0,0.0,0.0,0.0,0.0,0.0,0.0,0.0,0.0,0.0,0.0,0.0,0.0,0.0,0.0,0.0,0.0,0.0,0.0,0.0,0.0,0.0,0.0,0.0,0.0,0.0,0.0,0.0,0.0,0.0,0.0,0.0,0.0,0.0,0.0,0.0,0.0,0.0,0.0,0.0,0.0,0.0,0.0,0.0,0.0,0.0,0.0,0.0,-5.4103,-5.4103,-5.4103,-5.4103,-5.4103,-5.4103,-5.4103,-5.4103,-5.4356,-5.4893,0.0,0.0,0.0,0.0,0.0,0.0,0.0,0.0,0.0,0.0,0.0,0.0,0.0,0.0,0.0,0.0,0.0,0.0,0.0,0.0,0.0,0.0,0.0,0.0,0.0,0.0,0.0,0.0,0.0,0.0,0.0,0.0,0.0,0.0,0.0,0.0,0.0,0.0,0.0,-6.0072,-6.0135,0.0,0.0,0.0,0.0,0.0,0.0,0.0,0.0,-6.2471,0.0,0.0,0.0,0.0,0.0,0.0,0.0,0.0,0.0,0.0,0.0,0.0,0.0,0.0,0.0,0.0,0.0,0.0,0.0,0.0,0.0,0.0,0.0,0.0,0.0,0.0,0.0,0.0,0.0,0.0,0.0,0.0,0.0,0.0,0.0,0.0,0.0,0.0,0.0,0.0,0.0,0.0,0.0,0.0,0.0,0.0,0.0,0.0,0.0,0.0,0.0,0.0,0.0,0.0,0.0,-5.4103,-5.4103,-5.4103,-5.4103,-5.4103,-5.4261,-5.4609,-5.464,-5.4956,0.0,0.0,0.0,0.0,0.0,0.0,0.0,0.0,0.0,0.0,0.0,0.0,0.0,0.0,0.0,0.0,0.0,0.0,0.0,0.0,0.0,0.0,0.0,0.0,0.0,0.0,0.0,0.0,0.0,0.0,0.0,0.0,0.0,0.0,0.0,0.0,0.0,0.0,0.0,0.0,-6.0072,-6.0234,-6.0477,0.0,0.0,0.0,0.0,0.0,0.0,-6.294,-6.3178,0.0,0.0,0.0,0.0,0.0,0.0,0.0,0.0,0.0,0.0,0.0,0.0,0.0,0.0,0.0,0.0,0.0,0.0,0.0,0.0,0.0,0.0,0.0,0.0,0.0,0.0,0.0,0.0,0.0,0.0,0.0,0.0,0.0,0.0,0.0,0.0,0.0,0.0,0.0,0.0,0.0,0.0,0.0,0.0,0.0,0.0,0.0,0.0,0.0,0.0,0.0,0.0,0.0,0.0,0.0,-5.4292,-5.4292,-5.4356,-5.4514,-5.4514,-5.4767,-5.5335,-5.5335,-5.5683,0.0,0.0,0.0,0.0,0.0,0.0,0.0,0.0,0.0,0.0,0.0,0.0,0.0,0.0,0.0,0.0,0.0,0.0,0.0,0.0,0.0,0.0,0.0,0.0,0.0,0.0,0.0,0.0,0.0,0.0,0.0,0.0,0.0,0.0,0.0,0.0,0.0,0.0,0.0,0.0,0.0,-6.0262,-6.0722,-6.1451,0.0,0.0,0.0,0.0,-6.3825,-6.3915,0.0,0.0,0.0,0.0,0.0,0.0,0.0,0.0,0.0,0.0,0.0,0.0,0.0,0.0,0.0,0.0,0.0,0.0,0.0,0.0,0.0,0.0,0.0,0.0,0.0,0.0,0.0,0.0,0.0,0.0,0.0,0.0,0.0,0.0,0.0,0.0,0.0,0.0,0.0,0.0,0.0,0.0,0.0,0.0,0.0,0.0,0.0,0.0,0.0,0.0,0.0,0.0,0.0,0.0,0.0,0.0,-5.4988,-5.5019,-5.5304,-5.5904,-5.5936,-5.5967,-5.6062,-5.6062,-5.6378,0.0,0.0,0.0,0.0,0.0,0.0,0.0,0.0,0.0,0.0,0.0,0.0,0.0,0.0,0.0,0.0,0.0,0.0,0.0,0.0,0.0,0.0,0.0,0.0,0.0,0.0,0.0,0.0,0.0,0.0,0.0,0.0,0.0,0.0,0.0,0.0,0.0,0.0,0.0,0.0,0.0,-6.0171,-6.0199,-6.1163,-6.1951,0.0,0.0,0.0,-6.4438,-6.4419,0.0,0.0,0.0,0.0,0.0,0.0,0.0,0.0,0.0,0.0,0.0,0.0,0.0,0.0,0.0,0.0,0.0,0.0,0.0,0.0,0.0,0.0,0.0,0.0,0.0,0.0,0.0,0.0,0.0,0.0,0.0,0.0,0.0,0.0,0.0,0.0,0.0,0.0,0.0,0.0,0.0,0.0,0.0,0.0,0.0,0.0,0.0,0.0,0.0,0.0,0.0,0.0,0.0,0.0,0.0,-5.543,-5.5715,-5.5746,-5.5873,-5.6189,-5.6189,-5.6378,-5.6757,-5.6789,-5.7105,0.0,0.0,0.0,0.0,0.0,0.0,0.0,0.0,0.0,0.0,0.0,0.0,0.0,0.0,0.0,0.0,0.0,0.0,0.0,0.0,0.0,0.0,0.0,0.0,0.0,0.0,0.0,0.0,0.0,0.0,0.0,0.0,0.0,0.0,0.0,0.0,0.0,0.0,0.0,0.0,0.0,0.0,-6.0135,-6.1556,0.0,0.0,0.0,-6.4853,-6.545,0.0,0.0,0.0,0.0,0.0,0.0,0.0,0.0,0.0,0.0,0.0,0.0,0.0,0.0,0.0,0.0,0.0,0.0,0.0,0.0,0.0,0.0,0.0,0.0,0.0,0.0,0.0,0.0,0.0,0.0,0.0,0.0,0.0,0.0,0.0,0.0,0.0,0.0,0.0,0.0,0.0,0.0,0.0,0.0,0.0,0.0,0.0,0.0,0.0,0.0,0.0,0.0,0.0,0.0,0.0,0.0,0.0,-5.6441,-5.6441,-5.6536,-5.6694,-5.6694,-5.6947,-5.7453,-5.7484,0.0,0.0,0.0,0.0,0.0,0.0,0.0,0.0,0.0,0.0,0.0,0.0,0.0,0.0,0.0,0.0,0.0,0.0,0.0,0.0,0.0,0.0,0.0,0.0,0.0,0.0,0.0,-6.1265,0.0,0.0,0.0,0.0,0.0,0.0,0.0,0.0,0.0,0.0,0.0,0.0,0.0,0.0,-6.099,-6.0698,-6.2236,-6.3345,0.0,0.0,-6.6165,-6.6388,-6.6537,-6.6792,0.0,0.0,0.0,0.0,0.0,0.0,0.0,0.0,0.0,0.0,0.0,0.0,0.0,0.0,0.0,0.0,0.0,0.0,0.0,0.0,0.0,0.0,0.0,0.0,0.0,0.0,0.0,0.0,0.0,0.0,0.0,0.0,0.0,0.0,0.0,0.0,0.0,0.0,0.0,0.0,0.0,0.0,0.0,0.0,0.0,0.0,0.0,0.0,0.0,0.0,0.0,0.0,0.0,0.0,0.0,-5.7137,-5.7137,-5.7453,-5.8085,-5.8116,-5.8148,-5.8211,-5.8211,-5.8211,0.0,0.0,0.0,0.0,0.0,0.0,0.0,0.0,0.0,0.0,0.0,0.0,0.0,0.0,0.0,0.0,0.0,0.0,0.0,0.0,0.0,0.0,0.0,0.0,0.0,0.0,0.0,0.0,0.0,0.0,0.0,0.0,0.0,0.0,0.0,0.0,0.0,0.0,0.0,0.0,0.0,-6.1506,-6.2143,-6.3321,-6.4142,0.0,0.0,-6.6351,-6.7131,-6.7356,-6.78,-6.8622,0.0,0.0,0.0,0.0,0.0,0.0,0.0,0.0,0.0,0.0,0.0,0.0,0.0,0.0,0.0,0.0,0.0,0.0,0.0,0.0,0.0,0.0,0.0,0.0,0.0,0.0,0.0,0.0,0.0,0.0,0.0,0.0,0.0,0.0,0.0,0.0,0.0,0.0,0.0,0.0,0.0,0.0,0.0,0.0,0.0,0.0,0.0,0.0,0.0,0.0,0.0,0.0,0.0,-5.7611,-5.7864,-5.7864,-5.799,-5.8243,-5.8274,-5.8274,-5.8274,-5.8274,-5.8274,0.0,0.0,0.0,0.0,0.0,0.0,0.0,0.0,0.0,0.0,0.0,0.0,0.0,0.0,0.0,0.0,0.0,0.0,0.0,0.0,0.0,0.0,0.0,0.0,0.0,0.0,0.0,0.0,-6.2213,-6.2283,-6.2003,0.0,0.0,0.0,0.0,0.0,0.0,0.0,0.0,0.0,0.0,-6.2683,-6.2967,-6.416,0.0,0.0,-6.6727,-6.7688,-6.7986,-6.8213,-6.851,-6.8846,-6.9065,0.0,0.0,0.0,0.0,0.0,0.0,0.0,0.0,0.0,0.0,0.0,0.0,0.0,0.0,0.0,0.0,0.0,0.0,0.0,0.0,0.0,0.0,0.0,0.0,0.0,0.0,0.0,0.0,0.0,0.0,0.0,0.0,0.0,0.0,0.0,0.0,0.0,0.0,0.0,0.0,0.0,0.0,0.0,0.0,0.0,0.0,0.0,0.0,0.0,0.0,0.0,0.0,-5.8274,-5.8274,-5.8274,-5.8274,-5.8274,-5.8274,-5.8274,-5.8274,-5.8274,-5.8459,0.0,0.0,0.0,0.0,0.0,0.0,0.0,0.0,0.0,0.0,0.0,0.0,0.0,0.0,0.0,0.0,0.0,0.0,0.0,0.0,0.0,0.0,0.0,0.0,0.0,0.0,0.0,0.0,-6.274,-6.2807,-6.3035,0.0,0.0,0.0,0.0,0.0,0.0,0.0,0.0,0.0,0.0,-6.3492,-6.3804,-6.4975,-6.5944,-6.6391,-6.7664,-6.8554,-6.8554,-6.8744,-6.8929,-6.8929,0.0,0.0,0.0,0.0,0.0,0.0,0.0,0.0,0.0,0.0,0.0,0.0,0.0,0.0,0.0,0.0,0.0,0.0,0.0,0.0,0.0,0.0,0.0,0.0,0.0,0.0,0.0,0.0,0.0,0.0,0.0,0.0,0.0,0.0,0.0,0.0,0.0,0.0,0.0,0.0,0.0,0.0,0.0,0.0,0.0,0.0,0.0,0.0,0.0,0.0,0.0,0.0,0.0,0.0,-5.8274,-5.8274,-5.8274,-5.8274,-5.8274,-5.8274,-5.8274,-5.8274,-5.8669,-5.9499,0.0,0.0,0.0,0.0,0.0,0.0,0.0,0.0,0.0,0.0,0.0,0.0,0.0,0.0,0.0,0.0,0.0,0.0,0.0,0.0,0.0,0.0,0.0,0.0,0.0,0.0,-6.3653,-6.3547,-6.378,0.0,0.0,0.0,0.0,0.0,0.0,0.0,0.0,0.0,0.0,-6.3547,-6.3896,-6.4599,-6.5779,-6.6591,-6.6627,-6.7841,-6.8735,-6.8697,-6.8846,-6.9027,0.0,0.0,0.0,0.0,0.0,0.0,0.0,0.0,0.0,0.0,0.0,0.0,0.0,0.0,0.0,0.0,0.0,0.0,0.0,0.0,0.0,0.0,0.0,0.0,0.0,0.0,0.0,0.0,0.0,0.0,0.0,0.0,0.0,0.0,0.0,0.0,0.0,0.0,0.0,0.0,-5.7401,-5.7401,0.0,0.0,0.0,0.0,0.0,0.0,0.0,0.0,0.0,0.0,0.0,0.0,-5.8274,-5.8274,-5.8274,-5.8274,-5.8274,-5.8274,-5.8274,-5.8274,-5.8274,-5.8701,-5.9587,0.0,0.0,0.0,0.0,0.0,0.0,0.0,0.0,0.0,0.0,0.0,0.0,0.0,0.0,0.0,0.0,0.0,0.0,0.0,0.0,0.0,0.0,0.0,0.0,0.0,-6.4358,0.0,0.0,0.0,0.0,0.0,0.0,0.0,0.0,0.0,0.0,0.0,-6.3302,-6.3547,-6.4372,-6.5219,-6.5878,-6.6722,-6.7378,0.0,0.0,0.0,0.0,0.0,0.0,0.0,0.0,0.0,0.0,0.0,0.0,0.0,0.0,-7.0705,-7.0142,-7.0067,-7.0304,-7.1052,0.0,0.0,0.0,0.0,0.0,0.0,0.0,0.0,0.0,0.0,0.0,0.0,0.0,0.0,0.0,0.0,-4.9063,0.0,0.0,0.0,0.0,0.0,0.0,0.0,0.0,-5.6827,-5.7174,-5.7774,-5.7774,-5.809,0.0,-5.8814,-5.8782,0.0,0.0,0.0,0.0,0.0,0.0,0.0,0.0,-5.897,-5.897,-5.897,-5.897,-5.897,-5.897,-5.897,-5.897,-5.9676,-6.042,-6.1258,-6.2784,-6.3294,0.0,0.0,0.0,0.0,0.0,0.0,0.0,0.0,0.0,0.0,0.0,0.0,0.0,0.0,0.0,0.0,0.0,0.0,0.0,0.0,0.0,0.0,0.0,-6.4463,0.0,0.0,0.0,0.0,0.0,0.0,0.0,0.0,0.0,-6.3337,-6.3653,-6.3969,-6.3969,-6.476,-6.5533,-6.6186,0.0,0.0,0.0,0.0,0.0,0.0,0.0,-6.9132,-6.9447,-6.961,-6.9729,-7.0029,-7.0555,-7.1081,-7.1606,0.0,0.0,-7.1006,-7.093,-7.1131,-7.1882,-7.2453,-7.2762,-7.2434,-7.2776,-7.3042,0.0,0.0,0.0,0.0,0.0,0.0,0.0,0.0,-4.83,-4.9362,0.0,0.0,0.0,0.0,0.0,0.0,0.0,0.0,0.0,0.0,-5.695,-5.7387,-5.8266,-5.8297,-5.8736,0.0,-5.9815,-6.0009,-5.9946,-5.8908,0.0,0.0,0.0,0.0,0.0,0.0,-6.0297,-6.0265,-6.0265,-6.0265,-6.0265,-6.0265,-6.0297,-6.0361,-6.211,-6.3466,-6.4478,-6.5309,-6.5876,-6.5876,-6.5842,0.0,0.0,0.0,0.0,0.0,0.0,0.0,0.0,0.0,0.0,0.0,0.0,0.0,0.0,0.0,0.0,0.0,0.0,0.0,0.0,-6.4672,0.0,0.0,0.0,0.0,0.0,0.0,0.0,0.0,0.0,0.0,-6.4704,-6.4671,-6.4706,-6.4706,0.0,0.0,0.0,0.0,-6.6915,-6.7663,-6.8383,-6.9004,-6.902,-6.9191,-6.9573,-7.0405,0.0,0.0,-7.1606,-7.1757,-7.1757,-7.1794,-7.1869,-7.1794,-7.1832,-7.1794,-7.1794,-7.1832,-7.1952,-7.1832,-7.1794,-7.2071,-7.1989,-4.9033,0.0,0.0,0.0,0.0,-4.9331,-4.9912,-5.0626,-5.0763,-5.1361,-5.2598,-5.2704,0.0,0.0,0.0,0.0,0.0,0.0,-5.9186,-5.909,-5.8865,-5.9086,-5.9468,-5.9468,-5.9659,-6.0105,-6.0201,-6.0201,-6.0201,-5.9918,-5.9823,-6.0012,0.0,0.0,0.0,0.0,-6.0297,-6.0297,-6.0297,-6.0297,-6.0297,-6.0297,-6.0677,-6.1391,-6.3107,-6.4199,-6.4525,-6.5421,-6.5876,-6.5876,-6.5876,0.0,0.0,0.0,0.0,0.0,0.0,0.0,0.0,0.0,0.0,0.0,0.0,0.0,0.0,0.0,0.0,0.0,0.0,0.0,-6.4322,-6.4322,-6.4428,0.0,0.0,0.0,0.0,0.0,0.0,0.0,0.0,0.0,-6.4706,-6.5145,-6.5439,0.0,0.0,-6.6816,-6.7045,-6.7684,-6.8185,-6.8383,0.0,0.0,0.0,-7.0458,-7.0991,-7.1343,-7.1381,-7.1644,-7.2432,-7.2545,-7.277,-7.3371,-7.3484,-7.3484,-7.3446,-7.2958,-7.2808,-7.3296,-7.3484,-7.3484,-7.3484,-7.3484,-7.3484,-4.9603,-4.8979,-4.9331,-4.9467,-4.9494,-4.9847,-5.0628,-5.1674,-5.1674,-5.2537,-5.4038,-5.4303,-5.5245,-5.6511,-5.715,0.0,0.0,0.0,-5.9944,-5.9847,-5.9652,-5.9875,-6.0352,-6.0352,-6.0704,-6.115,-6.115,-6.115,-6.1119,-6.115,-6.115,0.0,0.0,0.0,-6.115,-6.115,-6.115,-6.115,-6.115,-6.115,-6.115,-6.115,-6.179,-6.3113,-6.4228,-6.5192,-6.5926,-6.647,-6.6773,-6.6773,-6.6773,-6.6738,0.0,0.0,0.0,0.0,0.0,0.0,0.0,0.0,0.0,0.0,0.0,-6.3673,0.0,0.0,0.0,0.0,-6.3858,-6.4002,-6.418,-6.4322,0.0,0.0,0.0,0.0,0.0,0.0,0.0,-6.4074,-6.4697,-6.5078,-6.5145,-6.6164,-6.6607,-6.5824,-6.6344,-6.7154,-6.8035,0.0,-6.9063,-6.9686,-7.0313,-7.0742,-7.0833,-7.1291,-7.1704,-7.2132,-7.2507,-7.2845,-7.3296,-7.3409,-7.3596,-7.4047,-7.4197,-7.4197,-7.4197,-7.3747,-7.3559,-7.4085,-7.4197,-7.4197,-7.4197,-7.4197,-7.4197,-5.0091,-5.0091,-5.0146,-5.0118,-5.001,-5.0064,-5.0822,-5.1868,-5.1924,-5.3319,-5.54,-5.6071,-5.7181,-5.8681,-5.982,0.0,0.0,-6.0101,-6.0035,-5.9808,-5.9808,-6.025,-6.1141,-6.1074,-6.1617,-6.2446,-6.2446,-6.2446,-6.2414,-6.2414,-6.2446,-6.2414,-6.1782,-6.1782,-6.2414,-6.2446,-6.2446,-6.2446,-6.2414,-6.2446,-6.2446,-6.2612,-6.3578,-6.5204,-6.547,-6.6339,-6.8004,-6.8083,-6.8083,-6.8083,-6.8083,-6.8083,-6.8049,0.0,0.0,0.0,0.0,0.0,0.0,0.0,0.0,0.0,0.0,0.0,0.0,0.0,0.0,0.0,-6.4462,0.0,-6.4389,-6.4638,0.0,0.0,0.0,-6.4917,-6.4917,-6.4882,-6.4882,-6.4882,0.0,0.0,0.0,0.0,-6.7949,-6.6137,-6.5967,-6.6837,-6.8877,-6.9236,-6.9753,-7.1182,-7.1537,-7.1658,-7.1749,-7.1944,-7.2282,-7.2921,-7.3672,-7.4085,-7.4122,-7.416,-7.4197,-7.4197,-7.4197,-7.4197,-7.4197,-7.416,-7.4197,-7.4197,-7.4197,-7.4197,-7.4197,-7.4197,-7.4197,-5.0688,-5.0743,-5.1204,-5.0851,-5.0064,-5.0498,-5.1878,-5.374,-5.4201,-5.5719,-5.7901,-5.8123,-5.8516,-5.9073,-5.9855,-6.0433,-6.076,-6.1263,-6.1613,-6.1743,-6.1743,-6.1806,-6.2063,-6.2094,-6.2189,-6.2446,-6.2446,-6.2446,-6.2446,-6.2446,-6.2446,-6.2414,-6.2256,-6.2256,-6.2446,-6.2446,-6.2446,-6.2446,-6.2446,-6.2446,-6.2414,-6.4571,-6.5559,-6.5293,-6.6711,-6.765,-6.8118,-6.8083,-6.8083,-6.8083,-6.8083,-6.8083,-6.8083,-6.7945,0.0,0.0,0.0,0.0,0.0,0.0,0.0,0.0,0.0,-6.5359,-6.5434,0.0,-6.54,0.0,-6.555,-6.5625,-6.5955,-6.6028,0.0,0.0,-6.6461,-6.6461,-6.6461,-6.6461,-6.6461,-6.6461,-6.6602,-6.6707,-6.6707,-6.7123,-6.7394,-6.7451,-6.8713,-6.9917,-7.0549,-7.0685,-7.0869,-7.149,-7.2154,-7.2537,-7.2658,-7.3183,-7.3634,-7.3859,-7.4085,-7.4197,-7.4197,-7.4197,-7.4197,-7.4197,-7.4197,-7.4197,-7.4197,-7.4197,-7.4197,-7.4197,-7.4197,-7.4197,-7.4197,-7.4197,-7.4197,-5.1312,-5.1339,-5.1692,-5.1448,-5.0851,-5.1724,-5.3163,-5.4807,-5.5694,-5.7139,-5.8793,-5.9201,-5.9711,-6.0121,-6.0594,-6.1052,-6.1451,-6.1828,-6.2116,-6.2446,-6.2446,-6.2446,-6.2446,-6.2446,-6.2446,-6.2446,-6.2446,-6.2446,-6.2446,-6.2446,-6.2446,-6.2446,-6.2446,-6.2446,-6.2446,-6.2446,-6.2612,-6.3068,-6.3516,-6.3705,-6.3768,-6.5293,-6.5995,-6.5995,-6.6962,-6.765,-6.8083,-6.8083,-6.8083,-6.8083,-6.8083,-6.8083,-6.8083,-6.8083,-6.8083,0.0,0.0,0.0,0.0,0.0,0.0,0.0,0.0,0.0,0.0,0.0,-6.5876,0.0,0.0,0.0,-6.6512,-6.6624,-6.6808,-6.6988,-6.6988,-6.6988,-6.6988,-6.6988,-6.6988,-6.6988,-6.7271,-6.7581,-6.7817,-6.8434,-6.9165,-6.9781,-7.1121,-7.1849,-7.1427,-7.164,-7.2032,-7.2632,-7.3137,-7.3484,-7.3484,-7.3897,-7.4197,-7.4197,-7.4197,-7.4197,-7.4197,-7.4197,-7.4197,-7.4197,-7.4197,-7.4197,-7.4197,-7.4197,-7.4197,-7.4197,-7.4197,-7.4197,-7.4197,-7.4197,-7.4197,-5.1936,-5.1936,-5.2018,-5.2045,-5.2162,-5.3469,-5.4623,-5.5525,-5.6822,-5.7958,-5.907,-5.9858,-6.0546,-6.1206,-6.141,-6.1714,-6.1916,-6.2016,-6.2179,-6.2572,-6.2572,-6.2604,-6.2699,-6.2699,-6.2699,-6.2699,-6.2699,-6.2699,-6.2699,-6.2699,-6.2699,-6.2699,-6.2699,-6.2699,-6.2699,-6.2699,-6.2967,-6.3705,-6.4786,-6.5204,-6.5114,-6.547,-6.5995,-6.6677,-6.6795,-6.7325,-6.8004,-6.8083,-6.8083,-6.8083,-6.8083,-6.8083,-6.8083,-6.8083,-6.8083,0.0,-6.8083,0.0,0.0,0.0,0.0,0.0,0.0,0.0,0.0,-6.6152,-6.6186,-6.6152,-6.6566,-6.6791,-6.6791,-6.705,-6.7304,-6.7304,-6.7339,-6.7304,-6.7304,-6.7304,-6.7304,-6.7339,-6.7831,-6.8404,-6.8958,-7.0181,-7.1207,-7.1618,-7.2354,-7.2573,-7.2055,-7.2309,-7.3089,-7.4076,-7.4197,-7.4085,-7.4122,-7.416,-7.4197,-7.4197,-7.4197,-7.4197,-7.4197,-7.4197,-7.4197,-7.4197,-7.431,-7.4385,-7.4347,-7.446,-7.4535,-7.4648,-7.4648,-7.4535,-7.4272,-7.4197,-7.4197,-5.2533,-5.2588,-5.3076,-5.3266,-5.3479,-5.5623,-5.6326,-5.6223,-5.7951,-5.932,-6.0424,-6.065,-6.0774,-6.0897,-6.1103,-6.141,-6.1683,-6.1916,-6.2431,-6.3299,-6.3299,-6.3584,-6.4089,-6.4121,-6.4121,-6.4121,-6.4121,-6.4121,-6.4121,-6.4121,-6.4121,-6.4121,-6.4121,-6.4121,0.0,0.0,0.0,0.0,-6.442,-6.4934,-6.4268,-6.6457,-6.7291,-6.6795,-6.7488,0.0,-6.8083,-6.8083,-6.8083,-6.8083,-6.8083,0.0,0.0,0.0,0.0,0.0,0.0,0.0,0.0,0.0,0.0,0.0,-6.7842,-6.7669,-6.7669,-6.7669,-6.7669,-6.7669,-6.7904,-6.8135,-6.8287,-6.8548,-6.8772,-6.8919,-6.8919,-6.8919,-6.8954,-6.8919,-6.8919,-6.8919,-6.9065,-6.9175,-6.9389,-6.9601,-7.002,-7.0879,-7.1464,-7.2102,-7.2521,-7.309,-7.3725,-7.4151,-7.4197,-7.4197,-7.4197,-7.4197,-7.4197,-7.4197,-7.4197,-7.4235,-7.4235,-7.4272,-7.4235,-7.4272,-7.4723,-7.5173,-7.5173,-7.5699,-7.6037,-7.615,-7.6112,-7.5774,-7.4498,-7.4197,-7.4197,-5.3158,0.0,-5.3483,-5.3592,0.0,0.0,-5.7013,-5.6863,-5.8967,-6.0241,-6.0794,-6.0794,-6.0978,-6.1286,-6.1421,-6.1919,-6.2612,-6.2746,-6.3241,-6.3994,-6.3994,-6.4184,-6.45,-6.45,-6.45,-6.45,-6.45,-6.45,-6.45,-6.45,-6.45,-6.45,-6.45,-6.45,-6.45,-6.45,-6.4625,-6.493,-6.6801,-6.7622,-6.7188,-6.85,-6.9026,-6.8583,0.0,0.0,0.0,0.0,0.0,0.0,0.0,0.0,0.0,0.0,0.0,-6.8083,-6.8083,-6.8083,-6.8083,-6.8083,-6.8083,-6.8083,-6.8083,-6.8083,-6.8083,-6.8083,-6.8162,-6.8241,-6.8397,-6.8628,-6.8892,-6.9153,-6.9302,-6.9376,-6.9376,-6.9376,-6.9376,-6.9376,-6.9376,-6.9376,-6.9376,-6.9633,-7.0303,-7.0407,-7.0806,-7.1696,-7.2291,-7.2724,-7.3193,-7.3678,-7.3961,-7.4151,-7.4197,-7.4197,-7.4197,-7.4197,-7.4197,-7.4235,-7.4535,-7.476,-7.4798,-7.5136,-7.5399,-7.5399,-7.5774,-7.6037,-7.6075,-7.6413,-7.6638,-7.6638,-7.6638,-7.645,-7.5549,-7.5399,-7.5399,-5.3592,-5.3592,-5.3592,-5.3646,-5.3997,-5.6365,-5.7644,-5.832,0.0,0.0,0.0,-6.1163,-6.1471,-6.1963,-6.1994,-6.2619,-6.3672,-6.3808,-6.4079,-6.469,-6.469,-6.4753,-6.4879,-6.4879,-6.4879,-6.4879,-6.4879,-6.4879,-6.4879,-6.4879,-6.4911,-6.4879,-6.4879,-6.4982,-6.5155,-6.5326,-6.629,-6.8061,-6.9252,-6.9947,-7.0113,-7.0312,-7.0394,-7.0394,-7.0394,-7.0118,-6.9497,-6.9463,-6.9153,-6.8532,-6.8497,-6.8497,-6.8497,-6.8394,-6.829,-6.829,-6.8152,-6.8083,-6.8083,-6.8083,-6.8083,-6.8083,-6.8083,-6.8083,-6.8083,-6.8083,-6.8162,-6.8397,-6.8628,-6.8781,-6.9078,-6.9302,-6.9376,-6.9376,-6.9376,-6.9376,-6.9376,-6.9376,-6.9376,-6.9376,-6.9522,-6.9956,-7.0937,-7.1259,-7.1818,-7.2871,-7.3141,-7.3578,-7.3777,-7.3923,-7.4056,-7.4151,-7.4197,-7.4235,-7.4385,-7.446,-7.446,-7.476,-7.5249,-7.5587,-7.5737,-7.6187,-7.6563,-7.6488,-7.6751,-7.6901,-7.6938,-7.7126,-7.7089,-7.7051,-7.7089,-7.7126,-7.7051,-7.7051,-7.6938,-5.3592,-5.3592,-5.3592,-5.389,-5.4597,-5.6992,-5.9592,-6.1889,-6.1796,-6.1994,-6.2517,-6.2548,-6.2579,-6.2671,-6.2884,-6.3295,-6.3704,-6.3881,-6.4506,0.0,-6.5416,-6.5732,-6.6301,-6.6333,-6.6301,-6.6301,-6.6301,-6.6301,-6.6301,-6.6301,-6.6301,-6.6301,-6.6301,-6.6656,-6.7612,-6.8438,-6.9523,-7.0569,-6.8875,-6.8328,-6.9203,-7.0031,-7.0394,-7.0394,-7.0394,-7.036,-7.0222,-7.0222,-7.0187,-7.0084,-7.0049,-7.0049,-7.0049,-6.9463,-6.9118,-6.9084,-6.8463,-6.8083,-6.8083,-6.8083,-6.8083,-6.8083,-6.8083,-6.8083,-6.8083,-6.8083,-6.8162,-6.8397,-6.8628,-6.8816,-6.9078,-6.9302,-6.9376,-6.9376,-6.9376,-6.9376,-6.9376,-6.9376,-6.9376,-6.9376,-6.9956,-7.027,-7.0575,-7.1067,-7.1732,-7.2386,-7.3111,-7.332,-7.4073,-7.4151,-7.4151,-7.4197,-7.4197,-7.4498,-7.5061,-7.5211,-7.5474,-7.6187,-7.63,-7.645,-7.6488,-7.6713,-7.6863,-7.6675,-7.7276,-7.7652,-7.7727,-7.8328,-7.8515,-7.8553,-7.8553,-7.859,-7.8553,-7.8553,-7.8215,-5.408,-5.4134,-5.4433,-5.5074,-5.6242,-5.8668,-6.1117,-6.321,-6.3041,-6.2856,-6.2825,-6.2825,-6.301,-6.3349,-6.3456,-6.3995,-6.4764,-6.4902,-6.5376,-6.6112,-6.6112,-6.6301,-6.6586,-6.6586,-6.6586,-6.6586,-6.6586,-6.6586,-6.6586,-6.6586,-6.6586,-6.6586,-6.6586,-6.6796,-6.7253,-6.7733,-6.8765,-7.0289,-7.0321,-7.0512,-7.0977,-7.1435,-7.1636,-7.1636,-7.1636,-7.1429,-7.0981,-7.0981,-7.0808,-7.0394,-7.0394,-7.0394,-7.0394,-7.0049,-6.9877,-6.9877,-6.9532,-6.9325,-6.9325,-6.9325,-6.9325,-6.936,-6.936,-6.9325,-6.9325,-6.8566,-6.8241,-6.8551,-6.8628,-6.8857,-6.9227,-6.9376,-6.9376,-6.9376,-6.9376,-6.9376,-6.9376,-6.9376,-6.9376,-6.9449,-6.9633,-7.0026,-7.0371,-7.1002,-7.1853,-7.2878,-7.385,-7.4858,-7.5379,-7.5511,-7.5324,-7.5023,-7.5249,-7.5624,-7.6,-7.6037,-7.6225,-7.66,-7.7013,-7.7276,-7.7389,-7.7614,-7.7952,-7.799,-7.8328,-7.8515,-7.8515,-7.8816,-7.9079,-7.9116,-7.9116,-7.9116,-7.9116,-7.9116,-7.8816,-5.4704,-5.4731,-5.5566,-5.6743,-5.8513,-6.0521,-6.2405,-6.4057,-6.4057,-6.3779,-6.3318,-6.3287,-6.3595,-6.4026,-6.4057,-6.4661,-6.5669,-6.57,-6.6023,-6.6617,-6.6586,-6.6586,-6.6586,-6.6586,-6.6586,-6.6586,-6.6586,-6.6586,-6.6586,-6.6586,-6.6586,-6.6586,-6.6586,-6.6796,-6.7253,-6.7078,-6.8004,-7.0163,-7.162,-7.2501,-7.2671,-7.2671,-7.2671,-7.2671,-7.2671,-7.2395,-7.1808,-7.1774,-7.1498,-7.0946,-7.0912,-7.0912,-7.0877,-7.0739,-7.0636,-7.0636,-7.0498,-7.0394,-7.0394,-7.0394,-7.0394,-7.0394,-7.0394,-7.0394,-7.0291,-6.9405,-6.8838,-6.915,-6.9296,-6.945,-6.9898,-6.9972,-6.9902,-6.9902,-6.9902,-7.0007,-6.9937,-6.9902,-6.9902,-6.9902,-7.0162,-7.07,-7.1179,-7.1865,-7.2921,-7.4162,-7.5432,-7.6269,-7.6552,-7.6751,-7.66,-7.6262,-7.6413,-7.6713,-7.6826,-7.6901,-7.7013,-7.7089,-7.7727,-7.8102,-7.8253,-7.8703,-7.9004,-7.9004,-7.9041,-7.9041,-7.9079,-7.9116,-7.9116,-7.9116,-7.9116,-7.9116,-7.9116,-7.9116,-7.9079,-5.5328,-5.5578,-5.6687,-5.8835,-6.1426,-6.2336,-6.3464,-6.4654,-6.4764,-6.4764,-6.4641,-6.4703,-6.4703,-6.4795,-6.4795,-6.5125,-6.57,-6.57,-6.6054,-6.6586,-6.6586,-6.6586,-6.6586,-6.6586,-6.6586,-6.6586,-6.6586,-6.6586,-6.6586,-6.6586,-6.6586,-6.6586,-6.6586,-6.7459,-6.896,-6.8371,-6.9409,-7.2296,-7.1742,-7.1742,-7.2671,-7.2671,-7.2671,-7.2671,-7.2671,-7.2636,-7.2533,-7.2567,-7.2533,-7.2464,-7.2429,-7.2429,-7.236,-7.1774,-7.1394,-7.136,-7.0774,-7.0394,-7.0394,-7.0394,-7.0463,-7.0394,-7.0463,-7.0463,-7.0463,-7.0453,-7.0555,-7.0714,-7.0793,-7.0845,-7.1406,-7.1412,-7.1342,-7.1271,-7.1342,-7.1482,-7.1377,-7.1482,-7.1482,-7.1517,-7.2228,-7.3363,-7.3248,-7.4226,-7.5328,-7.5708,-7.6304,-7.6743,-7.689,-7.7389,-7.7727,-7.7502,-7.7201,-7.7126,-7.7577,-7.7764,-7.799,-7.859,-7.8853,-7.8891,-7.8928,-7.8966,-7.9116,-7.9116,-7.9116,-7.9116,-7.9116,-7.9116,-7.9116,-7.9116,-7.9116,-7.9116,-7.9116,-7.9116,-7.9116,-5.6401,-5.7148,-5.7948,-6.0023,-6.2426,-6.3668,-6.4412,-6.4888,-6.4888,-6.4888,-6.4888,-6.4888,-6.4888,-6.4888,-6.5108,-6.5297,-6.57,-6.5947,-6.6192,-6.6617,-6.6586,-6.6586,-6.6586,-6.6586,-6.6586,-6.6586,-6.6586,-6.6586,-6.6586,-6.6586,-6.6586,-6.6586,-6.6586,-6.6974,-6.7834,-6.8004,-6.9024,-7.0748,-7.1086,-7.1654,-7.2586,-7.2671,-7.2671,-7.2671,-7.2671,-7.2671,-7.2671,-7.2671,-7.2671,-7.2671,-7.2671,-7.2671,-7.2671,-7.236,-7.2188,-7.2153,-7.1912,-7.1739,-7.1739,-7.1739,-7.1739,-7.1739,-7.1739,-7.1739,-7.1739,-7.1905,-7.2151,-7.2209,-7.1673,-7.1385,-7.1651,-7.1693,-7.1693,-7.1693,-7.1693,-7.1728,-7.1693,-7.1728,-7.1693,-7.1769,-7.2183,-7.2762,-7.3317,-7.4872,-7.6199,-7.6924,-7.7428,-7.7879,-7.8053,-7.8403,-7.8553,-7.8553,-7.829,-7.8253,-7.8553,-7.859,-7.8778,-7.9004,-7.9116,-7.9116,-7.9116,-7.9116,-7.9116,-7.9116,-7.9116,-7.9116,-7.9116,-7.9116,-7.9116,-7.9116,-7.9116,-7.9116,-7.9116,-7.9116,-7.9116,-5.7633,-5.8502,-5.9635,-6.1377,-6.3532,-6.4524,-6.4888,-6.4888,-6.4888,-6.4888,-6.4888,-6.4888,-6.4888,-6.4888,-6.5108,-6.5297,-6.5592,-6.5947,-6.6192,-6.6512,-6.6617,-6.6586,-6.6586,-6.6586,-6.6586,-6.6586,-6.6586,-6.6586,-6.6586,-6.6586,-6.6586,-6.6586,-6.6586,-6.6901,-6.7459,-6.8004,-6.8863,-7.0381,-7.0996,-7.1654,-7.2586,-7.2671,-7.2671,-7.2671,-7.2671,-7.2671,-7.2671,-7.2671,-7.2671,-7.2671,-7.2671,-7.2671,-7.2671,-7.2671,-7.2671,-7.2671,-7.2671,-7.2671,-7.2671,-7.2671,-7.2671,-7.2671,-7.2671,-7.2671,-7.2755,-7.2922,-7.317,-7.3229,-7.2564,-7.224,-7.2248,-7.2325,-7.2325,-7.2325,-7.2325,-7.2325,-7.2395,-7.236,-7.2437,-7.2594,-7.3148,-7.3226,-7.4266,-7.5909,-7.7255,-7.7782,-7.8452,-7.8929,-7.9066,-7.9079,-7.9079,-7.9116,-7.9079,-7.9079,-7.9116,-7.9041,-7.9116,-7.9116,-7.9116,-7.9116,-7.9116,-7.9116,-7.9116,-7.9116,-7.9116,-7.9116,-7.9116,-7.9116,-7.9116,-7.9116,-7.9116,-7.9116,-7.9116,-7.9116,-7.9116,-5.894,-5.9408,-6.1704,-6.3418,-6.4777,-6.4888,-6.4888,-6.4888,-6.4888,-6.4888,-6.4888,-6.4888,-6.4888,-6.4888,-6.4888,-6.5108,-6.5297,-6.5623,-6.5947,-6.6299,-6.6512,-6.6586,-6.6586,-6.6586,-6.6586,-6.6586,-6.6586,-6.6586,-6.6586,-6.6586,-6.6586,-6.6586,-6.6586,-6.7561,-6.8765,-6.847,-6.9599,-7.183,-7.1566,-7.1742,-7.2586,-7.2671,-7.2671,-7.2671,-7.2671,-7.2671,-7.2671,-7.2671,-7.2671,-7.2671,-7.2671,-7.2671,-7.2671,-7.2671,-7.2671,-7.2671,-7.2671,-7.2671,-7.2671,-7.2671,-7.2671,-7.2671,-7.2671,-7.2671,-7.2755,-7.3088,-7.3334,-7.3299,-7.3597,-7.3729,-7.3729,-7.3624,-7.3694,-7.3729,-7.3799,-7.3764,-7.3834,-7.3659,-7.4223,-7.4684,-7.5083,-7.5865,-7.7488,-7.8329,-7.8416,-7.8611,-7.8878,-7.9079,-7.9116,-7.9116,-7.9116,-7.9116,-7.9116,-7.9116,-7.9116,-7.9116,-7.9116,-7.9116,-7.9116,-7.9116,-7.9116,-7.9116,-7.9116,-7.9116,-7.9116,-7.9116,-7.9116,-7.9116,-7.9116,-7.9116,-7.9116,-7.9116,-7.9116,-7.9116,-7.9116,-6.0051,-6.1733,-6.3418,-6.4524,-6.4888,-6.4888,-6.4888,-6.4888,-6.4888,-6.4888,-6.4888,-6.4888,-6.4888,-6.4888,-6.4888,-6.4998,-6.5297,-6.5839,-6.6085,-6.6192,-6.6512,-6.6586,-6.6586,-6.6586,-6.6586,-6.6586,-6.6586,-6.6586,-6.6586,-6.6586,-6.6586,-6.6586,-6.6586,-6.6974,-6.7733,-6.8667,-6.9694,-7.0657,-7.1532,-7.2296,-7.2671,-7.2671,-7.2671,-7.2671,-7.2671,-7.2671,-7.2671,-7.2671,-7.2671,-7.2671,-7.2671,-7.2671,-7.2671,-7.2671,-7.2671,-7.2671,-7.2671,-7.2671,-7.2671,-7.2671,-7.2671,-7.2671,-7.2838,-7.2922,-7.3005,-7.3252,-7.3577,-7.3612,-7.3852,-7.401,-7.401,-7.401,-7.401,-7.401,-7.401,-7.401,-7.401,-7.401,-7.4132,-7.4482,-7.5335,-7.6526,-7.7555,-7.8257,-7.8708,-7.8812,-7.9016,-7.9116,-7.9116,-7.9116,-7.9116,-7.9116,-7.9116,-7.9116,-7.9116,-7.9116,-7.9116,-7.9116,-7.9116,-7.9116,-7.9116,-7.9116,-7.9116,-7.9116,-7.9116,-7.9116,-7.9116,-7.9116,-7.9116,-7.9116,-7.9116,-7.9116,-7.9116,-7.9116,-7.9116,-6.1615,-6.3532,-6.4524,-6.4888,-6.4888,-6.4888,-6.4888,-6.4888,-6.4888,-6.4888,-6.4888,-6.4888,-6.4888,-6.4888,-6.4888,-6.5108,-6.5297,-6.5839,-6.6085,-6.6192,-6.6512,-6.6586,-6.6586,-6.6586,-6.6586,-6.6586,-6.6586,-6.6586,-6.6586,-6.6586,-6.6586,-6.6586,-6.6586,-6.6796,-6.7356,-6.8765,-6.9694,-7.0381,-7.183,-7.2671,-7.2671,-7.2671,-7.2671,-7.2671,-7.2671,-7.2671,-7.2671,-7.2671,-7.2671,-7.2671,-7.2671,-7.2671,-7.2671,-7.2671,-7.2671,-7.2671,-7.2671,-7.2671,-7.2671,-7.2671,-7.2671,-7.2671,-7.2922,-7.3005,-7.3005,-7.3415,-7.3692,-7.3772,-7.3852,-7.401,-7.401,-7.401,-7.401,-7.401,-7.401,-7.401,-7.401,-7.401,-7.4287,-7.4861,-7.6063,-7.7034,-7.7673,-7.8312,-7.8708,-7.8915,-7.8979,-7.9116,-7.9116,-7.9116,-7.9116,-7.9116,-7.9116,-7.9116,-7.9116,-7.9116,-7.9116,-7.9116,-7.9116,-7.9116,-7.9116,-7.9116,-7.9116,-7.9116,-7.9116,-7.9116,-7.9116,-7.9116,-7.9116,-7.9116,-7.9116,-7.9116,-7.9116,-7.9116,-7.9116,-6.3645,-6.4777,-6.4888,-6.4888,-6.4888,-6.4888,-6.4888,-6.4888,-6.4888,-6.4888,-6.4888,-6.4888,-6.4888,-6.4888,-6.4888,-6.5108,-6.5406,-6.5592,-6.5947,-6.6192,-6.6512,-6.6617,-6.6586,-6.6586,-6.6586,-6.6586,-6.6586,-6.6586,-6.6586,-6.6586,-6.6586,-6.6586,-6.6691,-6.7149,-6.8104,-6.9121,-7.0196,-7.1086,-7.2124,-7.2671,-7.2671,-7.2671,-7.2671,-7.2671,-7.2671,-7.2671,-7.2671,-7.2671,-7.2671,-7.2671,-7.2671,-7.2671,-7.2671,-7.2671,-7.2671,-7.2671,-7.2671,-7.2671,-7.2671,-7.2671,-7.2671,-7.2755,-7.2922,-7.3005,-7.3088,-7.3415,-7.3772,-7.3772,-7.3931,-7.401,-7.401,-7.401,-7.401,-7.401,-7.401,-7.401,-7.401,-7.401,-7.4522,-7.579,-7.7009,-7.8221,-7.8441,-7.8602,-7.876,-7.8915,-7.9016,-7.9116,-7.9116,-7.9116,-7.9116,-7.9116,-7.9116,-7.9116,-7.9116,-7.9116,-7.9116,-7.9116,-7.9116,-7.9116,-7.9116,-7.9116,-7.9116,-7.9116,-7.9116,-7.9116,-7.9116,-7.9116,-7.9116,-7.9116,-7.9116,-7.9116,-7.9116,-7.9116,-7.9116,-6.3676,-6.4888,-6.4888,-6.4888,-6.4888,-6.4888,-6.4888,-6.4888,-6.4888,-6.4888,-6.4888,-6.4888,-6.4888,-6.4888,-6.4888,-6.5187,-6.5592,-6.57,-6.5839,-6.6192,-6.6512,-6.6586,-6.6586,-6.6586,-6.6586,-6.6586,-6.6586,-6.6586,-6.6586,-6.6586,-6.6586,-6.6691,-6.7253,-6.7802,-6.8172,-6.9822,-7.0906,-7.13,-7.221,-7.2671,-7.2671,-7.2671,-7.2671,-7.2671,-7.2671,-7.2671,-7.2671,-7.2671,-7.2671,-7.2671,-7.2671,-7.2671,-7.2671,-7.2671,-7.2671,-7.2671,-7.2671,-7.2671,-7.2671,-7.2671,-7.2671,-7.2755,-7.3005,-7.317,-7.3252,-7.3692,-7.3931,-7.3931,-7.401,-7.401,-7.401,-7.401,-7.401,-7.401,-7.401,-7.401,-7.401,-7.4088,-7.4673,-7.579,-7.6526,-7.7255,-7.8294,-7.8708,-7.876,-7.9016,-7.9066,-7.9116,-7.9116,-7.9116,-7.9116,-7.9116,-7.9116,-7.9116,-7.9116,-7.9116,-7.9116,-7.9116,-7.9116,-7.9116,-7.9116,-7.9116,-7.9116,-7.9116,-7.9116,-7.9116,-7.9116,-7.9116,-7.9116,-7.9116,-7.9116,-7.9116,-7.9116,-7.9116,-7.9116,-6.4127,-6.4888,-6.4888,-6.4888,-6.4888,-6.4888,-6.4888,-6.4888,-6.4888,-6.4888,-6.4888,-6.4888,-6.4888,-6.4888,-6.4998,-6.5187,-6.5592,-6.57,-6.5978,-6.6192,-6.6512,-6.6617,-6.6586,-6.6586,-6.6586,-6.6586,-6.6586,-6.6586,-6.6586,-6.6586,-6.6586,-6.6796,-6.7631,-6.8072,-6.8271,-7.0136,-7.121,-7.1389,-7.221,-7.2671,-7.2671,-7.2671,-7.2671,-7.2671,-7.2671,-7.2671,-7.2671,-7.2671,-7.2671,-7.2671,-7.2671,-7.2671,-7.2671,-7.2671,-7.2671,-7.2671,-7.2671,-7.2671,-7.2671,-7.2671,-7.2671,-7.2755,-7.3088,-7.3299,-7.3415,-7.3772,-7.401,-7.401,-7.401,-7.401,-7.401,-7.401,-7.401,-7.401,-7.401,-7.401,-7.4088,-7.4446,-7.5046,-7.6063,-7.6656,-7.7496,-7.8349,-7.8708,-7.8812,-7.9016,-7.9116,-7.9116,-7.9116,-7.9116,-7.9116,-7.9116,-7.9116,-7.9116,-7.9116,-7.9116,-7.9116,-7.9116,-7.9116,-7.9116,-7.9116,-7.9116,-7.9116,-7.9116,-7.9116,-7.9116,-7.9116,-7.9116,-7.9116,-7.9116,-7.9116,-7.9116,-7.9116,-7.9116,-7.9116,-6.4888,-6.4888,-6.4888,-6.4888,-6.4888,-6.4888,-6.4888,-6.4888,-6.4888,-6.4888,-6.4888,-6.4888,-6.4888,-6.4998,-6.5077,-6.5297,-6.5406,-6.587,-6.6192,-6.6299,-6.6512,-6.6586,-6.6586,-6.6586,-6.6586,-6.6586,-6.6586,-6.6586,-6.6586,-6.6586,-6.6586,-6.6901,-6.7802,-6.8271,-6.8863,-7.0415,-7.1389,-7.1566,-7.2296,-7.2671,-7.2671,-7.2671,-7.2671,-7.2671,-7.2671,-7.2671,-7.2671,-7.2671,-7.2671,-7.2671,-7.2671,-7.2671,-7.2671,-7.2671,-7.2671,-7.2671,-7.2671,-7.2671,-7.2671,-7.2671,-7.2671,-7.2755,-7.3088,-7.3334,-7.3415,-7.3737,-7.401,-7.401,-7.401,-7.401,-7.401,-7.401,-7.401,-7.401,-7.401,-7.401,-7.4209,-7.5191,-7.579,-7.633,-7.7316,-7.8332,-7.8602,-7.8708,-7.8812,-7.9016,-7.9116,-7.9116,-7.9116,-7.9116,-7.9116,-7.9116,-7.9116,-7.9116,-7.9116,-7.9116,-7.9116,-7.9116,-7.9116,-7.9116,-7.9116,-7.9116,-7.9116,-7.9116,-7.9116,-7.9116,-7.9116,-7.9116,-7.9116,-7.9116,-7.9116,-7.9116,-7.9116,-7.9116,-7.9116,-6.4888,-6.4888,-6.4888,-6.4888,-6.4888,-6.4888,-6.4888,-6.4888,-6.4888,-6.4888,-6.4888,-6.4888,-6.4888,-6.4888,-6.5187,-6.5406,-6.5623,-6.5978,-6.6299,-6.6512,-6.6512,-6.6617,-6.6586,-6.6586,-6.6586,-6.6586,-6.6586,-6.6586,-6.6586,-6.6691,-6.6974,-6.7701,-6.8667,-6.9633,-7.0507,-7.1566,-7.221,-7.2296,-7.2501,-7.2671,-7.2671,-7.2671,-7.2671,-7.2671,-7.2671,-7.2671,-7.2671,-7.2671,-7.2671,-7.2671,-7.2671,-7.2671,-7.2671,-7.2671,-7.2671,-7.2671,-7.2671,-7.2671,-7.2671,-7.2671,-7.2671,-7.2755,-7.3088,-7.3334,-7.3334,-7.3737,-7.401,-7.401,-7.401,-7.401,-7.401,-7.401,-7.401,-7.401,-7.4088,-7.4287,-7.4673,-7.5155,-7.5757,-7.672,-7.7292,-7.792,-7.8458,-7.8708,-7.8812,-7.9016,-7.9116,-7.9116,-7.9116,-7.9116,-7.9116,-7.9116,-7.9116,-7.9116,-7.9116,-7.9116,-7.9116,-7.9116,-7.9116,-7.9116,-7.9116,-7.9116,-7.9116,-7.9116,-7.9116,-7.9116,-7.9116,-7.9116,-7.9116,-7.9116,-7.9116,-7.9116,-7.9116,-7.9116,-7.9116,-6.4888,-6.4888,-6.4888,-6.4888,-6.4888,-6.4888,-6.4888,-6.4888,-6.4888,-6.4888,-6.4888,-6.4888,-6.4888,-6.4888,-6.5297,-6.5483,-6.5592,-6.6054,-6.6406,-6.6406,-6.6512,-6.6617,-6.6586,-6.6586,-6.6586,-6.6586,-6.6586,-6.6586,-6.6691,-6.6974,-6.7529,-6.8271,-6.9537,-7.0599,-7.1086,-7.221,-7.2671,-7.2671,-7.2671,-7.2671,-7.2671,-7.2671,-7.2671,-7.2671,-7.2671,-7.2671,-7.2671,-7.2671,-7.2671,-7.2671,-7.2671,-7.2671,-7.2671,-7.2671,-7.2671,-7.2671,-7.2671,-7.2755,-7.2838,-7.2838,-7.2838,-7.3005,-7.3252,-7.3415,-7.3496,-7.3852,-7.401,-7.401,-7.401,-7.401,-7.401,-7.401,-7.401,-7.4088,-7.4287,-7.4633,-7.5082,-7.5688,-7.6264,-7.7009,-7.7533,-7.7977,-7.8655,-7.8708,-7.8864,-7.9066,-7.9116,-7.9116,-7.9116,-7.9116,-7.9116,-7.9116,-7.9116,-7.9116,-7.9116,-7.9116,-7.9116,-7.9116,-7.9116,-7.9116,-7.9116,-7.9116,-7.9116,-7.9116,-7.9116,-7.9116,-7.9116,-7.9116,-7.9116,-7.9116,-7.9116,-7.9116,-7.9116,-7.9116,-7.9116,-6.4888,-6.4888,-6.4888,-6.4888,-6.4888,-6.4888,-6.4888,-6.4888,-6.4888,-6.4888,-6.4888,-6.4888,-6.4888,-6.4918,-6.5406,-6.5592,-6.5406,-6.6161,-6.6406,-6.6406,-6.6512,-6.6586,-6.6586,-6.6586,-6.6586,-6.6586,-6.6691,-6.6796,-6.7181,-6.7802,-6.8371,-6.896,-7.0415,-7.1176,-7.1566,-7.2296,-7.2671,-7.2671,-7.2671,-7.2671,-7.2671,-7.2671,-7.2671,-7.2671,-7.2671,-7.2671,-7.2671,-7.2671,-7.2671,-7.2671,-7.2671,-7.2671,-7.2671,-7.2671,-7.2671,-7.2671,-7.2671,-7.2755,-7.2922,-7.3005,-7.3088,-7.3252,-7.3496,-7.3692,-7.3692,-7.3852,-7.401,-7.401,-7.401,-7.401,-7.401,-7.401,-7.401,-7.4132,-7.4673,-7.5155,-7.5406,-7.6432,-7.7194,-7.7316,-7.8034,-7.8458,-7.8708,-7.8812,-7.8966,-7.9066,-7.9116,-7.9116,-7.9116,-7.9116,-7.9116,-7.9116,-7.9116,-7.9116,-7.9116,-7.9116,-7.9116,-7.9116,-7.9116,-7.9116,-7.9116,-7.9116,-7.9116,-7.9116,-7.9116,-7.9116,-7.9116,-7.9116,-7.9116,-7.9116,-7.9116,-7.9116,-7.9116,-7.9116,-7.9116,-6.4888,-6.4888,-6.4888,-6.4888,-6.4888,-6.4888,-6.4888,-6.4888,-6.4888,-6.4888,-6.4888,-6.4888,-6.4888,-6.4918,-6.5406,-6.57,-6.57,-6.6268,-6.6512,-6.6512,-6.6512,-6.6586,-6.6586,-6.6586,-6.6586,-6.6796,-6.7427,-6.7701,-6.8004,-6.8765,-6.9727,-7.0507,-7.0906,-7.1566,-7.2296,-7.2501,-7.2671,-7.2671,-7.2671,-7.2671,-7.2671,-7.2671,-7.2671,-7.2671,-7.2671,-7.2671,-7.2671,-7.2671,-7.2671,-7.2671,-7.2671,-7.2671,-7.2671,-7.2671,-7.2671,-7.2671,-7.2671,-7.2755,-7.3005,-7.3005,-7.3088,-7.3334,-7.3577,-7.3692,-7.3692,-7.3931,-7.401,-7.401,-7.401,-7.401,-7.401,-7.401,-7.4088,-7.4329,-7.5119,-7.5859,-7.6063,-7.6656,-7.7413,-7.792,-7.8294,-7.8549,-7.8708,-7.8812,-7.8966,-7.9066,-7.9116,-7.9116,-7.9116,-7.9116,-7.9116,-7.9116,-7.9116,-7.9116,-7.9116,-7.9116,-7.9116,-7.9116,-7.9116,-7.9116,-7.9116,-7.9116,-7.9116,-7.9116,-7.9116,-7.9116,-7.9116,-7.9116,-7.9116,-7.9116,-7.9116,-7.9116,-7.9116,-7.9116,-7.9116,-6.4888,-6.4888,-6.4888,-6.4888,-6.4888,-6.4888,-6.4888,-6.4888,-6.4888,-6.4888,-6.4888,-6.4888,-6.4998,-6.5108,-6.5515,-6.5808,-6.6054,-6.6374,-6.6586,-6.6617,-6.6586,-6.6586,-6.6586,-6.6586,-6.6586,-6.6796,-6.7631,-6.8072,-6.847,-6.9504,-7.0599,-7.1176,-7.1654,-7.2124,-7.2586,-7.2671,-7.2671,-7.2671,-7.2671,-7.2671,-7.2671,-7.2671,-7.2671,-7.2671,-7.2671,-7.2671,-7.2671,-7.2671,-7.2671,-7.2671,-7.2671,-7.2671,-7.2671,-7.2671,-7.2671,-7.2671,-7.2671,-7.2838,-7.3088,-7.317,-7.3334,-7.3577,-7.3737,-7.3817,-7.3852,-7.3931,-7.401,-7.401,-7.401,-7.401,-7.401,-7.4405,-7.4482,-7.4748,-7.5721,-7.6526,-7.672,-7.7255,-7.7805,-7.8276,-7.8441,-7.8602,-7.8708,-7.8864,-7.8966,-7.9116,-7.9116,-7.9116,-7.9116,-7.9116,-7.9116,-7.9116,-7.9116,-7.9116,-7.9116,-7.9116,-7.9116,-7.9116,-7.9116,-7.9116,-7.9116,-7.9116,-7.9116,-7.9116,-7.9116,-7.9116,-7.9116,-7.9116,-7.9116,-7.9116,-7.9116,-7.9116,-7.9116,-7.9116,-7.9116,-6.4888,-6.4888,-6.4888,-6.4888,-6.4888,-6.4888,-6.4888,-6.4888,-6.4888,-6.4888,-6.4888,-6.4888,-6.4998,-6.5297,-6.5592,-6.5947,-6.6299,-6.6406,-6.6586,-6.6586,-6.6586,-6.6586,-6.6586,-6.6586,-6.6586,-6.6691,-6.7903,-6.8371,-6.8927,-7.0289,-7.1444,-7.1654,-7.221,-7.2586,-7.2671,-7.2671,-7.2671,-7.2671,-7.2671,-7.2671,-7.2671,-7.2671,-7.2671,-7.2671,-7.2671,-7.2671,-7.2671,-7.2671,-7.2671,-7.2671,-7.2671,-7.2671,-7.2671,-7.2671,-7.2671,-7.2671,-7.2671,-7.2922,-7.317,-7.3334,-7.3496,-7.3931,-7.401,-7.401,-7.401,-7.401,-7.401,-7.401,-7.401,-7.401,-7.4088,-7.4633,-7.4935,-7.5299,-7.6366,-7.7071,-7.7353,-7.7863,-7.8221,-7.8332,-7.8549,-7.8655,-7.8812,-7.8915,-7.9016,-7.9116,-7.9116,-7.9116,-7.9116,-7.9116,-7.9116,-7.9116,-7.9116,-7.9116,-7.9116,-7.9116,-7.9116,-7.9116,-7.9116,-7.9116,-7.9116,-7.9116,-7.9116,-7.9116,-7.9116,-7.9116,-7.9116,-7.9116,-7.9116,-7.9116,-7.9116,-7.9116,-7.9116,-7.9116,-7.9165,-6.4888,-6.4888,-6.4888,-6.4888,-6.4888,-6.4888,-6.4888,-6.4888,-6.4888,-6.4888,-6.4888,-6.4888,-6.5108,-6.5297,-6.5592,-6.6054,-6.6406,-6.6617,-6.6586,-6.6586,-6.6586,-6.6586,-6.6586,-6.6796,-6.6691,-6.7078,-6.8403,-6.9313,-6.9694,-7.1321,-7.221,-7.2416,-7.2586,-7.2671,-7.2671,-7.2671,-7.2671,-7.2671,-7.2671,-7.2671,-7.2671,-7.2671,-7.2671,-7.2671,-7.2671,-7.2671,-7.2671,-7.2671,-7.2671,-7.2671,-7.2671,-7.2671,-7.2671,-7.2671,-7.2671,-7.2671,-7.2755,-7.2922,-7.3217,-7.3334,-7.3577,-7.3852,-7.401,-7.401,-7.401,-7.401,-7.401,-7.401,-7.401,-7.401,-7.401,-7.4748,-7.5082,-7.5477,-7.633,-7.7292,-7.7413,-7.7863,-7.8332,-7.8441,-7.8602,-7.876,-7.8864,-7.8966,-7.9066,-7.9116,-7.9116,-7.9116,-7.9116,-7.9116,-7.9116,-7.9116,-7.9116,-7.9116,-7.9116,-7.9116,-7.9116,-7.9116,-7.9116,-7.9116,-7.9116,-7.9116,-7.9116,-7.9116,-7.9116,-7.9116,-7.9116,-7.9116,-7.9116,-7.9116,-7.9116,-7.9116,-7.9116,-7.9116,-7.9331,-6.4888,-6.4888,-6.4888,-6.4888,-6.4888,-6.4888,-6.4888,-6.4888,-6.4888,-6.4888,-6.4888,-6.4888,-6.5108,-6.5515,-6.5592,-6.6054,-6.648,-6.6586,-6.6586,-6.6586,-6.6586,-6.6586,-6.6723,-6.7078,-6.7356,-6.7935,-6.9346,-7.0136,-6.9883,-7.1708,-7.2586,-7.2671,-7.2671,-7.2671,-7.2671,-7.2671,-7.2705,-7.2705,-7.2705,-7.2705,-7.2671,-7.2671,-7.2671,-7.2671,-7.2671,-7.2671,-7.2671,-7.2671,-7.2671,-7.2671,-7.2671,-7.2671,-7.2671,-7.2671,-7.2671,-7.2755,-7.2755,-7.3005,-7.3252,-7.3415,-7.3657,-7.3931,-7.401,-7.401,-7.401,-7.401,-7.401,-7.401,-7.401,-7.401,-7.401,-7.5009,-7.5548,-7.5859,-7.6846,-7.7592,-7.7863,-7.8183,-7.8386,-7.8549,-7.8655,-7.876,-7.8864,-7.8966,-7.9066,-7.9116,-7.9116,-7.9116,-7.9116,-7.9116,-7.9116,-7.9116,-7.9116,-7.9116,-7.9116,-7.9116,-7.9116,-7.9116,-7.9116,-7.9116,-7.9116,-7.9116,-7.9116,-7.9116,-7.9116,-7.9116,-7.9116,-7.9116,-7.9116,-7.9116,-7.9116,-7.9116,-7.9116,-7.9177,-7.9378,-6.4888,-6.4888,-6.4888,-6.4888,-6.4888,-6.4888,-6.4888,-6.4888,-6.4888,-6.4888,-6.4888,-6.4998,-6.5297,-6.5592,-6.5915,-6.6161,-6.6586,-6.6586,-6.6586,-6.6586,-6.6617,-6.6649,-6.7091,-6.7754,-6.8359,-6.8885,-7.0642,-7.0959,-7.0507,-7.183,-7.2655,-7.2946,-7.2946,-7.3015,-7.3188,-7.3395,-7.3119,-7.2912,-7.2877,-7.2877,-7.2705,-7.2671,-7.2671,-7.2671,-7.2671,-7.2671,-7.2671,-7.2671,-7.2671,-7.2671,-7.2671,-7.2671,-7.2671,-7.2755,-7.2755,-7.2755,-7.2922,-7.3088,-7.3334,-7.3577,-7.3737,-7.401,-7.401,-7.401,-7.401,-7.401,-7.4053,-7.4132,-7.4287,-7.4405,-7.4713,-7.5582,-7.6197,-7.6591,-7.7413,-7.8276,-7.8276,-7.8386,-7.8495,-7.8655,-7.8708,-7.8812,-7.8966,-7.9016,-7.9116,-7.9116,-7.9116,-7.9116,-7.9116,-7.9116,-7.9116,-7.9116,-7.9116,-7.9116,-7.9116,-7.9116,-7.9116,-7.9116,-7.9116,-7.9116,-7.9116,-7.9116,-7.9116,-7.9116,-7.9116,-7.9116,-7.9116,-7.9116,-7.9116,-7.9116,-7.9116,-7.9116,-7.9116,-7.9177,-7.9378,-6.4888,-6.4888,-6.4888,-6.4888,-6.4888,-6.4888,-6.4888,-6.4888,-6.4888,-6.4888,-6.4888,-6.5218,-6.5406,-6.5808,-6.6268,-6.648,-6.6617,-6.6681,-6.6712,-6.6744,-6.6807,-6.7198,-6.762,-6.8634,-6.9607,-7.037,-7.2122,-7.2144,-7.1808,-7.245,-7.3119,-7.3533,-7.3705,-7.3947,-7.4326,-7.4326,-7.4326,-7.3774,-7.3636,-7.336,-7.2912,-7.2843,-7.2843,-7.2809,-7.2843,-7.2877,-7.2946,-7.2981,-7.2877,-7.2774,-7.274,-7.2705,-7.2755,-7.2922,-7.2922,-7.3005,-7.3005,-7.317,-7.3496,-7.3657,-7.3772,-7.401,-7.401,-7.401,-7.401,-7.4088,-7.4287,-7.4971,-7.4971,-7.5155,-7.5582,-7.6461,-7.6946,-7.7292,-7.7747,-7.8221,-7.8332,-7.8495,-7.8602,-7.8708,-7.8812,-7.8915,-7.9066,-7.9066,-7.9116,-7.9116,-7.9116,-7.9116,-7.9116,-7.9116,-7.9116,-7.9116,-7.9116,-7.9116,-7.9116,-7.9116,-7.9116,-7.9116,-7.9116,-7.9116,-7.9116,-7.9116,-7.9116,-7.9116,-7.9116,-7.9116,-7.9116,-7.9116,-7.9116,-7.9116,-7.9116,-7.9116,-7.9116,-7.9225,-7.9425,-6.4888,-6.4888,-6.4888,-6.4888,-6.4888,-6.4888,-6.4888,-6.4888,-6.4888,-6.4888,-6.4998,-6.5187,-6.5515,-6.6054,-6.6406,-6.6586,-6.6681,-6.6965,-6.7155,-6.7419,-6.7641,-6.8277,-6.9206,-7.0164,-7.1095,-7.2174,-7.3341,-7.3988,-7.3582,-7.3688,-7.4188,-7.4361,-7.443,-7.4533,-7.5085,-7.4947,-7.474,-7.4499,-7.4395,-7.4292,-7.405,-7.3947,-7.3912,-7.3947,-7.3912,-7.3878,-7.3878,-7.3947,-7.3705,-7.3464,-7.3326,-7.3135,-7.2942,-7.3005,-7.3088,-7.3415,-7.3415,-7.3496,-7.3692,-7.3772,-7.3931,-7.3931,-7.401,-7.401,-7.401,-7.401,-7.4252,-7.5009,-7.5082,-7.5477,-7.613,-7.672,-7.7071,-7.7413,-7.7957,-7.8183,-7.8386,-7.8549,-7.8708,-7.8812,-7.8915,-7.9016,-7.9116,-7.9116,-7.9116,-7.9116,-7.9116,-7.9116,-7.9116,-7.9116,-7.9116,-7.9116,-7.9116,-7.9116,-7.9116,-7.9116,-7.9116,-7.9116,-7.9116,-7.9116,-7.9116,-7.9116,-7.9116,-7.9116,-7.9116,-7.9116,-7.9116,-7.9116,-7.9116,-7.9116,-7.9116,-7.9116,-7.9165,-7.9433,-7.9708,-6.4888,-6.4888,-6.4888,-6.4888,-6.4888,-6.4888,-6.4888,-6.4888,-6.4888,-6.4888,-6.5108,-6.5437,-6.587,-6.6192,-6.6512,-6.6712,-6.6902,-6.7376,-6.7874,-6.8298,-6.8968,-6.9785,-7.0917,-7.1985,-7.2993,-7.3976,-7.5014,-7.5426,-7.548,-7.5464,-7.543,-7.5257,-7.5223,-7.5395,-7.5499,-7.5602,-7.5568,-7.5223,-7.4947,-7.4843,-7.4809,-7.4809,-7.4843,-7.4843,-7.4912,-7.4912,-7.4912,-7.4843,-7.4499,-7.4223,-7.4085,-7.3929,-7.3753,-7.3886,-7.3878,-7.4101,-7.4077,-7.3982,-7.3957,-7.3931,-7.401,-7.401,-7.401,-7.401,-7.401,-7.401,-7.4482,-7.5335,-7.5406,-7.5859,-7.6526,-7.7255,-7.7473,-7.7747,-7.8014,-7.8239,-7.8495,-7.8602,-7.8708,-7.8827,-7.8966,-7.9066,-7.9116,-7.9116,-7.9116,-7.9116,-7.9116,-7.9116,-7.9116,-7.9116,-7.9116,-7.9116,-7.9116,-7.9116,-7.9116,-7.9116,-7.9116,-7.9116,-7.9116,-7.9116,-7.9116,-7.9116,-7.9116,-7.9116,-7.9116,-7.9116,-7.9116,-7.9116,-7.9116,-7.9116,-7.9116,-7.9116,-7.9225,-7.9569,-8.0005,-6.4888,-6.4888,-6.4888,-6.4888,-6.4888,-6.4888,-6.4888,-6.4888,-6.4888,-6.4998,-6.5297,-6.587,-6.6192,-6.6575,-6.6775,-6.7028,-6.7534,-6.7597,-6.8681,-6.9664,-7.0274,-7.1243,-7.2548,-7.3696,-7.4634,-7.5451,-7.6222,-7.6686,-7.6947,-7.6671,-7.6464,-7.612,-7.6016,-7.6464,-7.6671,-7.6637,-7.643,-7.6016,-7.5533,-7.5223,-7.5188,-7.5154,-7.5119,-7.5085,-7.5016,-7.4947,-7.4947,-7.5119,-7.5085,-7.4912,-7.4843,-7.4878,-7.4772,-7.499,-7.4996,-7.4846,-7.4903,-7.4738,-7.4457,-7.415,-7.401,-7.401,-7.401,-7.4088,-7.4209,-7.4053,-7.4673,-7.579,-7.5995,-7.6692,-7.7473,-7.8165,-7.8014,-7.8071,-7.8183,-7.8294,-7.8549,-7.8655,-7.876,-7.8915,-7.9016,-7.9066,-7.9116,-7.9116,-7.9116,-7.9116,-7.9116,-7.9116,-7.9116,-7.9116,-7.9116,-7.9116,-7.9116,-7.9116,-7.9116,-7.9116,-7.9116,-7.9116,-7.9116,-7.9116,-7.9116,-7.9116,-7.9116,-7.9116,-7.9116,-7.9116,-7.9116,-7.9116,-7.9116,-7.9116,-7.9116,-7.9177,-7.9433,-7.9836,-8.0277,-6.4888,-6.4888,-6.4888,-6.4888,-6.4888,-6.4888,-6.4888,-6.4888,-6.4888,-6.5187,-6.5592,-6.5978,-6.6519,-6.7016,-6.7249,-6.7597,-6.8261,-6.8735,-6.9713,-7.0671,-7.1519,-7.2773,-7.4137,-7.5039,-7.562,-7.645,-7.7043,-7.7223,-7.7189,-7.7223,-7.712,-7.6844,-7.674,-7.6913,-7.7189,-7.7223,-7.7016,-7.6844,-7.6499,-7.6326,-7.6326,-7.6326,-7.6326,-7.6326,-7.6361,-7.6326,-7.6361,-7.6361,-7.6085,-7.5775,-7.5759,-7.5777,-7.567,-7.5854,-7.5812,-7.5744,-7.5755,-7.5625,-7.5168,-7.4572,-7.401,-7.401,-7.401,-7.4209,-7.4482,-7.4673,-7.5406,-7.6264,-7.672,-7.7255,-7.8014,-7.8276,-7.8276,-7.8332,-7.8386,-7.8495,-7.8602,-7.8708,-7.8864,-7.8966,-7.9016,-7.9116,-7.9116,-7.9116,-7.9116,-7.9116,-7.9116,-7.9116,-7.9116,-7.9116,-7.9116,-7.9116,-7.9116,-7.9116,-7.9116,-7.9116,-7.9116,-7.9116,-7.9116,-7.9116,-7.9116,-7.9116,-7.9116,-7.9116,-7.9116,-7.9116,-7.9116,-7.9116,-7.9116,-7.9116,-7.9225,-7.9331,-7.9665,-8.0045,-8.0531,-6.4888,-6.4888,-6.4888,-6.4888,-6.4888,-6.4998,-6.4998,-6.4998,-6.5108,-6.5406,-6.5839,-6.6381,-6.6941,-6.7534,-6.7881,-6.8324,-6.8924,-6.9477,-7.0738,-7.1772,-7.2859,-7.4173,-7.5383,-7.6173,-7.645,-7.7133,-7.7223,-7.7223,-7.7223,-7.7223,-7.7189,-7.7189,-7.7223,-7.7223,-7.7223,-7.7223,-7.7223,-7.7223,-7.7223,-7.7223,-7.7189,-7.7154,-7.712,-7.712,-7.7085,-7.7085,-7.7051,-7.6982,-7.6844,-7.6657,-7.6572,-7.6557,-7.6536,-7.6545,-7.6607,-7.6631,-7.6608,-7.6573,-7.6011,-7.5239,-7.4361,-7.4431,-7.408,-7.4476,-7.4897,-7.5155,-7.5618,-7.6883,-7.7194,-7.7473,-7.8221,-7.8276,-7.8276,-7.8332,-7.8441,-7.8549,-7.8655,-7.876,-7.8915,-7.9066,-7.9116,-7.9116,-7.9116,-7.9116,-7.9116,-7.9116,-7.9116,-7.9116,-7.9116,-7.9116,-7.9116,-7.9116,-7.9116,-7.9116,-7.9116,-7.9116,-7.9116,-7.9116,-7.9116,-7.9116,-7.9116,-7.9116,-7.9116,-7.9116,-7.9116,-7.9116,-7.9116,-7.9116,-7.9116,-7.9116,-7.9273,-7.9387,-7.984,-8.0277,-8.0701,-6.4888,-6.4888,-6.4888,-6.4888,-6.4998,-6.5187,-6.5297,-6.5297,-6.5515,-6.587,-6.6349,-6.7036,-6.7629,-6.7881,-6.845,-6.9051,-6.9666,-6.9966,-7.1167,-7.3164,-7.3873,-7.5287,-7.63,-7.7043,-7.6918,-7.7133,-7.7223,-7.7223,-7.7223,-7.7223,-7.7223,-7.7223,-7.7223,-7.7223,-7.7223,-7.7223,-7.7223,-7.7223,-7.7223,-7.7223,-7.7223,-7.7223,-7.7223,-7.7223,-7.7223,-7.7223,-7.7223,-7.7223,-7.712,-7.7105,-7.7283,-7.7407,-7.7596,-7.7802,-7.7811,-7.7486,-7.7415,-7.7064,-7.6397,-7.5555,-7.5363,-7.5266,-7.5105,-7.521,-7.5296,-7.5442,-7.6039,-7.7647,-7.7487,-7.7629,-7.8014,-7.8369,-7.8369,-7.8386,-7.8495,-7.8602,-7.876,-7.8864,-7.9016,-7.9066,-7.9116,-7.9116,-7.9116,-7.9116,-7.9116,-7.9116,-7.9116,-7.9116,-7.9116,-7.9116,-7.9116,-7.9116,-7.9116,-7.9116,-7.9116,-7.9116,-7.9116,-7.9116,-7.9116,-7.9116,-7.9116,-7.9116,-7.9116,-7.9116,-7.9116,-7.9116,-7.9116,-7.9079,-7.9225,-7.9284,-7.9284,-7.9479,-7.9964,-8.0461,-8.0862,-6.4888,-6.4888,-6.4888,-6.4998,-6.5218,-6.5297,-6.5297,-6.5406,-6.587,-6.6305,-6.682,-6.7427,-6.8197,-6.8798,-6.9209,-6.9714,-7.0363,-7.1413,-7.2776,-7.3838,-7.4571,-7.5798,-7.6828,-7.7223,-7.7223,-7.7223,-7.7223,-7.7223,-7.7223,-7.7223,-7.7223,-7.7223,-7.7223,-7.7223,-7.7223,-7.7223,-7.7223,-7.7223,-7.7223,-7.7223,-7.7223,-7.7223,-7.7223,-7.7223,-7.7223,-7.7223,-7.7223,-7.7223,-7.7313,-7.7402,-7.7667,-7.7928,-7.8101,-7.8357,-7.8385,-7.8188,-7.8153,-7.8118,-7.7872,-7.747,-7.7163,-7.6925,-7.6762,-7.702,-7.7995,-7.7516,-7.795,-7.8293,-7.8211,-7.8331,-7.8221,-7.8424,-7.8478,-7.8495,-7.8602,-7.876,-7.8864,-7.8966,-7.9116,-7.9116,-7.9116,-7.9116,-7.9116,-7.9116,-7.9116,-7.9116,-7.9116,-7.9116,-7.9116,-7.9116,-7.9116,-7.9116,-7.9116,-7.9116,-7.9116,-7.9116,-7.9116,-7.9116,-7.9116,-7.9116,-7.9116,-7.9116,-7.9116,-7.9116,-7.9116,-7.9116,-7.9128,-7.9273,-7.9433,-7.9524,-7.9708,-7.9923,-8.0389,-8.0734,-8.0992,-6.4888,-6.4888,-6.4888,-6.5108,-6.5297,-6.5406,-6.5515,-6.5731,-6.6224,-6.6677,-6.7319,-6.7742,-6.8545,-6.9462,-6.9999,-7.022,-7.0869,-7.1874,-7.2979,-7.4073,-7.5094,-7.6114,-7.6918,-7.7223,-7.7223,-7.7223,-7.7223,-7.7223,-7.7223,-7.7223,-7.7223,-7.7223,-7.7223,-7.7223,-7.7223,-7.7223,-7.7223,-7.7223,-7.7223,-7.7223,-7.7223,-7.7223,-7.7223,-7.7223,-7.7223,-7.7223,-7.7223,-7.7313,-7.7402,-7.7579,-7.7841,-7.8101,-7.8357,-7.8441,-7.8574,-7.8574,-7.8574,-7.8705,-7.8796,-7.9293,-7.914,-7.9251,-7.8955,-7.9002,-7.949,-7.894,-7.9228,-7.9401,-7.926,-7.9038,-7.8907,-7.898,-7.8885,-7.8938,-7.891,-7.9014,-7.9065,-7.9129,-7.9191,-7.9191,-7.9116,-7.9116,-7.9116,-7.9116,-7.9116,-7.9116,-7.9116,-7.9116,-7.9116,-7.9116,-7.9116,-7.9116,-7.9116,-7.9116,-7.9116,-7.9116,-7.9116,-7.9116,-7.9116,-7.9116,-7.9116,-7.9116,-7.9116,-7.9116,-7.9116,-7.9165,-7.9273,-7.9378,-7.9708,-8.0085,-8.0425,-8.0635,-8.0869,-8.0992,-8.1119,-6.4888,-6.4888,-6.4888,-6.5108,-6.5406,-6.57,-6.6023,-6.6512,-6.6649,-6.706,-6.7692,-6.845,-6.9177,-6.9809,-7.0441,-7.0806,-7.1282,-7.2197,-7.3187,-7.4273,-7.5479,-7.6392,-7.6918,-7.7223,-7.7223,-7.7223,-7.7223,-7.7223,-7.7223,-7.7223,-7.7223,-7.7223,-7.7223,-7.7223,-7.7223,-7.7223,-7.7223,-7.7223,-7.7223,-7.7223,-7.7223,-7.7223,-7.7223,-7.7223,-7.7223,-7.7223,-7.7313,-7.7402,-7.7579,-7.7754,-7.8049,-7.8186,-7.8357,-7.849,-7.8574,-7.8574,-7.8574,-7.8917,-7.9565,-8.0074,-8.0872,-8.0781,-7.998,-7.9596,-7.9773,-8.0198,-8.0318,-8.0444,-8.0357,-8.0098,-7.9911,-7.9742,-7.961,-7.9455,-7.9313,-7.9327,-7.9341,-7.9316,-7.9292,-7.9266,-7.9154,-7.9116,-7.9116,-7.9116,-7.9266,-7.9116,-7.9116,-7.9116,-7.9116,-7.9116,-7.9116,-7.9116,-7.9116,-7.9116,-7.9116,-7.9116,-7.9116,-7.9116,-7.9116,-7.9116,-7.9116,-7.9116,-7.9116,-7.9116,-7.9116,-7.9165,-7.9225,-7.9614,-8.0124,-8.0496,-8.0734,-8.103,-8.1157,-8.109,-8.1175,-6.4998,-6.5187,-6.4998,-6.5328,-6.5978,-6.6161,-6.6512,-6.6649,-6.7091,-6.7692,-6.8419,-6.9082,-6.9714,-7.0473,-7.0694,-7.1282,-7.209,-7.3083,-7.4206,-7.519,-7.6114,-7.6736,-7.7133,-7.7223,-7.7223,-7.7223,-7.7223,-7.7223,-7.7223,-7.7223,-7.7223,-7.7223,-7.7223,-7.7223,-7.7223,-7.7223,-7.7223,-7.7223,-7.7223,-7.7223,-7.7223,-7.7223,-7.7223,-7.7223,-7.7223,-7.7313,-7.7402,-7.749,-7.7701,-7.8135,-7.8221,-7.8357,-7.8525,-7.8574,-7.8574,-7.8574,-7.8657,-7.8952,-7.9643,-8.044,-8.1263,-8.2039,-8.1681,-8.2068,-8.2029,-8.1622,-8.1407,-8.1413,-8.1306,-8.0916,-8.0823,-8.0654,-8.0539,-8.0399,-8.0278,-8.0329,-8.0254,-8.0117,-8.0055,-7.9942,-7.9792,-7.9567,-7.9492,-7.9454,-7.9567,-7.9266,-7.9191,-7.9304,-7.9191,-7.9229,-7.9116,-7.9116,-7.9116,-7.9116,-7.9116,-7.9116,-7.9116,-7.9116,-7.9116,-7.9116,-7.9116,-7.9116,-7.9116,-7.9116,-7.9116,-7.9116,-7.9116,-7.9621,-8.0277,-8.0566,-8.0837,-8.1157,-8.1362,-8.1269,-8.1296,-6.5108,-6.5297,-6.5108,-6.5546,-6.6255,-6.6796,-6.6997,-6.7091,-6.7407,-6.8134,-6.9082,-6.9493,-7.0094,-7.0662,-7.0869,-7.136,-7.2379,-7.3394,-7.4472,-7.5574,-7.6702,-7.7043,-7.7223,-7.7223,-7.7223,-7.7223,-7.7223,-7.7223,-7.7223,-7.7223,-7.7223,-7.7223,-7.7223,-7.7223,-7.7223,-7.7223,-7.7223,-7.7223,-7.7223,-7.7223,-7.7223,-7.7223,-7.7223,-7.7223,-7.7223,-7.7402,-7.7613,-7.7701,-7.7928,-7.8272,-7.8357,-7.8441,-7.8574,-7.8574,-7.8574,-7.8657,-7.8998,-7.9444,-8.0254,-8.0982,-8.1672,-8.2334,-8.2904,-8.2987,-8.2935,-8.2564,-8.2453,-8.24,-8.2049,-8.1792,-8.1681,-8.1622,-8.1559,-8.144,-8.1506,-8.1557,-8.1332,-8.1106,-8.0956,-8.0806,-8.0581,-8.0318,-8.0168,-8.0055,-8.013,-8.0318,-8.0393,-8.043,-8.0017,-7.9529,-7.9304,-7.9116,-7.9116,-7.9116,-7.9191,-7.9341,-7.9304,-7.9304,-7.9116,-7.9116,-7.9116,-7.9154,-7.9278,-7.9241,-7.9116,-7.929,-7.9642,-7.9874,-8.0352,-8.075,-8.1162,-8.1396,-8.1569,-8.1453,-8.1465,-6.5108,-6.5406,-6.5406,-6.5762,-6.6318,-6.7143,-6.7597,-6.7692,-6.7818,-6.845,-6.9525,-6.9746,-7.0188,-7.0806,-7.106,-7.1798,-7.2769,-7.3871,-7.4996,-7.5764,-7.6702,-7.7223,-7.7223,-7.7223,-7.7223,-7.7223,-7.7223,-7.7223,-7.7223,-7.7223,-7.7223,-7.7223,-7.7223,-7.7223,-7.7223,-7.7223,-7.7223,-7.7223,-7.7223,-7.7223,-7.7223,-7.7223,-7.7223,-7.7223,-7.7313,-7.7402,-7.7667,-7.7841,-7.8066,-7.8272,-7.8441,-7.8574,-7.8574,-7.8788,-7.8788,-7.8998,-7.9444,-8.0143,-8.0803,-8.1537,-8.227,-8.2745,-8.318,-8.318,-8.3106,-8.3069,-8.292,-8.2979,-8.2722,-8.2613,-8.2593,-8.259,-8.2511,-8.2467,-8.2444,-8.2496,-8.2383,-8.2007,-8.1594,-8.1407,-8.1181,-8.0956,-8.0956,-8.0843,-8.0768,-8.1256,-8.1332,-8.1294,-8.1031,-8.0243,-7.998,-7.9642,-7.9754,-7.9905,-7.9867,-7.9942,-7.9717,-7.9567,-7.9492,-7.9642,-8.0017,-7.9804,-7.944,-7.9944,-8.0477,-8.022,-8.0358,-8.085,-8.1333,-8.1535,-8.1822,-8.1813,-8.1852,-8.1929,-8.1732,-6.5406,-6.5592,-6.6054,-6.6299,-6.6287,-6.7206,-6.7945,-6.8482,-6.8988,-6.9367,-6.9746,-7.0252,-7.0568,-7.0838,-7.158,-7.2485,-7.3599,-7.4472,-7.5798,-7.6392,-7.7133,-7.7223,-7.7223,-7.7223,-7.7223,-7.7223,-7.7223,-7.7223,-7.7223,-7.7223,-7.7223,-7.7223,-7.7223,-7.7223,-7.7223,-7.7223,-7.7223,-7.7223,-7.7223,-7.7223,-7.7223,-7.7223,-7.7223,-7.7402,-7.749,-7.7667,-7.7928,-7.8101,-7.8357,-7.849,-7.8574,-7.8574,-7.8574,-7.916,-7.9444,-7.9565,-8.0179,-8.0875,-8.1433,-8.1937,-8.246,-8.2904,-8.318,-8.318,-8.318,-8.318,-8.3239,-8.3297,-8.3395,-8.3359,-8.3413,-8.3393,-8.3463,-8.3419,-8.3359,-8.3359,-8.3359,-8.2834,-8.2308,-8.2045,-8.1782,-8.1745,-8.1782,-8.1707,-8.1632,-8.1594,-8.1557,-8.1557,-8.1707,-8.1332,-8.1369,-8.1144,-8.1031,-8.1031,-8.0806,-8.0618,-8.0468,-8.0581,-8.0693,-8.0806,-8.0881,-8.0924,-8.0946,-8.1672,-8.2144,-8.1685,-8.1688,-8.2447,-8.2798,-8.2648,-8.2757,-8.2832,-8.3101,-8.328,-8.2631,-6.5515,-6.5947,-6.6374,-6.6669,-6.6941,-6.7679,-6.8482,-6.9177,-6.9872,-7.0157,-7.022,-7.0568,-7.0789,-7.0981,-7.1874,-7.3083,-7.4073,-7.5094,-7.608,-7.6918,-7.7223,-7.7223,-7.7223,-7.7223,-7.7223,-7.7223,-7.7223,-7.7223,-7.7292,-7.7223,-7.7223,-7.7292,-7.7292,-7.7327,-7.7292,-7.7258,-7.7292,-7.7223,-7.7382,-7.7382,-7.7471,-7.7436,-7.7402,-7.7613,-7.7754,-7.7928,-7.8101,-7.8307,-7.8441,-7.849,-7.8574,-7.8952,-7.9079,-7.9408,-7.9875,-8.0292,-8.0946,-8.1605,-8.1974,-8.2397,-8.2684,-8.3024,-8.318,-8.318,-8.3297,-8.3297,-8.3297,-8.3413,-8.3602,-8.36,-8.3655,-8.3726,-8.3779,-8.381,-8.381,-8.381,-8.3772,-8.3547,-8.3247,-8.3171,-8.3021,-8.3021,-8.3021,-8.3059,-8.2946,-8.2946,-8.2758,-8.2608,-8.2608,-8.2383,-8.2458,-8.242,-8.2158,-8.1745,-8.1332,-8.1256,-8.1294,-8.1519,-8.1782,-8.1683,-8.1688,-8.2147,-8.2561,-8.2951,-8.314,-8.2835,-8.3019,-8.3676,-8.3719,-8.348,-8.3668,-8.3927,-8.4209,-8.4413,-8.3762,-6.5731,-6.6299,-6.6512,-6.6965,-6.766,-6.8355,-6.9051,-6.9714,-7.0441,-7.0757,-7.0806,-7.0949,-7.0981,-7.1392,-7.209,-7.3187,-7.4273,-7.5608,-7.6519,-7.7009,-7.7223,-7.7223,-7.7223,-7.7223,-7.7223,-7.7327,-7.743,-7.7465,-7.7534,-7.7672,-7.781,-7.7534,-7.7499,-7.7568,-7.7499,-7.7568,-7.7741,-7.79,-7.8113,-7.8029,-7.789,-7.7771,-7.7701,-7.7754,-7.7841,-7.8101,-7.8272,-7.8357,-7.8441,-7.849,-7.8657,-7.8998,-7.9522,-7.9875,-8.044,-8.0946,-8.1739,-8.2104,-8.2397,-8.2745,-8.3024,-8.318,-8.318,-8.3297,-8.3355,-8.3433,-8.347,-8.3546,-8.3712,-8.3822,-8.3876,-8.3929,-8.402,-8.411,-8.411,-8.411,-8.4073,-8.4035,-8.3998,-8.396,-8.396,-8.396,-8.396,-8.4035,-8.4035,-8.411,-8.411,-8.411,-8.396,-8.3547,-8.3359,-8.3209,-8.2946,-8.2496,-8.212,-8.212,-8.227,-8.242,-8.266,-8.2481,-8.2627,-8.3402,-8.383,-8.3822,-8.3853,-8.4033,-8.4132,-8.452,-8.4435,-8.4456,-8.4817,-8.5163,-8.5134,-8.5219,-8.4837,-6.5947,-6.6512,-6.6617,-6.6997,-6.766,-6.8387,-6.9082,-6.9746,-7.0473,-7.0789,-7.0981,-7.1689,-7.209,-7.2197,-7.3187,-7.4173,-7.5094,-7.6207,-7.6736,-7.7223,-7.7223,-7.7223,-7.7292,-7.7396,-7.7258,-7.7534,-7.7913,-7.8154,-7.8223,-7.8672,-7.9017,-7.8913,-7.8948,-7.8982,-7.8982,-7.8948,-7.8901,-7.8957,-7.9138,-7.9228,-7.9093,-7.8798,-7.8084,-7.8101,-7.8186,-7.8357,-7.8525,-7.849,-7.8574,-7.8574,-7.8657,-7.9079,-7.9721,-8.0328,-8.0946,-8.1672,-8.246,-8.2684,-8.2964,-8.3024,-8.318,-8.3239,-8.3297,-8.3355,-8.3489,-8.3602,-8.3657,-8.3712,-8.3876,-8.3929,-8.3967,-8.402,-8.411,-8.411,-8.411,-8.411,-8.411,-8.4073,-8.4073,-8.4073,-8.4073,-8.4035,-8.4073,-8.4073,-8.4073,-8.411,-8.411,-8.411,-8.411,-8.411,-8.411,-8.3847,-8.3585,-8.3772,-8.366,-8.3359,-8.3397,-8.3509,-8.3602,-8.3718,-8.4123,-8.5052,-8.5339,-8.5081,-8.539,-8.5748,-8.5794,-8.5418,-8.5693,-8.5797,-8.6156,-8.6398,-8.625,-8.604,-8.5695]}]]